[[{"header":{"parameterUnit":"m.s-1","parameterCategory":1,"la1":31.0,"la2":29.5877,"lo1":-88.7671,"lo2":-86.6584,"dy":0.0162,"dx":0.0185,"nx":115,"ny":88,"refTime":"2023-06-12T06:00:00:Z","depth":0,"parameterNumber":2,"parameterNumberName":"U-component_of_WINDS"},"data":[0.0,0.0,0.0,0.0,0.0,0.0,0.0,0.0,0.0,0.0,0.0,0.0,0.0,0.0,0.0,0.0,0.0,0.0,0.0,0.0,0.0,0.0,0.0,0.0,0.0,0.0,0.0,0.0,0.0,0.0,0.0,0.0,0.0,0.0,0.0,0.0,0.0,0.0,0.0,0.0,0.0,0.0,0.0,0.0,0.0,0.0,0.0,0.0,0.0,0.0,0.0,0.0,0.0,0.0,0.0,0.0,0.0,0.0,0.0,0.0,0.0,0.0,0.0,0.0,0.0,0.0,0.0,0.0,0.0,0.0,0.0,0.0,0.0,0.0,0.0,0.0,0.0,0.0,0.0,0.0,0.0,0.0,0.0,0.0,0.0,0.0,0.0,0.0,0.0,0.0,0.0,0.0,0.0,0.0,0.0,0.0,0.0,0.0,0.0,0.0,0.0,0.0,0.0,0.0,0.0,0.0,0.0,0.0,0.0,0.0,0.0,0.0,0.0,0.0,0.0,0.0,0.0,0.0,0.0,0.0,0.0,0.0,0.0,0.0,0.0,0.0,0.0,0.0,0.0,0.0,0.0,0.0,0.0,0.0,0.0,0.0,0.0,0.0,0.0,0.0,0.0,0.0,0.0,0.0,0.0,0.0,0.0,0.0,0.0,0.0,0.0,0.0,0.0,0.0,0.0,0.0,0.0,0.0,0.0,0.0,0.0,0.0,0.0,0.0,0.0,0.0,0.0,0.0,0.0,0.0,0.0,0.0,0.0,0.0,0.0,0.0,0.0,0.0,0.0,0.0,0.0,0.0,0.0,0.0,0.0,0.0,0.0,0.0,0.0,0.0,0.0,0.0,0.0,0.0,0.0,0.0,0.0,0.0,0.0,0.0,0.0,0.0,0.0,0.0,0.0,0.0,0.0,0.0,0.0,0.0,0.0,0.0,0.0,0.0,0.0,0.0,0.0,0.0,0.0,0.0,0.0,0.0,0.0,0.0,0.0,0.0,0.0,0.0,0.0,0.0,0.0,0.0,0.0,0.0,0.0,0.0,0.0,0.0,0.0,0.0,0.0,0.0,0.0,0.0,0.0,0.0,0.0,0.0,0.0,0.0,0.0,0.0,0.0,0.0,0.0,0.0,0.0,0.0,0.0,0.0,0.0,0.0,0.0,0.0,0.0,0.0,0.0,0.0,0.0,0.0,0.0,0.0,0.0,0.0,0.0,0.0,0.0,0.0,0.0,0.0,0.0,0.0,0.0,0.0,0.0,0.0,0.0,0.0,0.0,0.0,0.0,0.0,0.0,0.0,0.0,0.0,0.0,0.0,0.0,0.0,0.0,0.0,0.0,0.0,0.0,0.0,0.0,0.0,0.0,0.0,0.0,0.0,0.0,0.0,0.0,0.0,0.0,0.0,0.0,0.0,0.0,0.0,0.0,0.0,0.0,0.0,0.0,0.0,0.0,0.0,0.0,0.0,0.0,0.0,0.0,0.0,0.0,0.0,0.0,0.0,0.0,0.0,0.0,0.0,0.0,0.0,0.0,0.0,0.0,0.0,0.0,0.0,0.0,0.0,0.0,0.0,0.0,0.0,0.0,0.0,0.0,0.0,0.0,0.0,0.0,0.0,0.0,0.0,0.0,0.0,0.0,0.0,0.0,0.0,0.0,0.0,0.0,0.0,0.0,0.0,0.0,0.0,0.0,0.0,0.0,0.0,0.0,0.0,0.0,0.0,0.0,0.0,0.0,0.0,0.0,0.0,0.0,0.0,0.0,0.0,0.0,0.0,0.0,0.0,0.0,0.0,0.0,0.0,0.0,0.0,0.0,0.0,0.0,0.0,0.0,0.0,0.0,0.0,0.0,0.0,0.0,0.0,0.0,0.0,0.0,0.0,0.0,0.0,0.0,0.0,0.0,0.0,0.0,0.0,0.0,0.0,0.0,0.0,0.0,0.0,0.0,0.0,0.0,0.0,0.0,0.0,0.0,0.0,0.0,0.0,0.0,0.0,0.0,0.0,0.0,0.0,0.0,0.0,0.0,0.0,0.0,0.0,0.0,0.0,0.0,0.0,0.0,0.0,0.0,0.0,0.0,0.0,0.0,0.0,0.0,0.0,0.0,0.0,0.0,0.0,0.0,0.0,0.0,0.0,0.0,0.0,0.0,0.0,0.0,0.0,0.0,0.0,0.0,0.0,0.0,0.0,0.0,0.0,0.0,0.0,0.0,0.0,0.0,0.0,0.0,0.0,0.0,0.0,0.0,0.0,0.0,0.0,0.0,0.0,0.0,0.0,0.0,0.0,0.0,0.0,0.0,0.0,0.0,0.0,0.0,0.0,0.0,0.0,0.0,0.0,0.0,0.0,0.0,0.0,0.0,0.0,0.0,0.0,0.0,0.0,0.0,0.0,0.0,0.0,0.0,0.0,0.0,0.0,0.0,0.0,0.0,0.0,0.0,0.0,0.0,0.0,0.0,0.0,0.0,0.0,0.0,0.0,0.0,0.0,0.0,0.0,0.0,0.0,0.0,0.0,0.0,0.0,0.0,0.0,0.0,0.0,0.0,0.0,0.0,0.0,0.0,0.0,0.0,0.0,0.0,0.0,0.0,0.0,0.0,0.0,0.0,0.0,0.0,0.0,0.0,0.0,0.0,0.0,0.0,0.0,0.0,0.0,0.0,0.0,0.0,0.0,0.0,0.0,0.0,0.0,0.0,0.0,0.0,0.0,0.0,0.0,0.0,0.0,0.0,0.0,0.0,0.0,0.0,0.0,0.0,0.0,0.0,0.0,0.0,0.0,0.0,0.0,0.0,0.0,0.0,0.0,0.0,0.0,0.0,0.0,0.0,0.0,0.0,0.0,0.0,0.0,0.0,0.0,0.0,0.0,0.0,0.0,0.0,0.0,0.0,0.0,0.0,0.0,0.0,0.0,0.0,0.0,0.0,0.0,0.0,0.0,0.0,0.0,0.0,0.0,0.0,0.0,0.0,0.0,0.0,0.0,0.0,0.0,0.0,0.0,0.0,0.0,0.0,0.0,0.0,0.0,0.0,0.0,0.0,0.0,0.0,0.0,0.0,0.0,0.0,0.0,0.0,0.0,0.0,0.0,0.0,0.0,0.0,0.0,0.0,0.0,0.0,0.0,0.0,0.0,0.0,0.0,0.0,0.0,0.0,0.0,0.0,0.0,0.0,0.0,0.0,0.0,0.0,0.0,0.0,0.0,0.0,0.0,0.0,0.0,0.0,0.0,0.0,0.0,0.0,0.0,0.0,0.0,0.0,0.0,0.0,0.0,0.0,0.0,0.0,0.0,0.0,0.0,0.0,0.0,0.0,0.0,0.0,0.0,0.0,0.0,0.0,0.0,0.0,0.0,0.0,0.0,0.0,0.0,0.0,0.0,0.0,0.0,0.0,0.0,0.0,0.0,0.0,0.0,0.0,0.0,0.0,0.0,0.0,0.0,0.0,0.0,0.0,0.0,0.0,0.0,0.0,0.0,0.0,0.0,0.0,0.0,0.0,0.0,0.0,0.0,0.0,0.0,0.0,0.0,0.0,0.0,0.0,0.0,0.0,0.0,0.0,0.0,0.0,0.0,0.0,0.0,0.0,0.0,0.0,0.0,0.0,0.0,0.0,0.0,0.0,0.0,0.0,0.0,0.0,0.0,0.0,0.0,0.0,0.0,0.0,0.0,0.0,0.0,0.0,0.0,0.0,0.0,0.0,0.0,0.0,0.0,0.0,0.0,0.0,0.0,0.0,0.0,0.0,0.0,0.0,0.0,0.0,0.0,0.0,0.0,0.0,0.0,0.0,0.0,0.0,0.0,0.0,0.0,0.0,0.0,0.0,0.0,0.0,0.0,0.0,0.0,0.0,0.0,0.0,0.0,0.0,0.0,0.0,0.0,0.0,0.0,0.0,0.0,0.0,0.0,0.0,0.0,0.0,0.0,0.0,0.0,0.0,0.0,0.0,0.0,0.0,0.0,0.0,0.0,0.0,0.0,0.0,0.0,0.0,0.0,0.0,0.0,0.0,0.0,0.0,0.0,0.0,0.0,0.0,0.0,0.0,0.0,0.0,0.0,0.0,0.0,0.0,0.0,0.0,0.0,0.0,0.0,0.0,0.0,0.0,0.0,0.0,0.0,0.0,0.0,0.0,0.0,0.0,0.0,0.0,0.0,0.0,0.0,0.0,0.0,0.0,0.0,0.0,0.0,0.0,0.0,0.0,0.0,0.0,0.0,0.0,0.0,0.0,0.0,0.0,0.0,0.0,0.0,0.0,0.0,0.0921,0.0,0.0,0.0,0.0,0.0,0.0,0.0,0.0,0.0,0.0,0.0,0.0,0.0,0.0,0.0,0.0,0.0,0.0,0.0,0.0,0.0,0.0,0.0,0.0,0.0,0.0,0.0,0.0,0.0,0.0,0.0,0.0,0.0,0.0,0.0,0.0,0.0,0.0,0.0,0.0,0.0,0.0,0.0,0.0,0.0,0.0,0.0,0.0,0.0,0.0,0.0,0.0,0.0,0.0,0.0,0.0,0.0,0.0,0.0,0.0,0.0,0.0,0.0,0.0,0.0,0.0,0.0,0.0,0.0,0.0,0.0,0.0,0.0,0.0,0.0,0.0,0.0,0.0,0.0,0.0,0.0,0.0,0.0,0.0,0.0,0.0,0.0,0.0,0.0,0.0,0.0,0.0,0.0,0.0,0.0,0.0,0.0,0.0,0.0,0.0,0.0,0.0,0.0,0.0,0.0,0.0,0.0,0.0,0.0,0.0,0.4086,0.4567,0.3441,0.2008,0.0353,0.0,0.0,0.0,0.0,0.0,0.0,0.0,0.0,0.0,0.0,0.0,0.0,0.0,0.0,0.0,0.0,0.0,0.0,0.0,0.0,0.0,0.0,0.0,0.0,0.0,0.0,0.0,0.0,0.0,0.0,0.0,0.0,0.0,0.0,0.0,0.0,0.0,0.0,0.0,0.0,0.0,0.0,0.0,0.0,0.0,0.0,0.0,0.0,0.0,0.0,0.0,0.0,0.0,0.0,0.0,0.0,0.0,0.0,0.0,0.0,0.0,0.0,0.0,0.0,0.0,0.0,0.0,0.0,0.0,0.0,0.0,0.0,0.0,0.0,0.0,0.0,0.0,0.0,0.0,0.0,0.0,0.0,0.0,0.0,0.0,0.0,0.0,0.0,0.0,0.0,0.0,0.0,0.0,0.0,0.0,0.0,0.0,0.0,0.0,0.0,0.0,0.0,0.0,0.0,0.0,0.0,0.0,0.0,0.0,0.0,0.0,0.0,0.2648,0.115,-0.0597,0.0,0.0,0.0,0.0,0.0,0.0,0.0,0.0,0.0,0.0,0.0,0.0,0.0,0.0,0.0,0.0,0.0,0.0,0.0,0.0,0.0,0.0,0.0,0.0,0.0,0.0,0.0,0.0,0.0,0.0,0.0,0.0,0.0,0.0,0.0,0.0,0.0,0.0,0.0,0.0,0.0,0.0,0.0,0.0,0.0,0.0,0.0,0.0,0.0,0.0,0.0,0.0,0.0,0.0,0.0,0.0,0.0,0.0,0.0,0.0,0.0,0.0,0.0,0.0,0.0,0.0,0.0,0.0,0.0,0.0,0.0,0.0,0.0,0.0,0.0,0.0,0.0,0.0,0.0,0.0,0.0,0.0,0.0,0.0,0.0,0.0,0.0,0.0,0.0,0.0,0.0,0.0,0.0,0.0,0.0,0.0,0.0,0.0,0.0,0.0,0.0,0.0,0.0,0.0,0.0,0.0,0.0,0.0,0.0,0.0,0.1791,0.1512,0.0451,0.0,-0.2744,0.0,0.0,0.0,0.0,0.0,0.0,0.0,0.0,0.0,0.0,0.0,0.0,0.0,0.0,0.0,0.0,0.0,0.0,0.0,0.0,0.0,0.0,0.0,0.0,0.0,0.0,0.0,0.0,0.0,0.0,0.0,0.0,0.0,0.0,0.0,0.0,0.0,0.0,0.0,0.0,0.0,0.0,0.0,0.0,0.0,0.0,0.0,0.0,0.0,0.0,0.0,0.0,0.0,0.0,0.0,0.0,0.0,0.0,0.0,0.0,0.0,0.0,0.0,0.0,0.0,0.0,0.0,0.0,0.0,0.0,0.0,0.0,0.0,0.0,0.0,0.0,0.0,0.0,0.0,0.0,0.0,0.0,0.0,0.0,0.0,0.0,0.0,0.0,0.0,0.0,0.0,0.0,0.0,0.0,0.0,0.0,0.0,0.0,0.0,0.0,0.0,0.0,0.0,0.0,0.0,0.0,0.0,0.0,0.0,0.0,0.0312,0.0269,-0.1884,-0.3444,0.0,0.0,0.0,0.0,0.0,0.0,0.0,0.0,0.0,0.0,0.0,0.0,0.0,0.0,0.0,0.0,0.0,0.0,0.0,0.0,0.0,0.0,0.0,0.0,0.0,0.0,0.0,0.0,0.0,0.0,0.0,0.0,0.0,0.0,0.0,0.0,0.0,0.0,0.0,0.0,0.0,0.0,0.0,0.0,0.0,0.0,0.0,0.0,0.0,0.0,0.0,0.0,0.0,0.0,0.0,0.0,0.0,0.0,0.0,0.0,0.0,0.0,0.0,0.0,0.0,0.0,0.0,0.0,0.0,0.0,0.0,0.0,0.0,0.0,0.0,0.0,0.0,0.0,0.0,0.0,0.0,0.0,0.0,0.0,0.0,0.0,0.0,0.0,0.0,0.0,0.0,0.0,0.0,0.0,0.0,0.0,0.0,0.0,0.0,0.0,0.0,0.0,0.0,0.0,0.0,0.0,0.0,0.0,0.0,0.0,-0.1859,-0.1773,-0.1861,-0.3862,-0.51,-0.5325,0.0,0.0,0.0,0.0,0.0,0.0,0.0,0.0,0.0,0.0,0.0,0.0,0.0,0.0,0.0,0.0,0.0,0.0,0.0,0.0,0.0,0.0,0.0,0.0,0.0,0.0,0.0,0.0,0.0,0.0,0.0,0.0,0.0,0.0,0.0,0.0,0.0,0.0,0.0,0.0,0.0,0.0,0.0,0.0,0.0,0.0,0.0,0.0,0.0,0.0,0.0,0.0,0.0,0.0,0.0,0.0,0.0,0.0,0.0,0.0,0.0,0.0,0.0,0.0,0.0,0.0,0.0,0.0,0.0,0.0,0.0,0.0,0.0,0.0,0.0,0.0,0.0,0.0,0.0,0.0,0.0,0.0,0.0,0.0,0.0,0.0,0.0,0.0,0.0,0.0,0.0,0.0,0.0,0.0,0.0,0.0,0.0,0.0,0.0,0.0,0.0,0.0,0.0,0.0,0.0,0.0,0.0,0.0,-0.4414,-0.4487,-0.4685,-0.499,-0.5144,-0.5357,0.0,0.0,0.0,0.0,0.0,0.0,0.0,0.0,0.0,0.0,0.0,0.0,0.0,0.0,0.0,0.0,0.0,0.0,0.0,0.0,0.0,0.0,0.0,0.0,0.0,0.0,0.0,0.0,0.0,0.0,0.0,0.0,0.0,0.0,0.0,0.0,0.0,0.0,0.0,0.0,0.0,0.0,0.0,0.0,0.0,0.0,0.0,0.0,0.0,0.0,0.0,0.0,0.0,0.0,0.0,0.0,0.0,0.0,0.0,0.0,0.0,0.0,0.0,0.0,0.0,0.0,0.0,0.0,0.0,0.0,0.0,0.0,0.0,0.0,0.0,0.0,0.0,0.0,0.0,0.0,0.0,0.0,0.0,0.0,0.0,0.0,0.0,0.0,0.0,0.0,0.0,0.0,0.0,0.0,0.0,0.0,0.0,0.0,0.0,0.0,0.0,0.0,0.0,0.0,0.0,0.0,0.0,0.0,0.0,-0.4199,-0.4403,-0.5098,-0.6236,-0.5998,-0.5646,0.0,0.0,0.0,0.0,0.0,0.0,0.0,0.0,0.0,0.0,0.0,0.0,0.0,0.0,0.0,0.0,0.0,0.0,0.0,0.0,0.0,0.0,0.0,0.0,0.0,0.0,0.0,0.0,0.0,0.0,0.0,0.0,0.0,0.0,0.0,0.0,0.0,0.0,0.0,0.0,0.0,0.0,0.0,0.0,0.0,0.0,0.0,0.0,0.0,0.0,0.0,0.0,0.0,0.0,0.0,0.0,0.0,0.0,0.0,0.0,0.0,0.0,0.0,0.0,0.0,0.0,0.0,0.0,0.0,0.0,0.0,0.0,0.0,0.0,0.0,0.0,0.0,0.0,0.0,0.0,0.0,0.0,0.0,0.0,0.0,0.0,0.0,0.0,0.0,0.0,0.0,0.0,0.0,0.0,0.0,0.0,0.0,0.0,0.0,0.0,0.0,0.0,0.0,0.0,0.0,0.0,0.0,0.0,0.0,-0.4484,0.0,-0.5522,-0.6773,-0.6103,-0.563,0.0,0.0,0.0,0.0,0.0,0.0,0.0,0.0,0.0,0.0,0.0,0.0,0.0,0.0,0.0,0.0,0.0,0.0,0.0,0.0,0.0,0.0,0.0,0.0,0.0,0.0,0.0,0.0,0.0,0.0,0.0,0.0,0.0,0.0,0.0,0.0,0.0,0.0,0.0,0.0,0.0,0.0,0.0,0.0,0.0,0.0,0.0,0.0,0.0,0.0,0.0,0.0,0.0,0.0,0.0,0.0,0.0,0.0,0.0,0.0,0.0,0.0,0.0,0.0,0.0,0.0,0.0,0.0,0.0,0.0,0.0,0.0,0.0,0.0,0.0,0.0,0.0,0.0,0.0,0.0,0.0,0.0,0.0,0.0,0.0,0.0,0.0,0.0,0.0,0.0,0.0,0.0,0.0,0.0,0.0,0.0,0.0,0.0,0.0,0.0,0.0,0.0,0.0,0.0,0.0,0.0,0.0,0.0,-0.4829,-0.5491,-0.5764,-0.622,-0.676,-0.5491,-0.5246,0.0,0.0,0.0,0.0,0.0,0.0,0.0,0.0,0.0,0.0,0.0,0.0,0.0,0.0,0.0,0.0,0.0,0.0,0.0,0.0,0.0,0.0,0.0,0.0,0.0,0.0,0.0,0.0,0.0,0.0,0.0,0.0,0.0,0.0,0.0,0.0,0.0,0.0,0.0,0.0,0.0,0.0,0.0,0.0,0.0,0.0,0.0,0.0,0.0,0.0,0.0,0.0,0.0,0.0,0.0,0.0,0.0,0.0,0.0,0.0,0.0,0.0,0.0,0.0,0.0,0.0,0.0,0.0,0.0,0.0,0.0,0.0,0.0,0.0,0.0,0.0,0.0,0.0,0.0,0.0,0.0,0.0,0.0,0.0,0.0,0.0,0.0,0.0,0.0,0.0,0.0,0.0,0.0,0.0,0.0,0.0,0.0,0.0,0.0,0.0,0.0,0.0,0.0,0.0,0.0,0.0,0.0,0.0,0.0,-0.6586,-0.6417,-0.7064,-0.8507,-0.6526,-0.5934,0.0,0.0,0.0,0.0,0.0,0.0,0.0,0.0,0.0,0.0,0.0,0.0,0.0,0.0,0.0,0.0,0.0,0.0,0.0,0.0,0.0,0.0,0.0,0.0,0.0,0.0,0.0,0.0,0.0,0.0,0.0,0.0,0.0,0.0,0.0,0.0,0.0,0.0,0.0,0.0,0.0,0.0,0.0,0.0,0.0,0.0,0.0,0.0,0.0,0.0,0.0,0.0,0.0,0.0,0.0,0.0,0.0,0.0,0.0,0.0,0.0,0.0,0.0,0.0,0.0,0.0,0.0,0.0,0.0,0.0,0.0,0.0,0.0,0.0,0.0,0.0,0.0,0.0,0.0,0.0,0.0,0.0,0.0,0.0,0.0,0.0,0.0,0.0,0.0,0.0,0.0,0.0,0.0,0.0,0.0,0.0,0.0,0.0,0.0,0.0,0.0,0.0,0.0,0.0,0.0,0.0,0.0,0.0,0.0,-0.7593,-0.7475,-0.7936,-0.9004,-0.7745,-0.7273,-0.7733,0.0,0.0,0.0,0.0,0.0,0.0,0.0,0.0,0.0,0.0,0.0,0.0,0.0,0.0,0.0,0.0,0.0,0.0,0.0,0.0,0.0,0.0,0.0,0.0,0.0,0.0,0.0,0.0,0.0,0.0,0.0,0.0,0.0,0.0,0.0,0.0,0.0,0.0,0.0,0.0,0.0,0.0,0.0,0.0,0.0,0.0,0.0,0.0,0.0,0.0,0.0,0.0,0.0,0.0,0.0,0.0,0.0,0.0,0.0,0.0,0.0,0.0,0.0,0.0,0.0,0.0,0.0,0.0,0.0,0.0,0.0,0.0,0.0,0.0,0.0,0.0,0.0,0.0,0.0,0.0,0.0,0.0,0.0,0.0,0.0,0.0,0.0,0.0,0.0,0.0,0.0,0.0,0.0,0.0,0.0,0.0,0.0,0.0,0.0,0.0,0.0,0.0,0.0,0.0,0.0,0.0,0.0,0.0,-0.8468,-0.8966,-0.9033,-0.8616,-0.9076,-0.9089,0.0,0.0,0.0,0.0,0.0,0.0,0.0,0.0,0.0,0.0,0.0,0.0,0.0,0.0,0.0,0.0,0.0,0.0,0.0,0.0,0.0,0.0,0.0,0.0,0.0,0.0,0.0,0.0,0.0,0.0,0.0,0.0,0.0,0.0,0.0,0.0,0.0,0.0,0.0,0.0,0.0,0.0,0.0,0.0,0.0,0.0,0.0,0.0,0.0,0.0,0.0,0.0,0.0,0.0,0.0,0.0,0.0,0.0,0.0,0.0,0.0,0.0,0.0,0.0,0.0,0.0,0.0,0.0,0.0,0.0,0.0,0.0,0.0,0.0,0.0,0.0,0.0,0.0,0.0,0.0,0.0,0.0,0.0,0.0,0.0,0.0,0.0,0.0,0.0,0.0,0.0,0.0,0.0,0.0,0.0,0.0,0.0,0.0,0.0,0.0,0.0,0.0,0.0,0.0,0.0,0.0,0.0,0.0,0.0,-0.9274,-1.1075,-1.1831,-1.1273,-1.0557,-1.0205,0.0,0.0,0.0,0.0,0.0,0.0,0.0,0.0,0.0,0.0,0.0,0.0,0.0,0.0,0.0,0.0,0.0,0.0,0.0,0.0,0.0,0.0,0.0,0.0,0.0,0.0,0.0,0.0,0.0,0.0,0.0,0.0,0.0,0.0,0.0,0.0,0.0,0.0,0.0,0.0,0.0,0.0,0.0,0.0,0.0,0.0,0.0,0.0,0.0,0.0,0.0,0.0,0.0,0.0,0.0,0.0,0.0,0.0,0.0,0.0,0.0,0.0,0.0,0.0,0.0,0.0,0.0,0.0,0.0,0.0,0.0,0.0,0.0,0.0,0.0,0.0,0.0,0.0,0.0,0.0,0.0,0.0,0.0,0.0,0.0,0.0,0.0,0.0,0.0,0.0,0.0,0.0,0.0,0.0,0.0,0.0,0.0,0.0,0.0,0.0,0.0,0.0,0.0,0.0,0.0,0.0,0.0,0.0,-0.9512,-0.9535,-1.233,-1.3574,-1.299,-1.2585,-1.2113,0.0,0.0,0.0,0.0,0.0,0.0,0.0,0.0,0.0,0.0,0.0,0.0,0.0,0.0,0.0,0.0,0.0,0.0,0.0,0.0,0.0,0.0,0.0,0.0,0.0,0.0,0.0,0.0,0.0,0.0,0.0,0.0,0.0,0.0,0.0,0.0,0.0,0.0,0.0,0.0,0.0,0.0,0.0,0.0,0.0,0.0,0.0,0.0,0.0,0.0,0.0,0.0,0.0,0.0,0.0,0.0,0.0,0.0,0.0,0.0,0.0,0.0,0.0,0.0,0.0,0.0,0.0,0.0,0.0,0.0,0.0,0.0,0.0,0.0,0.0,0.0,0.0,0.0,0.0,0.0,0.0,0.0,0.0,0.0,0.0,0.0,0.0,0.0,0.0,0.0,0.0,0.0,0.0,0.0,0.0,0.0,0.0,0.0,0.0,0.0,0.0,0.0,0.0,0.0,0.0,0.0,0.0,0.0,-0.9758,-0.9606,-1.2934,-1.4474,-1.3937,-1.4542,-1.4199,0.0,0.0,0.0,0.0,0.0,0.0,0.0,0.0,0.0,0.0,0.0,0.0,0.0,0.0,0.0,0.0,0.0,0.0,0.0,0.0,0.0,0.0,0.0,0.0,0.0,0.0,0.0,0.0,0.0,0.0,0.0,0.0,0.0,0.0,0.0,0.0,0.0,0.0,0.0,0.0,0.0,0.0,0.0,0.0,0.0,0.0,0.0,0.0,0.0,0.0,0.0,0.0,0.0,0.0,0.0,0.0,0.0,0.0,0.0,0.0,0.0,0.0,0.0,0.0,0.0,0.0,0.0,0.0,0.0,0.0,0.0,0.0,0.0,0.0,0.0,0.0,0.0,0.0,0.0,0.0,0.0,0.0,0.0,0.0,0.0,0.0,0.0,0.0,0.0,0.0,0.0,0.0,0.0,0.0,0.0,0.0,0.0,0.0,0.0,0.0,0.0,0.0,0.0,0.0,0.0,0.0,0.0,0.0,-0.9499,-1.0031,-1.3078,-1.4463,-1.3948,-1.4542,-1.4559,0.0,0.0,0.0,0.0,0.0,0.0,0.0,0.0,0.0,0.0,0.0,0.0,0.0,0.0,0.0,0.0,0.0,0.0,0.0,0.0,0.0,0.0,0.0,0.0,0.0,0.0,0.0,0.0,0.0,0.0,0.0,0.0,0.0,0.0,0.0,0.0,0.0,0.0,0.0,0.0,0.0,0.0,0.0,0.0,0.0,0.0,0.0,0.0,-0.4701,0.0,0.0,0.0,0.0,0.0,0.0,0.0,0.0,0.0,0.0,0.0,0.0,0.0,0.0,0.0,0.0,0.0,0.0,0.0,0.0,0.0,0.0,0.0,0.0,0.0,0.0,0.0,0.0,0.0,0.0,0.0,0.0,0.0,0.0,0.0,0.0,0.0,0.0,0.0,0.0,0.0,0.0,0.0,0.0,0.0,0.0,0.0,0.0,0.0,0.0,0.0,0.0,0.0,0.0,0.0,0.0,0.0,0.0,0.0,-0.9387,-1.0302,-1.2869,-1.4233,-1.4306,-1.4703,-1.4899,0.0,0.0,0.0,0.0,0.0,0.0,0.0,0.0,0.0,0.0,0.0,0.0,0.0,0.0,0.0,0.0,0.0,0.0,0.0,0.0,0.0,0.0,0.0,0.0,0.0,0.0,0.0,0.0,0.0,0.0,0.0,0.0,0.0,0.0,0.0,0.0,0.0,0.0,0.0,0.0,0.0,0.0,0.0,0.0,0.0,0.0,0.0,0.0,0.0,0.0,0.0,0.0,0.0,0.0,0.0,0.0,0.0,0.0,0.0,0.0,0.0,0.0,0.0,0.0,0.0,0.0,0.0,0.0,0.0,0.0,0.0,0.0,0.0,0.0,0.0,0.0,0.0,0.0,0.0,0.0,0.0,0.0,0.0,0.0,0.0,0.0,0.0,0.0,0.0,0.0,0.0,0.0,0.0,0.0,0.0,0.0,0.0,0.0,0.0,0.0,0.0,0.0,0.0,0.0,0.0,0.0,0.0,-0.8098,-0.9315,-1.0277,-1.2282,-1.3705,-1.4389,-1.4452,-1.4823,-1.5492,0.0,0.0,0.0,0.0,0.0,0.0,0.0,0.0,0.0,0.0,0.0,0.0,0.0,0.0,0.0,0.0,0.0,0.0,0.0,0.0,0.0,0.0,0.0,0.0,0.0,0.0,0.0,0.0,0.0,0.0,0.0,0.0,0.0,0.0,0.0,0.0,0.0,0.0,-0.3978,-0.2523,0.0,0.0,0.0,0.0,0.0,0.0,0.0,0.0,-0.6613,0.0,0.0,0.0,0.0,0.0,0.0,0.0,0.0,0.0,0.0,0.0,0.0,0.0,0.0,0.0,0.0,0.0,0.0,0.0,0.0,0.0,0.0,0.0,0.0,0.0,0.0,0.0,0.0,0.0,0.0,0.0,0.0,0.0,0.0,0.0,0.0,0.0,0.0,0.0,0.0,0.0,0.0,0.0,0.0,0.0,0.0,0.0,0.0,0.0,0.0,0.0,0.0,0.0,0.0,0.0,0.0,-0.6324,-0.7802,-0.886,-0.9565,-1.1181,-1.2396,-1.308,-1.2803,-1.3345,-1.4698,0.0,0.0,0.0,0.0,0.0,0.0,0.0,0.0,0.0,0.0,0.0,0.0,0.0,0.0,0.0,0.0,0.0,0.0,0.0,0.0,0.0,0.0,0.0,0.0,0.0,0.0,0.0,0.0,0.0,0.0,0.0,0.0,0.0,0.0,0.0,0.0,0.0,0.0,0.0,-0.1721,-0.1208,0.0,0.0,0.0,0.0,0.0,0.0,0.0,0.0,-0.87,0.0,0.0,0.0,0.0,0.0,0.0,0.0,0.0,0.0,0.0,0.0,0.0,0.0,0.0,0.0,0.0,0.0,0.0,0.0,0.0,0.0,0.0,0.0,0.0,0.0,0.0,0.0,0.0,0.0,0.0,0.0,0.0,0.0,0.0,0.0,0.0,0.0,0.0,0.0,0.0,0.0,0.0,0.0,0.0,0.0,0.0,0.0,0.0,0.0,0.0,0.0,0.0,0.0,0.0,0.0,-0.6106,-0.7311,-0.8329,-0.9069,-1.0431,-1.1504,-1.2192,-1.2218,-1.2794,0.0,0.0,0.0,0.0,0.0,0.0,0.0,0.0,0.0,0.0,0.0,0.0,0.0,0.0,0.0,0.0,0.0,0.0,0.0,0.0,0.0,0.0,0.0,0.0,0.0,0.0,0.0,0.0,0.0,0.0,0.0,0.0,0.0,0.0,0.0,0.0,0.0,0.0,0.0,0.0,-0.2177,-0.242,-0.3825,0.0,0.0,0.0,0.0,0.0,0.0,-0.9041,-0.9876,0.0,0.0,0.0,0.0,0.0,0.0,0.0,0.0,0.0,0.0,0.0,0.0,0.0,0.0,0.0,0.0,0.0,0.0,0.0,0.0,0.0,0.0,0.0,0.0,0.0,0.0,0.0,0.0,0.0,0.0,0.0,0.0,0.0,0.0,0.0,0.0,0.0,0.0,0.0,0.0,0.0,0.0,0.0,0.0,0.0,0.0,0.0,0.0,0.0,0.0,0.0,0.0,0.0,0.0,0.0,-0.581,-0.676,-0.7653,-0.8495,-0.9548,-1.046,-1.1306,-1.1433,-1.2034,0.0,0.0,0.0,0.0,0.0,0.0,0.0,0.0,0.0,0.0,0.0,0.0,0.0,0.0,0.0,0.0,0.0,0.0,0.0,0.0,0.0,0.0,0.0,0.0,0.0,0.0,0.0,0.0,0.0,0.0,0.0,0.0,0.0,0.0,0.0,0.0,0.0,0.0,0.0,0.0,0.0,-0.3605,-0.3625,-0.4727,0.0,0.0,0.0,0.0,-0.8464,-0.9386,0.0,0.0,0.0,0.0,0.0,0.0,0.0,0.0,0.0,0.0,0.0,0.0,0.0,0.0,0.0,0.0,0.0,0.0,0.0,0.0,0.0,0.0,0.0,0.0,0.0,0.0,0.0,0.0,0.0,0.0,0.0,0.0,0.0,0.0,0.0,0.0,0.0,0.0,0.0,0.0,0.0,0.0,0.0,0.0,0.0,0.0,0.0,0.0,0.0,0.0,0.0,0.0,0.0,0.0,0.0,0.0,-0.532,-0.6105,-0.6927,-0.7753,-0.7978,-0.8652,-0.9946,-0.9404,-0.9739,0.0,0.0,0.0,0.0,0.0,0.0,0.0,0.0,0.0,0.0,0.0,0.0,0.0,0.0,0.0,0.0,0.0,0.0,0.0,0.0,0.0,0.0,0.0,0.0,0.0,0.0,0.0,0.0,0.0,0.0,0.0,0.0,0.0,0.0,0.0,0.0,0.0,0.0,0.0,0.0,0.0,-0.3614,-0.3596,-0.5189,-0.6162,0.0,0.0,-0.7697,-0.7938,-0.8688,0.0,0.0,0.0,0.0,0.0,0.0,0.0,0.0,0.0,0.0,0.0,0.0,0.0,0.0,0.0,0.0,0.0,0.0,0.0,0.0,0.0,0.0,0.0,0.0,0.0,0.0,0.0,0.0,0.0,0.0,0.0,0.0,0.0,0.0,0.0,0.0,0.0,0.0,0.0,0.0,0.0,0.0,0.0,0.0,0.0,0.0,0.0,0.0,0.0,0.0,0.0,0.0,0.0,0.0,0.0,-0.4268,-0.4835,-0.5733,-0.6283,-0.645,-0.7283,-0.7984,-0.8606,-0.8644,-0.9189,0.0,0.0,0.0,0.0,0.0,0.0,0.0,0.0,0.0,0.0,0.0,0.0,0.0,0.0,0.0,0.0,0.0,0.0,0.0,0.0,0.0,0.0,0.0,0.0,0.0,0.0,0.0,0.0,0.0,0.0,0.0,0.0,0.0,0.0,0.0,0.0,0.0,0.0,0.0,0.0,0.0,0.0,-0.3852,-0.5491,0.0,0.0,0.0,-0.8136,-0.822,0.0,0.0,0.0,0.0,0.0,0.0,0.0,0.0,0.0,0.0,0.0,0.0,0.0,0.0,0.0,0.0,0.0,0.0,0.0,0.0,0.0,0.0,0.0,0.0,0.0,0.0,0.0,0.0,0.0,0.0,0.0,0.0,0.0,0.0,0.0,0.0,0.0,0.0,0.0,0.0,0.0,0.0,0.0,0.0,0.0,0.0,0.0,0.0,0.0,0.0,0.0,0.0,0.0,0.0,0.0,0.0,0.0,-0.4522,-0.5144,-0.5581,-0.5797,-0.6848,-0.7616,-0.7984,-0.8315,0.0,0.0,0.0,0.0,0.0,0.0,0.0,0.0,0.0,0.0,0.0,0.0,0.0,0.0,0.0,0.0,0.0,0.0,0.0,0.0,0.0,0.0,0.0,0.0,0.0,0.0,0.0,-0.4918,0.0,0.0,0.0,0.0,0.0,0.0,0.0,0.0,0.0,0.0,0.0,0.0,0.0,0.0,-0.5691,-0.4742,-0.6095,-0.683,0.0,0.0,-0.8414,-0.8283,-0.8549,-0.9085,0.0,0.0,0.0,0.0,0.0,0.0,0.0,0.0,0.0,0.0,0.0,0.0,0.0,0.0,0.0,0.0,0.0,0.0,0.0,0.0,0.0,0.0,0.0,0.0,0.0,0.0,0.0,0.0,0.0,0.0,0.0,0.0,0.0,0.0,0.0,0.0,0.0,0.0,0.0,0.0,0.0,0.0,0.0,0.0,0.0,0.0,0.0,0.0,0.0,0.0,0.0,0.0,0.0,0.0,0.0,-0.4457,-0.4278,-0.4927,-0.646,-0.6588,-0.7348,-0.8633,-0.8237,-0.8252,0.0,0.0,0.0,0.0,0.0,0.0,0.0,0.0,0.0,0.0,0.0,0.0,0.0,0.0,0.0,0.0,0.0,0.0,0.0,0.0,0.0,0.0,0.0,0.0,0.0,0.0,0.0,0.0,0.0,0.0,0.0,0.0,0.0,0.0,0.0,0.0,0.0,0.0,0.0,0.0,0.0,-0.6606,-0.6866,-0.7211,-0.7356,0.0,0.0,-0.8192,-0.7652,-0.7801,-0.8186,-0.8911,0.0,0.0,0.0,0.0,0.0,0.0,0.0,0.0,0.0,0.0,0.0,0.0,0.0,0.0,0.0,0.0,0.0,0.0,0.0,0.0,0.0,0.0,0.0,0.0,0.0,0.0,0.0,0.0,0.0,0.0,0.0,0.0,0.0,0.0,0.0,0.0,0.0,0.0,0.0,0.0,0.0,0.0,0.0,0.0,0.0,0.0,0.0,0.0,0.0,0.0,0.0,0.0,0.0,-0.4418,-0.5109,-0.4887,-0.5188,-0.591,-0.6799,-0.7343,-0.745,-0.7728,-0.8123,0.0,0.0,0.0,0.0,0.0,0.0,0.0,0.0,0.0,0.0,0.0,0.0,0.0,0.0,0.0,0.0,0.0,0.0,0.0,0.0,0.0,0.0,0.0,0.0,0.0,0.0,0.0,0.0,-0.6991,-0.7091,-0.7149,0.0,0.0,0.0,0.0,0.0,0.0,0.0,0.0,0.0,0.0,-0.7662,-0.6791,-0.7443,0.0,0.0,-0.7973,-0.8437,-0.7842,-0.8009,-0.8295,-0.8532,-0.8706,0.0,0.0,0.0,0.0,0.0,0.0,0.0,0.0,0.0,0.0,0.0,0.0,0.0,0.0,0.0,0.0,0.0,0.0,0.0,0.0,0.0,0.0,0.0,0.0,0.0,0.0,0.0,0.0,0.0,0.0,0.0,0.0,0.0,0.0,0.0,0.0,0.0,0.0,0.0,0.0,0.0,0.0,0.0,0.0,0.0,0.0,0.0,0.0,0.0,0.0,0.0,0.0,-0.5051,-0.5483,-0.5575,-0.5866,-0.6284,-0.7209,-0.7597,-0.7383,-0.781,-0.8163,0.0,0.0,0.0,0.0,0.0,0.0,0.0,0.0,0.0,0.0,0.0,0.0,0.0,0.0,0.0,0.0,0.0,0.0,0.0,0.0,0.0,0.0,0.0,0.0,0.0,0.0,0.0,0.0,-0.875,-0.8784,-0.8369,0.0,0.0,0.0,0.0,0.0,0.0,0.0,0.0,0.0,0.0,-0.8416,-0.7304,-0.7934,-0.8216,-0.7464,-0.8184,-0.858,-0.7896,-0.8141,-0.8377,-0.8377,0.0,0.0,0.0,0.0,0.0,0.0,0.0,0.0,0.0,0.0,0.0,0.0,0.0,0.0,0.0,0.0,0.0,0.0,0.0,0.0,0.0,0.0,0.0,0.0,0.0,0.0,0.0,0.0,0.0,0.0,-0.472,0.0,0.0,0.0,0.0,0.0,0.0,0.0,0.0,0.0,0.0,0.0,0.0,0.0,0.0,0.0,0.0,0.0,0.0,0.0,0.0,0.0,0.0,-0.6053,-0.5542,-0.6115,-0.695,-0.8076,-0.7858,-0.8184,-0.9033,-0.8671,-0.837,-0.8377,0.0,0.0,0.0,0.0,0.0,0.0,0.0,0.0,0.0,0.0,0.0,0.0,0.0,0.0,0.0,0.0,0.0,0.0,0.0,0.0,0.0,0.0,0.0,0.0,0.0,0.0,-1.0661,-1.0548,-1.0358,0.0,0.0,0.0,0.0,0.0,0.0,0.0,0.0,0.0,0.0,-0.8804,-0.8798,-0.8738,-0.8738,-0.8555,-0.7956,-0.8402,-0.8485,-0.7688,-0.8023,-0.8377,0.0,0.0,0.0,0.0,0.0,0.0,0.0,0.0,0.0,0.0,0.0,0.0,0.0,0.0,0.0,0.0,0.0,0.0,0.0,0.0,0.0,0.0,0.0,0.0,0.0,0.0,0.0,-0.9212,-0.9118,0.0,0.0,0.0,0.0,0.0,0.0,0.0,0.0,0.0,0.0,0.0,-0.8914,-1.003,0.0,0.0,0.0,0.0,0.0,0.0,0.0,0.0,0.0,0.0,0.0,0.0,-0.7078,-0.751,-0.7589,-0.7906,-0.8461,-0.8858,-0.8883,-0.8559,-0.8645,-0.8577,-0.8383,0.0,0.0,0.0,0.0,0.0,0.0,0.0,0.0,0.0,0.0,0.0,0.0,0.0,0.0,0.0,0.0,0.0,0.0,0.0,0.0,0.0,0.0,0.0,0.0,0.0,-1.1974,0.0,0.0,0.0,0.0,0.0,0.0,0.0,0.0,0.0,0.0,0.0,-0.8804,-0.8804,-0.8804,-0.8804,-0.8804,-0.8771,-0.8758,0.0,0.0,0.0,0.0,0.0,0.0,0.0,0.0,0.0,0.0,0.0,0.0,0.0,0.0,-1.0089,-1.0829,-1.1099,-1.1099,-1.0789,0.0,0.0,0.0,0.0,0.0,0.0,0.0,0.0,0.0,0.0,0.0,0.0,0.0,0.0,-1.1674,0.0,-1.2046,0.0,0.0,0.0,0.0,0.0,0.0,0.0,0.0,-1.0927,-1.1875,-1.252,-1.2402,-1.2365,0.0,-1.1668,-1.0725,0.0,0.0,0.0,0.0,0.0,0.0,0.0,0.0,-0.8023,-0.8467,-0.863,-0.8831,-0.9151,-0.959,-0.9564,-0.8901,-0.8841,-0.8717,-0.853,-0.8524,-0.8697,0.0,0.0,0.0,0.0,0.0,0.0,0.0,0.0,0.0,0.0,0.0,0.0,0.0,0.0,0.0,0.0,0.0,0.0,0.0,0.0,0.0,0.0,0.0,-1.3138,0.0,0.0,0.0,0.0,0.0,0.0,0.0,0.0,0.0,-1.0128,-0.9709,-0.9413,-0.9211,-0.9166,-0.9166,-0.9278,0.0,0.0,0.0,0.0,0.0,0.0,0.0,-0.9212,-0.9125,-0.9426,-0.9693,-0.9699,-0.988,-1.0145,-1.032,0.0,0.0,-1.0588,-1.0785,-1.0808,-1.0799,-1.0301,-1.0287,-1.1447,-1.1495,-1.1502,0.0,0.0,0.0,0.0,0.0,0.0,0.0,0.0,-1.323,-1.4893,0.0,-1.5772,0.0,0.0,0.0,0.0,0.0,-1.0108,0.0,0.0,-1.3041,-1.4055,-1.5222,-1.4939,-1.4947,-1.5248,-1.4008,-1.3286,-1.2943,-1.0249,0.0,0.0,0.0,0.0,0.0,0.0,-0.8944,-0.8369,-0.9253,-0.9873,-1.0154,-1.0167,-1.0154,-1.0046,-0.9279,-0.8824,-0.8818,-0.8811,-0.8811,-0.8778,-0.7852,0.0,0.0,0.0,0.0,0.0,0.0,0.0,0.0,0.0,0.0,0.0,0.0,0.0,0.0,0.0,0.0,0.0,0.0,0.0,0.0,-1.2849,0.0,0.0,0.0,0.0,0.0,0.0,0.0,0.0,0.0,0.0,-0.982,-1.0272,-1.0592,-0.9977,0.0,0.0,0.0,0.0,-0.8829,-0.8905,-0.886,-0.8764,-0.8515,-0.8915,-0.9372,-0.9626,0.0,0.0,-1.0551,-1.0345,-1.0347,-1.1014,-1.0846,-1.0481,-1.0187,-1.0456,-1.0646,-1.0711,-1.0898,-1.1139,-1.1451,-1.139,-1.107,-2.2049,0.0,0.0,0.0,0.0,-1.7466,-1.7905,-1.8334,-1.8617,-1.887,-1.9138,-1.8425,0.0,0.0,0.0,0.0,0.0,0.0,-1.299,-1.3816,-1.5135,-1.5727,-1.5825,-1.6193,-1.6167,-1.5736,-1.4419,-1.3643,-1.3294,-1.1542,-1.0586,-1.0458,0.0,0.0,0.0,0.0,-1.0219,-1.0223,-1.0511,-1.0762,-1.1049,-1.1049,-1.0855,-1.0441,-0.9573,-0.9064,-0.9064,-0.8918,-0.8684,-0.8386,-0.7502,0.0,0.0,0.0,0.0,0.0,0.0,0.0,0.0,0.0,0.0,0.0,0.0,0.0,0.0,0.0,0.0,0.0,0.0,0.0,-1.3911,-1.3946,-1.4145,0.0,0.0,0.0,0.0,0.0,0.0,0.0,0.0,0.0,-1.1864,-1.1459,-1.1461,0.0,0.0,-1.0761,-1.1448,-1.0004,-0.9259,-1.0539,-0.9983,0.0,-1.0115,-0.9993,-0.982,-0.9706,-1.0362,-1.1148,-1.2036,-1.1803,-1.1545,-1.1558,-1.1441,-1.1467,-1.1645,-1.1052,-1.0892,-1.1421,-1.1819,-1.2328,-1.3247,-1.3494,-1.3427,-2.4319,-2.2179,-2.0575,-1.9876,-1.9849,-2.0098,-2.0776,-2.1759,-2.1696,-2.2051,-2.2567,-2.1803,-2.0947,-2.007,-1.9208,0.0,0.0,0.0,-1.6462,-1.6807,-1.7926,-1.8506,-1.8605,-1.8841,-1.8585,-1.7769,-1.6382,-1.5273,-1.4494,-1.3133,-1.2418,-1.2265,0.0,0.0,-1.1149,-1.0875,-1.0935,-1.1309,-1.1229,-1.1309,-1.159,-1.1376,-1.1035,-1.0624,-0.9813,-0.9359,-0.9183,-0.8958,-0.8671,-0.8452,-0.7706,-0.7136,0.0,0.0,0.0,0.0,0.0,0.0,0.0,0.0,0.0,0.0,0.0,-1.1102,0.0,0.0,0.0,0.0,-1.3113,-1.3642,-1.3796,-1.3965,0.0,0.0,0.0,0.0,0.0,0.0,0.0,-1.469,-1.484,-1.4802,-1.406,-1.328,-1.2859,-1.2898,-1.2215,-1.1956,-1.2622,0.0,-1.0201,-1.1939,-1.2036,-1.1874,-1.1613,-1.1284,-1.113,-1.1203,-1.1715,-1.2321,-1.2968,-1.2638,-1.2193,-1.2195,-1.2188,-1.2453,-1.3096,-1.2621,-1.2297,-1.2938,-1.3318,-1.3744,-1.4511,-1.483,-1.4805,-2.5599,-2.4804,-2.3011,-2.1607,-2.0621,-2.0917,-2.1887,-2.3232,-2.3232,-2.4438,-2.6346,-2.5357,-2.4777,-2.4466,-2.2037,0.0,-2.1225,-2.0824,-2.0677,-2.084,-2.1123,-2.1738,-2.2432,-2.209,-2.1493,-2.0557,-1.9092,-1.7642,-1.6111,-1.4767,-1.4008,-1.3681,-1.2325,-1.1603,-1.1516,-1.1269,-1.1403,-1.1924,-1.1697,-1.169,-1.1995,-1.1343,-1.0889,-1.0665,-1.0,-0.9539,-0.919,-0.8958,-0.8752,-0.8705,-0.816,-0.7835,-0.7773,0.0,0.0,0.0,0.0,0.0,0.0,0.0,0.0,0.0,0.0,0.0,0.0,0.0,0.0,0.0,-1.3161,0.0,-1.2448,-1.3487,0.0,0.0,0.0,-1.5947,-1.5508,-1.5889,-1.6152,-1.6184,0.0,0.0,-1.6125,-1.54,-1.4503,-1.3497,-1.3259,-1.3359,-1.3772,-1.2236,-1.1623,-1.3119,-1.4475,-1.4676,-1.2988,-1.2589,-1.2728,-1.3318,-1.3584,-1.3564,-1.3664,-1.3189,-1.2747,-1.3022,-1.3103,-1.347,-1.4427,-1.4478,-1.4653,-1.4874,-1.5101,-1.532,-1.552,-1.5545,-1.5387,-2.6447,-2.4836,-2.4307,-2.3568,-2.2604,-2.2787,-2.346,-2.4408,-2.5257,-2.5695,-2.5841,-2.6008,-2.582,-2.5294,-2.3966,-2.3664,-2.4001,-2.2853,-2.2491,-2.2801,-2.2396,-2.2148,-2.2051,-2.2256,-2.1617,-2.018,-1.8965,-1.777,-1.6476,-1.5388,-1.4609,-1.4295,-1.3734,-1.3113,-1.2452,-1.2432,-1.2466,-1.2614,-1.2699,-1.2705,-1.26,-1.1744,-1.1182,-1.0895,-1.01,-0.9546,-0.919,-0.8958,-0.854,-0.799,-0.783,-0.7486,-0.6937,-0.7727,0.0,0.0,0.0,0.0,0.0,0.0,0.0,0.0,0.0,-1.3212,-1.379,0.0,-1.4346,0.0,-1.3356,-1.3171,-1.3665,-1.4298,0.0,0.0,-1.5986,-1.6396,-1.5967,-1.6602,-1.6943,-1.6611,-1.6484,-1.6455,-1.6562,-1.6094,-1.5663,-1.5419,-1.4467,-1.4148,-1.483,-1.4044,-1.3598,-1.4353,-1.5012,-1.5001,-1.4019,-1.3297,-1.3236,-1.3951,-1.4356,-1.4612,-1.4927,-1.4824,-1.4694,-1.4775,-1.4818,-1.4959,-1.5212,-1.5195,-1.5707,-1.684,-1.6702,-1.6462,-1.7148,-1.7295,-1.7285,-2.6557,-2.4787,-2.4296,-2.3754,-2.3213,-2.3867,-2.4675,-2.5643,-2.6761,-2.6996,-2.6764,-2.7335,-2.7519,-2.7444,-2.667,-2.6324,-2.6308,-2.5049,-2.4358,-2.4042,-2.3168,-2.2666,-2.2461,-2.2676,-2.168,-1.9765,-1.9159,-1.8006,-1.6323,-1.5613,-1.5204,-1.4917,-1.475,-1.4355,-1.3817,-1.3213,-1.3146,-1.3534,-1.3447,-1.3193,-1.2822,-1.2011,-1.155,-1.1363,-1.0281,-0.9673,-0.9568,-0.9098,-0.8645,-0.8384,-0.839,-0.8166,-0.779,-0.877,-0.9365,0.0,0.0,0.0,0.0,0.0,0.0,0.0,0.0,0.0,0.0,0.0,-1.3552,-1.3081,-1.2563,-1.2405,-1.2804,-1.3696,-1.4355,-1.4581,-1.5494,-1.6113,-1.6125,-1.6504,-1.6826,-1.6904,-1.6807,-1.6875,-1.7227,-1.6748,-1.6299,-1.6233,-1.5998,-1.5867,-1.5783,-1.5182,-1.4985,-1.5873,-1.6229,-1.6128,-1.5323,-1.456,-1.4276,-1.4861,-1.5055,-1.544,-1.6373,-1.6233,-1.6031,-1.6103,-1.5955,-1.5852,-1.5963,-1.5991,-1.6345,-1.7225,-1.7302,-1.7224,-1.7823,-1.8008,-1.8008,-2.6151,-2.4636,-2.364,-2.3184,-2.3222,-2.4125,-2.5136,-2.6152,-2.7197,-2.7844,-2.814,-2.8756,-2.9315,-2.9754,-2.9099,-2.8562,-2.8004,-2.6883,-2.5714,-2.4702,-2.3637,-2.3144,-2.3144,-2.3144,-2.1952,-1.9753,-1.977,-1.848,-1.6285,-1.6103,-1.5879,-1.5735,-1.551,-1.5284,-1.5037,-1.4142,-1.3953,-1.4496,-1.3975,-1.3427,-1.295,-1.2285,-1.1911,-1.1717,-1.0441,-0.98,-0.992,-0.9212,-0.8925,-0.911,-0.9233,-0.9288,-0.9288,-1.0057,-1.067,0.0,-1.1382,0.0,0.0,0.0,0.0,0.0,0.0,0.0,0.0,-1.3135,-1.233,-1.1864,-1.1533,-1.1316,-1.1284,-1.2839,-1.3776,-1.3798,-1.4904,-1.5801,-1.6113,-1.6302,-1.6543,-1.7178,-1.6977,-1.7197,-1.7842,-1.737,-1.6815,-1.6612,-1.7379,-1.7814,-1.7184,-1.6348,-1.6146,-1.7457,-1.7578,-1.7202,-1.6641,-1.5968,-1.5645,-1.595,-1.5771,-1.6029,-1.7264,-1.7091,-1.6745,-1.6799,-1.6498,-1.6348,-1.667,-1.6665,-1.6831,-1.7412,-1.748,-1.7482,-1.7891,-1.793,-1.7939,-2.544,-2.4009,-2.3751,-2.3457,-2.3144,-2.3299,-2.356,-2.38,-2.4967,-2.6438,-2.8164,-2.9176,-2.9691,-2.9702,-2.8748,-2.816,-2.8004,-2.6036,-2.5041,-2.4787,-2.3637,-2.3144,-2.3144,-2.3144,-2.2306,-2.1025,-2.0935,-2.0215,-1.8756,-1.777,-1.7289,-1.7223,-1.6061,-1.5484,-1.5618,0.0,0.0,0.0,-1.4175,-1.3834,-1.3467,-1.2886,-1.2124,-1.1189,-1.0434,0.0,-0.9092,-0.8898,-0.8831,-0.8884,-0.9401,0.0,0.0,0.0,0.0,0.0,0.0,0.0,0.0,0.0,0.0,0.0,-1.4495,-1.4141,-1.4145,-1.3356,-1.2683,-1.2195,-1.1687,-1.1689,-1.2365,-1.3969,-1.4863,-1.4585,-1.6012,-1.6914,-1.667,-1.7207,-1.7705,-1.7812,-1.7793,-1.7812,-1.7988,-1.8112,-1.7933,-1.7279,-1.815,-1.9186,-1.9749,-1.827,-1.7318,-1.7579,-1.7722,-1.7589,-1.7413,-1.6765,-1.6353,-1.6352,-1.6178,-1.6004,-1.614,-1.668,-1.6607,-1.6061,-1.6019,-1.6384,-1.6655,-1.6665,-1.6982,-1.7734,-1.7617,-1.751,-1.791,-1.7744,-1.7598,-2.5564,0.0,-2.4092,-2.3857,0.0,-2.3457,-2.334,-2.3222,-2.4296,-2.5703,-2.7371,-2.8438,-2.8949,-2.8937,-2.8937,-2.8937,-2.8846,-2.7197,-2.6108,-2.5546,-2.4457,-2.3627,-2.3144,-2.3144,-2.2492,-2.1293,-2.1293,-2.0657,-1.9488,-1.8864,-1.8596,-1.8588,-1.7773,-1.7497,-1.7639,-1.7629,-1.7125,-1.6204,-1.5883,-1.5554,-1.5203,-1.419,-1.3191,-1.2401,0.0,0.0,0.0,0.0,0.0,0.0,0.0,0.0,0.0,0.0,0.0,-1.2538,-1.3167,-1.3908,-1.4725,-1.46,-1.4877,-1.5644,-1.4744,-1.3885,-1.3265,-1.2499,-1.1955,-1.1829,-1.1621,-1.1668,-1.2044,-1.3227,-1.4147,-1.444,-1.5596,-1.6485,-1.696,-1.7432,-1.7783,-1.8037,-1.8395,-1.8654,-1.8844,-1.9306,-1.9403,-1.8955,-1.9817,-2.089,-2.1394,-1.9356,-1.7855,-1.8499,-1.8582,-1.8449,-1.8139,-1.7809,-1.7445,-1.7427,-1.677,-1.6547,-1.7061,-1.7332,-1.7262,-1.6436,-1.6558,-1.6893,-1.6977,-1.6967,-1.7093,-1.7559,-1.7701,-1.7899,-1.8439,-1.8158,-1.7744,-2.5979,-2.4551,-2.4609,-2.4355,-2.3896,-2.3828,-2.3545,-2.3222,0.0,0.0,0.0,-2.7371,-2.7936,-2.8176,-2.887,-2.9287,-2.9443,-2.8359,-2.7197,-2.6141,-2.521,-2.4211,-2.3144,-2.3144,-2.2589,-2.1658,-2.1578,-2.1114,-2.0133,-1.9943,-1.9852,-1.9761,-1.9579,-1.9588,-1.972,-1.91,-1.8871,-1.9059,-1.7969,-1.7251,-1.6951,-1.5549,-1.4633,-1.4178,-1.2254,-1.1199,-1.0968,-1.0485,-1.0646,-1.1401,-1.1222,-1.1598,-1.2636,-1.3052,-1.3341,-1.3589,-1.416,-1.4808,-1.5558,-1.528,-1.5294,-1.593,-1.4883,-1.3621,-1.2435,-1.1622,-1.1309,-1.149,-1.1697,-1.175,-1.159,-1.2336,-1.3127,-1.3864,-1.4695,-1.5794,-1.693,-1.7253,-1.7446,-1.7997,-1.8731,-1.9365,-1.9552,-2.0311,-2.083,-2.0876,-2.1443,-2.2299,-2.2552,-2.0413,-1.8987,-2.0159,-2.0152,-1.971,-1.9311,-1.8963,-1.8818,-1.8794,-1.7712,-1.7374,-1.828,-1.835,-1.777,-1.71,-1.728,-1.7373,-1.7383,-1.7346,-1.7309,-1.749,-1.7889,-1.8405,-1.9017,-1.8844,-1.8402,-2.6241,-2.501,-2.5391,-2.5088,-2.4297,-2.3945,-2.3545,-2.3232,-2.4286,-2.4872,-2.5126,-2.6213,-2.7209,-2.8096,-2.729,-2.7464,-2.8255,-2.7209,-2.613,-2.5041,-2.4872,-2.4211,-2.3135,-2.3144,-2.3047,-2.2862,-2.2862,-2.2775,-2.2492,-2.1578,-2.1025,-2.0935,-2.0034,-2.0034,-2.0899,-2.0588,-2.1352,-2.3134,-1.963,-1.7549,-1.726,-1.6681,-1.5994,-1.5188,-1.4236,-1.3361,-1.2529,-1.2406,-1.2274,-1.2018,-1.2508,-1.2839,-1.3067,-1.3979,-1.4685,-1.51,-1.5527,-1.5996,-1.6426,-1.623,-1.5864,-1.5433,-1.4805,-1.399,-1.2878,-1.2074,-1.1683,-1.1804,-1.2051,-1.2211,-1.2251,-1.2942,-1.339,-1.3391,-1.4407,-1.5471,-1.6044,-1.6483,-1.7055,-1.7842,-1.8787,-1.9365,-1.9562,-2.0782,-2.1631,-2.1525,-2.2152,-2.2919,-2.2827,-2.1898,-2.15,-2.218,-2.1817,-2.1269,-2.0878,-2.0491,-2.0151,-2.012,-1.9423,-1.8714,-1.8605,-1.8311,-1.7924,-1.7232,-1.7323,-1.7383,-1.7422,-1.7695,-1.7822,-1.7939,-1.8475,-1.9114,-1.9441,-1.9824,-1.9749,-2.666,-2.6162,-2.6348,-2.5928,-2.5068,-2.417,-2.3682,-2.3467,-2.3737,-2.3877,-2.3963,-2.5052,-2.6202,-2.7197,-2.7371,-2.7947,-2.9015,-2.8542,-2.7383,-2.5808,-2.5714,-2.4808,-2.3242,-2.3379,-2.3359,-2.3164,-2.3379,-2.3379,-2.3067,-2.258,-2.2306,-2.2217,-2.1676,-2.2013,-2.3095,-2.2798,-2.3421,-2.4903,-2.2341,-2.0685,-2.0356,-1.9431,-1.8113,-1.6501,-1.5497,-1.4521,-1.363,-1.3596,-1.3697,-1.3951,-1.3987,-1.4341,-1.5046,-1.5322,-1.5476,-1.5383,-1.5526,-1.5523,-1.5201,-1.5714,-1.5862,-1.5318,-1.5018,-1.4431,-1.3389,-1.255,-1.2051,-1.2104,-1.2231,-1.2305,-1.2305,-1.2659,-1.3034,-1.3401,-1.4022,-1.4664,-1.5453,-1.6156,-1.6775,-1.7345,-1.888,-2.0009,-2.0009,-2.1479,-2.2494,-2.2372,-2.2847,-2.3125,-2.3125,-2.2723,-2.2488,-2.2943,-2.2674,-2.2108,-2.1656,-2.143,-2.1326,-2.1424,-2.0736,-2.0449,-2.0419,-1.9832,-1.8489,-1.7738,-1.7639,-1.7686,-1.7715,-1.7861,-1.7988,-1.8076,-1.8828,-1.9571,-2.0314,-2.1244,-2.126,-2.8056,-2.7885,-2.7702,-2.6893,-2.5654,-2.4551,-2.3975,-2.3769,-2.3428,-2.3232,-2.3232,-2.4049,-2.5221,-2.6554,-2.7371,-2.8518,-2.9702,-2.9779,-2.8633,-2.6637,-2.6483,-2.5369,-2.3486,-2.3643,-2.3662,-2.3467,-2.3682,-2.3623,-2.331,-2.3193,-2.3144,-2.3144,-2.3144,-2.3627,-2.4777,-2.4524,-2.4995,-2.6188,-2.511,-2.4162,-2.3444,-2.2116,-2.0636,-1.8918,-1.7429,-1.6234,-1.5503,-1.5261,-1.5313,-1.5716,-1.5494,-1.5726,-1.6617,-1.6406,-1.6086,-1.5799,-1.5595,-1.5099,-1.4338,-1.5323,-1.5863,-1.5472,-1.5184,-1.46,-1.3667,-1.2898,-1.2398,-1.2325,-1.2365,-1.2412,-1.2425,-1.2179,-1.241,-1.3142,-1.3216,-1.3608,-1.4598,-1.5745,-1.6572,-1.693,-1.907,-2.066,-2.088,-2.2051,-2.3005,-2.3065,-2.3125,-2.3125,-2.3125,-2.3125,-2.3132,-2.3124,-2.3094,-2.2811,-2.2008,-2.2051,-2.2276,-2.2485,-2.193,-2.197,-2.2261,-2.1042,-1.9283,-1.8304,-1.7955,-1.7939,-1.7998,-1.7998,-1.8008,-1.8076,-1.9019,-2.0303,-2.1516,-2.2345,-2.2567,-3.1285,-3.0524,-2.9706,-2.7944,-2.5839,-2.5261,-2.4594,-2.3928,-2.374,-2.3496,-2.3232,-2.3222,-2.4478,-2.6307,-2.6648,-2.7799,-2.9702,-2.9779,-2.8633,-2.673,-2.6483,-2.5541,-2.386,-2.3769,-2.3975,-2.418,-2.3975,-2.3818,-2.3672,-2.332,-2.3144,-2.3144,-2.3144,-2.3714,-2.4692,-2.4819,-2.5793,-2.7853,-2.7726,-2.6825,-2.5037,-2.3932,-2.3301,-2.3116,-2.1275,-1.99,-1.894,-1.814,-1.733,-1.6679,-1.6592,-1.6636,-1.6748,-1.6689,-1.6801,-1.7135,-1.6344,-1.5589,-1.5225,-1.6,-1.6325,-1.5889,-1.4911,-1.4018,-1.3365,-1.3024,-1.2699,-1.239,-1.2559,-1.2685,-1.2719,-1.2045,-1.1672,-1.1897,-1.1836,-1.211,-1.3071,-1.4958,-1.6387,-1.6946,-1.916,-2.1018,-2.0834,-2.2061,-2.3042,-2.3213,-2.3103,-2.3175,-2.3226,-2.315,-2.3175,-2.31,-2.3138,-2.3088,-2.2899,-2.2987,-2.289,-2.2952,-2.3002,-2.2969,-2.2739,-2.1698,-1.9986,-1.8359,-1.8038,-1.7988,-1.8008,-1.8008,-1.8018,-1.8482,-1.9518,-2.1071,-2.2469,-2.2896,-2.2555,-3.2096,-3.1759,-3.1361,-3.0294,-2.8635,-2.721,-2.6474,-2.6077,-2.4496,-2.388,-2.3993,-2.3377,-2.3973,-2.5557,-2.6224,-2.7383,-2.8779,-2.9534,-2.8961,-2.7441,-2.6801,-2.5901,-2.4808,-2.4315,-2.4258,-2.4434,-2.4492,-2.4287,-2.3789,-2.335,-2.3144,-2.3222,-2.3714,-2.4723,-2.5797,-2.6449,-2.7522,-2.9028,-2.9106,-2.8729,-2.7878,-2.6612,-2.5177,-2.3824,-2.2928,-2.205,-2.1182,-2.0654,-2.0075,-1.9246,-1.9375,-1.9207,-1.8624,-1.8389,-1.8046,-1.7686,-1.654,-1.5471,-1.4648,-1.5719,-1.5757,-1.4246,-1.4349,-1.4065,-1.3338,-1.3033,-1.2641,-1.206,-1.2454,-1.2886,-1.2857,-1.208,-1.149,-1.149,-1.1186,-1.1036,-1.098,-1.3126,-1.4635,-1.4858,-1.7688,-2.0104,-2.0604,-2.2022,-2.3146,-2.3478,-2.3414,-2.3301,-2.3552,-2.3364,-2.3301,-2.3514,-2.3376,-2.309,-2.3125,-2.3125,-2.3125,-2.3128,-2.3439,-2.3553,-2.2997,-2.2464,-2.0983,-1.85,-1.8128,-1.7988,-1.8008,-1.8076,-1.8154,-1.8895,-2.0618,-2.2342,-2.2994,-2.2579,-2.2053,-3.3441,-3.3296,-3.2769,-3.183,-3.07,-2.8827,-2.7891,-2.7655,-2.5612,-2.4892,-2.5158,-2.4392,-2.4467,-2.5294,-2.6141,-2.7128,-2.8176,-2.9275,-2.9197,-2.8096,-2.7279,-2.6395,-2.5424,-2.5098,-2.475,-2.4629,-2.4902,-2.4619,-2.3828,-2.335,-2.3144,-2.3309,-2.4211,-2.5368,-2.6472,-2.7614,-2.8688,-2.9702,-2.9779,-2.9779,-2.9626,-2.8725,-2.7184,-2.53,-2.4526,-2.3959,-2.3259,-2.2672,-2.2121,-2.148,-2.1395,-2.1052,-2.0357,-1.9873,-1.9135,-1.8065,-1.7315,-1.6427,-1.5287,-1.5799,-1.5523,-1.4081,-1.4243,-1.3971,-1.3226,-1.3074,-1.2605,-1.1441,-1.1305,-1.1352,-1.2264,-1.1512,-1.0907,-1.0883,-1.0511,-1.0184,-0.9836,-1.1398,-1.26,-1.3253,-1.6547,-1.9426,-2.0995,-2.269,-2.3926,-2.3991,-2.3904,-2.3715,-2.3942,-2.3691,-2.3552,-2.3904,-2.3502,-2.3175,-2.3125,-2.3125,-2.3125,-2.3251,-2.3565,-2.3704,-2.307,-2.2521,-2.1363,-1.8674,-1.8247,-1.7988,-1.8008,-1.8076,-1.8279,-1.9603,-2.1236,-2.2662,-2.2714,-2.1992,-2.1584,-3.625,-3.5792,-3.3775,-3.2229,-3.0774,-2.9282,-2.8344,-2.8068,-2.7167,-2.6774,-2.6423,-2.6224,-2.6318,-2.6389,-2.6565,-2.7128,-2.8187,-2.9275,-2.9197,-2.8255,-2.8016,-2.705,-2.5522,-2.5805,-2.5717,-2.5233,-2.5258,-2.4761,-2.3828,-2.3369,-2.3144,-2.3222,-2.4382,-2.5378,-2.6554,-2.7695,-2.8688,-2.9714,-2.9779,-2.9779,-2.9779,-2.9664,-2.9249,-2.8312,-2.6784,-2.5779,-2.5588,-2.3916,-2.2928,-2.2976,-2.2128,-2.1519,-2.1296,-2.0859,-1.9771,-1.8305,-1.8998,-1.9033,-1.7633,-1.6739,-1.6086,-1.573,-1.4479,-1.3302,-1.2662,-1.3084,-1.2668,-1.0952,-0.9042,-0.8623,-1.0193,-0.992,-0.9468,-0.9553,-0.9723,-0.953,-0.9347,-0.9562,-1.0869,-1.3021,-1.5992,-1.9161,-2.2469,-2.4378,-2.455,-2.4446,-2.477,-2.5038,-2.4364,-2.4091,-2.4054,-2.3917,-2.3603,-2.3103,-2.309,-2.2944,-2.2944,-2.3045,-2.3158,-2.3741,-2.279,-2.176,-2.0162,-1.887,-1.8307,-1.7998,-1.8008,-1.8202,-1.8519,-1.9526,-2.1122,-2.2171,-2.1987,-2.167,-2.1197,-3.6314,-3.5328,-3.4792,-3.3888,-3.2726,-3.1404,-3.0596,-3.0025,-2.8351,-2.7633,-2.7371,-2.6801,-2.6483,-2.6554,-2.7209,-2.7695,-2.8187,-2.9287,-2.9546,-2.9106,-2.8426,-2.7871,-2.7633,-2.7358,-2.6875,-2.6228,-2.6546,-2.5865,-2.432,-2.376,-2.3741,-2.4327,-2.5305,-2.6461,-2.7522,-2.8609,-2.9378,-2.9702,-2.9779,-2.9779,-2.9779,-2.9779,-2.9679,-2.9453,-2.8412,-2.7619,-2.7359,-2.659,-2.5841,-2.4907,-2.4737,-2.4042,-2.2741,-2.1882,-2.0899,-1.9803,-1.9775,-1.9381,-1.8323,-1.7186,-1.6258,-1.5648,-1.4564,-1.351,-1.2579,-1.2106,-1.1287,-0.9908,-0.8589,-0.8142,-0.8482,-0.8909,-0.9142,-0.9212,-0.8804,-0.8449,-0.8318,-0.839,-0.9268,-1.1356,-1.5133,-1.9121,-2.1124,-2.3013,-2.3934,-2.3879,-2.4666,-2.5174,-2.5043,-2.4755,-2.4582,-2.4703,-2.4017,-2.3372,-2.3803,-2.2874,-2.2333,-2.2387,-2.2583,-2.3317,-2.3093,-2.1733,-2.0186,-1.8662,-1.8037,-1.7998,-1.8008,-1.8492,-1.8731,-1.8685,-2.0347,-2.105,-2.1049,-2.0726,-2.0278,-3.6994,-3.5797,-3.552,-3.5099,-3.4285,-3.2744,-3.181,-3.1235,-2.9571,-2.8751,-2.8546,-2.7879,-2.7557,-2.7637,-2.8347,-2.8688,-2.8688,-2.9443,-2.9779,-2.9702,-2.9015,-2.8715,-2.8728,-2.8561,-2.8098,-2.7404,-2.7283,-2.6486,-2.5158,-2.4516,-2.4496,-2.4808,-2.6295,-2.736,-2.8176,-2.9275,-2.9779,-2.9779,-2.9779,-2.9779,-2.9779,-2.9779,-2.9779,-2.9729,-2.9402,-2.9038,-2.8649,-2.831,-2.7729,-2.6956,-2.6648,-2.5592,-2.3729,-2.2744,-2.1939,-2.1094,-2.0841,-2.0357,-1.9392,-1.8276,-1.7372,-1.6694,-1.5346,-1.4142,-1.3083,-1.1921,-1.0945,-1.001,-0.9208,-0.8676,-0.8527,-0.8683,-0.8773,-0.8733,-0.8211,-0.7743,-0.7736,-0.7861,-0.8866,-1.1256,-1.5524,-1.8842,-2.0459,-2.2305,-2.3589,-2.4248,-2.5259,-2.569,-2.5711,-2.5181,-2.5008,-2.5319,-2.4025,-2.3465,-2.3308,-2.245,-2.1376,-2.1232,-2.1678,-2.2569,-2.2525,-2.1247,-2.0162,-1.8655,-1.8006,-1.8008,-1.8289,-1.8704,-1.8603,-1.8165,-1.8629,-1.9565,-1.9641,-1.9759,-1.9552,-3.8489,-3.7549,-3.6182,-3.5489,-3.4986,-3.3216,-3.1976,-3.1386,-3.0735,-3.0169,-2.9596,-2.9611,-2.9456,-2.9611,-2.9534,-2.9702,-2.9689,-2.9792,-2.9779,-2.9779,-2.9764,-2.945,-2.9068,-2.9559,-2.9409,-2.8835,-2.757,-2.6788,-2.6325,-2.5847,-2.5483,-2.5444,-2.7115,-2.8111,-2.8199,-2.9324,-2.9779,-2.9779,-2.9779,-2.9779,-2.9779,-2.9779,-2.9779,-2.9779,-2.9741,-2.9704,-2.9691,-2.8737,-2.8349,-2.8525,-2.7381,-2.5803,-2.4216,-2.3417,-2.2726,-2.2085,-2.2226,-2.202,-2.1219,-2.0042,-1.9269,-1.8917,-1.7095,-1.5213,-1.4168,-1.3401,-1.2539,-1.1615,-1.1175,-1.0573,-1.0188,-0.9401,-0.8497,-0.8001,-0.8185,-0.828,-0.8076,-0.7892,-0.9049,-1.2405,-1.6511,-1.9469,-2.0854,-2.2066,-2.359,-2.529,-2.598,-2.6183,-2.6239,-2.5611,-2.5247,-2.519,-2.4329,-2.3561,-2.2752,-2.1842,-2.0815,-2.0111,-2.074,-2.1338,-2.0732,-1.9756,-1.9545,-1.8377,-1.8027,-1.8018,-1.8008,-1.8424,-1.8357,-1.8093,-1.8338,-1.8476,-1.8731,-1.9044,-1.911,-3.903,-3.7454,-3.6839,-3.5937,-3.4927,-3.4214,-3.2988,-3.1505,-3.1198,-3.0633,-2.9905,-2.9779,-2.9779,-2.9779,-2.9779,-2.9792,-2.9779,-2.9779,-2.9792,-2.988,-3.0181,-3.0273,-3.0251,-3.0922,-3.1089,-3.0372,-2.9172,-2.8382,-2.8043,-2.7833,-2.7886,-2.8291,-2.8457,-2.9072,-2.9714,-2.9824,-2.9779,-2.9779,-2.9779,-2.9779,-2.9779,-2.9792,-2.9792,-2.9779,-2.9779,-2.9779,-2.9767,-2.944,-2.9164,-2.895,-2.8084,-2.6678,-2.4921,-2.4029,-2.3417,-2.28,-2.2618,-2.2698,-2.2442,-2.0904,-2.0007,-1.9707,-1.8099,-1.6425,-1.5507,-1.5583,-1.511,-1.4301,-1.4819,-1.5219,-1.4063,-1.3472,-1.1753,-0.8418,-0.9031,-0.971,-0.9674,-0.9616,-1.0469,-1.24,-1.6658,-1.9458,-1.9935,-2.0986,-2.268,-2.4672,-2.5242,-2.5496,-2.6202,-2.6088,-2.5988,-2.602,-2.4864,-2.3661,-2.3098,-2.2366,-2.1436,-2.0411,-2.0422,-2.0285,-1.9494,-1.9094,-1.8783,-1.8437,-1.8154,-1.8027,-1.8018,-1.8008,-1.8008,-1.8008,-1.8123,-1.8267,-1.8375,-1.8462,-1.8586,-4.017,-3.8389,-3.7887,-3.6792,-3.5224,-3.4897,-3.3446,-3.1556,-3.1386,-3.0783,-2.9942,-2.9779,-2.9779,-2.9829,-3.0005,-3.0093,-3.0131,-3.0294,-3.0394,-3.0382,-3.047,-3.0809,-3.1248,-3.2089,-3.2326,-3.1792,-3.0676,-2.9883,-2.9512,-2.9466,-2.9572,-2.9677,-2.976,-2.9996,-3.0566,-3.047,-3.0244,-2.9892,-2.9993,-3.0105,-3.0055,-2.9892,-2.9892,-3.003,-2.9905,-2.9792,-2.9779,-2.9779,-2.9628,-2.9139,-2.836,-2.6929,-2.5272,-2.4607,-2.4142,-2.3804,-2.3614,-2.3583,-2.3634,-2.245,-2.1533,-2.1437,-2.0072,-1.8815,-1.8224,-1.8447,-1.7959,-1.7826,-1.8137,-1.8506,-1.7674,-1.7029,-1.5272,-1.2585,-1.231,-1.2325,-1.2061,-1.2261,-1.2592,-1.4104,-1.71,-1.9118,-1.9782,-2.0915,-2.2105,-2.3852,-2.4802,-2.5344,-2.6239,-2.6251,-2.6302,-2.6152,-2.5144,-2.4259,-2.358,-2.2833,-2.2005,-2.1115,-2.0419,-1.9743,-1.8928,-1.8948,-1.8769,-1.8369,-1.7988,-1.8018,-1.8008,-1.8008,-1.8008,-1.8008,-1.8008,-1.8076,-1.8212,-1.8134,-1.8221,-4.1639,-4.0398,-3.9375,-3.7955,-3.6322,-3.5332,-3.3731,-3.1795,-3.1474,-3.0896,-3.0043,-2.9917,-2.9892,-2.998,-3.0357,-3.0532,-3.0683,-3.1047,-3.1223,-3.1148,-3.106,-3.1298,-3.2177,-3.2729,-3.2945,-3.2884,-3.1913,-3.1197,-3.0922,-3.079,-3.0334,-3.0375,-3.1005,-3.1223,-3.0972,-3.1198,-3.0834,-3.0218,-3.0444,-3.0658,-3.0633,-3.0143,-3.008,-3.052,-3.0068,-2.9779,-2.9779,-2.9779,-2.9767,-2.9528,-2.8296,-2.7139,-2.5933,-2.5199,-2.4962,-2.4823,-2.4872,-2.4806,-2.471,-2.419,-2.391,-2.3781,-2.2622,-2.2062,-2.169,-2.1342,-2.1257,-2.1424,-2.1044,-2.0879,-2.0962,-2.0351,-1.9482,-1.9112,-1.7189,-1.5892,-1.552,-1.6009,-1.5966,-1.5736,-1.7648,-2.0053,-2.0668,-2.2369,-2.3395,-2.4186,-2.5373,-2.6239,-2.6584,-2.6647,-2.6282,-2.594,-2.5746,-2.5289,-2.4884,-2.453,-2.375,-2.2832,-2.1828,-2.0663,-1.9385,-1.9193,-1.8945,-1.8525,-1.8301,-1.8223,-1.8086,-1.8135,-1.8076,-1.8018,-1.8027,-1.8018,-1.8174,-1.8399,-1.8606,-4.2162,-4.1743,-4.0471,-3.9229,-3.7969,-3.6512,-3.4768,-3.3193,-3.2282,-3.1361,-3.0557,-3.0394,-3.0394,-3.0419,-3.057,-3.062,-3.0809,-3.1198,-3.1386,-3.1436,-3.1725,-3.2164,-3.2742,-3.3006,-3.3307,-3.3483,-3.2984,-3.276,-3.2946,-3.2476,-3.2216,-3.2178,-3.1997,-3.1938,-3.1813,-3.1537,-3.1273,-3.1022,-3.1085,-3.1185,-3.111,-3.067,-3.047,-3.052,-3.0105,-2.9817,-2.9792,-2.9779,-2.9578,-2.9126,-2.9006,-2.8313,-2.7313,-2.6713,-2.6296,-2.6022,-2.5613,-2.5398,-2.5378,-2.5046,-2.4837,-2.4767,-2.4157,-2.3707,-2.3665,-2.4148,-2.4436,-2.4708,-2.4673,-2.4775,-2.4902,-2.4619,-2.442,-2.4072,-2.1593,-1.9772,-2.0155,-2.0689,-1.9968,-1.7744,-2.0745,-2.2786,-2.4084,-2.4555,-2.5324,-2.5749,-2.6298,-2.6918,-2.7176,-2.7155,-2.6892,-2.7301,-2.7145,-2.6687,-2.6274,-2.6012,-2.5501,-2.4709,-2.3677,-2.2584,-2.1167,-1.9968,-1.9528,-1.9014,-1.9213,-1.9254,-1.8685,-1.8308,-1.8232,-1.8094,-1.8576,-1.8862,-1.9203,-1.9442,-1.9626,-4.2611,-4.2297,-4.1534,-4.0317,-3.8673,-3.7242,-3.5559,-3.3872,-3.2663,-3.175,-3.1072,-3.0947,-3.0947,-3.0959,-3.1185,-3.1298,-3.1361,-3.1851,-3.2089,-3.2164,-3.2441,-3.2893,-3.3307,-3.3432,-3.3709,-3.4173,-3.3909,-3.3822,-3.3822,-3.3558,-3.3319,-3.3031,-3.2754,-3.2466,-3.2177,-3.219,-3.1813,-3.1524,-3.1587,-3.1738,-3.1687,-3.121,-3.0984,-3.0834,-3.0432,-3.0068,-2.9919,-3.0139,-3.0074,-2.9722,-2.9706,-2.9552,-2.916,-2.8808,-2.8495,-2.8093,-2.7433,-2.6953,-2.6739,-2.6126,-2.5761,-2.591,-2.5719,-2.5701,-2.595,-2.6476,-2.6795,-2.7066,-2.7384,-2.762,-2.7844,-2.7891,-2.7891,-2.7475,-2.5853,-2.4324,-2.3969,-2.368,-2.2849,-2.204,-2.3366,-2.638,-2.7826,-2.7763,-2.7357,-2.7336,-2.764,-2.7861,-2.7959,-2.7868,-2.7817,-2.8214,-2.8363,-2.7959,-2.7871,-2.7715,-2.7422,-2.668,-2.5809,-2.4677,-2.2663,-2.1125,-2.0442,-2.0113,-2.0247,-2.0124,-1.9625,-1.9007,-1.849,-1.8639,-1.9228,-1.9745,-2.0093,-2.0488,-2.0615,-4.2985,-4.2447,-4.2372,-4.1163,-3.9252,-3.7986,-3.6385,-3.4271,-3.3206,-3.2256,-3.1574,-3.1474,-3.1486,-3.1499,-3.1851,-3.2152,-3.2177,-3.2629,-3.2918,-3.298,-3.3131,-3.3458,-3.3935,-3.3834,-3.4198,-3.4675,-3.4763,-3.45,-3.4261,-3.4098,-3.3746,-3.3495,-3.3345,-3.2955,-3.2754,-3.2905,-3.2541,-3.1938,-3.2114,-3.2303,-3.2164,-3.1675,-3.1298,-3.1198,-3.0912,-3.0468,-3.0381,-3.0745,-3.1176,-3.0842,-3.0762,-3.0909,-3.1096,-3.1188,-3.102,-3.0627,-2.9564,-2.8852,-2.8784,-2.779,-2.7258,-2.7666,-2.7831,-2.7977,-2.8363,-2.8533,-2.8674,-2.9026,-2.9013,-2.9046,-2.9422,-2.9689,-2.9741,-2.9704,-2.9614,-2.8811,-2.7117,-2.6104,-2.585,-2.5916,-2.6749,-2.9052,-3.0806,-3.1124,-2.9601,-2.9396,-2.9522,-2.9613,-2.9254,-2.8762,-2.8805,-2.9113,-2.9173,-2.9215,-2.9295,-2.9386,-2.9145,-2.8745,-2.7854,-2.654,-2.4192,-2.2661,-2.1725,-2.1269,-2.1074,-2.0979,-2.0792,-2.0116,-1.9443,-1.9545,-2.0463,-2.078,-2.1002,-2.1428,-2.1715,-4.3254,-4.309,-4.2581,-4.2115,-4.1448,-3.9888,-3.8169,-3.6428,-3.5279,-3.3701,-3.2369,-3.2039,-3.2039,-3.2051,-3.219,-3.2202,-3.2328,-3.2805,-3.3081,-3.3144,-3.3558,-3.401,-3.4336,-3.4135,-3.4474,-3.5052,-3.4914,-3.4889,-3.4989,-3.47,-3.4487,-3.4349,-3.4173,-3.4085,-3.3621,-3.3583,-3.342,-3.2842,-3.2855,-3.2953,-3.2861,-3.22,-3.1693,-3.1554,-3.1281,-3.1091,-3.1084,-3.1815,-3.2538,-3.2904,-3.2786,-3.2557,-3.2544,-3.2291,-3.2105,-3.1903,-3.117,-3.0471,-3.0429,-3.0105,-3.0038,-2.9984,-3.0281,-3.0895,-3.0934,-3.0593,-3.0503,-3.0563,-3.01,-2.9705,-2.9896,-3.0495,-3.0771,-3.0983,-3.1389,-3.1602,-3.105,-3.0255,-2.9766,-3.0151,-3.0712,-3.1823,-3.3129,-3.2695,-3.1844,-3.1656,-3.1527,-3.1537,-3.0788,-2.9784,-2.9869,-3.0085,-3.1128,-3.1276,-3.0762,-3.0838,-3.0673,-3.0334,-2.9559,-2.8586,-2.619,-2.4679,-2.3965,-2.29,-2.1744,-2.1733,-2.2222,-2.1956,-2.146,-2.1594,-2.1661,-2.2155,-2.2539,-2.2739,-2.2767,-4.3614,-4.3299,-4.2955,-4.2641,-4.2171,-4.0879,-3.9547,-3.8148,-3.6343,-3.4926,-3.3817,-3.3056,-3.2616,-3.2616,-3.2616,-3.2629,-3.2667,-3.2905,-3.3081,-3.3131,-3.342,-3.3947,-3.4587,-3.4562,-3.4839,-3.5717,-3.5667,-3.5592,-3.5454,-3.5265,-3.4964,-3.4738,-3.4751,-3.4537,-3.4336,-3.4286,-3.4161,-3.401,-3.4152,-3.4183,-3.41,-3.3888,-3.3251,-3.2725,-3.2265,-3.1888,-3.196,-3.2749,-3.3449,-3.3873,-3.4089,-3.4208,-3.4193,-3.395,-3.3759,-3.3586,-3.2637,-3.2061,-3.1952,-3.138,-3.1043,-3.1416,-3.1681,-3.1889,-3.1914,-3.1594,-3.1214,-3.1031,-3.0469,-2.9921,-3.0419,-3.0758,-3.1315,-3.1901,-3.2307,-3.2593,-3.2522,-3.2164,-3.2033,-3.2492,-3.2821,-3.3476,-3.3973,-3.3754,-3.3504,-3.3085,-3.2863,-3.2779,-3.1639,-3.0851,-3.0918,-3.1456,-3.3057,-3.3424,-3.2579,-3.2258,-3.2077,-3.1568,-3.0937,-2.9941,-2.8425,-2.732,-2.6479,-2.5402,-2.4487,-2.3899,-2.4093,-2.3794,-2.339,-2.2999,-2.3106,-2.375,-2.4165,-2.4091,-2.3967,-4.3928,-4.3344,-4.3344,-4.3015,-4.2473,-4.1565,-4.0691,-3.9562,-3.7221,-3.6031,-3.5331,-3.3935,-3.3144,-3.3068,-3.3031,-3.3142,-3.3373,-3.336,-3.3556,-3.3594,-3.3557,-3.4022,-3.4625,-3.5002,-3.5429,-3.6307,-3.6245,-3.6056,-3.5805,-3.5642,-3.5504,-3.509,-3.5014,-3.5014,-3.4914,-3.4839,-3.483,-3.4742,-3.5042,-3.5323,-3.5402,-3.5547,-3.5018,-3.3971,-3.3481,-3.2945,-3.3087,-3.3671,-3.4245,-3.4245,-3.5052,-3.5424,-3.5489,-3.5489,-3.5489,-3.5365,-3.412,-3.3638,-3.339,-3.2663,-3.2164,-3.2384,-3.2412,-3.2499,-3.2596,-3.2208,-3.1669,-3.1106,-3.062,-3.0419,-3.1119,-3.1742,-3.2092,-3.2678,-3.289,-3.3031,-3.3045,-3.3045,-3.3339,-3.3478,-3.3905,-3.4558,-3.492,-3.4986,-3.4758,-3.4476,-3.4259,-3.3862,-3.2723,-3.2248,-3.2486,-3.2695,-3.4177,-3.4719,-3.3977,-3.3533,-3.3393,-3.2469,-3.1911,-3.1101,-3.01,-2.9099,-2.8233,-2.8449,-2.7751,-2.6812,-2.5969,-2.5573,-2.5059,-2.4379,-2.4769,-2.5769,-2.5769,-2.535,-2.5252,-4.3943,-4.3344,-4.3344,-4.3269,-4.3086,-4.2912,-4.2004,-4.0536,-3.9033,-3.7294,-3.5574,-3.4356,-3.3507,-3.3181,-3.3081,-3.3556,-3.4108,-3.4345,-3.4428,-3.4457,-3.4443,-3.4755,-3.4918,-3.5717,-3.6137,-3.6282,-3.637,-3.6282,-3.6219,-3.6207,-3.6044,-3.6044,-3.5994,-3.5818,-3.5571,-3.5366,-3.5609,-3.5874,-3.5995,-3.6165,-3.6305,-3.5972,-3.5488,-3.4458,-3.4441,-3.4323,-3.4088,-3.4721,-3.5279,-3.5279,-3.5439,-3.5504,-3.5489,-3.5489,-3.5489,-3.5394,-3.5139,-3.4794,-3.4756,-3.475,-3.4691,-3.4889,-3.4662,-3.422,-3.3808,-3.3269,-3.242,-3.1476,-3.1106,-3.1031,-3.1167,-3.2451,-3.338,-3.3891,-3.4341,-3.4787,-3.4854,-3.4773,-3.4528,-3.4365,-3.481,-3.5213,-3.5359,-3.5489,-3.5213,-3.4986,-3.4905,-3.4905,-3.4351,-3.4249,-3.4505,-3.4742,-3.5118,-3.534,-3.5133,-3.4854,-3.4528,-3.3169,-3.2496,-3.195,-3.1048,-3.0318,-2.9884,-2.9491,-2.9303,-2.8625,-2.7916,-2.7273,-2.6931,-2.6371,-2.7029,-2.774,-2.7138,-2.6566,-2.6392,-4.3928,-4.3359,-4.3344,-4.3344,-4.3344,-4.3344,-4.2912,-4.1924,-4.0206,-3.8504,-3.6834,-3.5149,-3.3824,-3.329,-3.3081,-3.3713,-3.4607,-3.5278,-3.544,-3.5507,-3.5845,-3.5809,-3.5657,-3.6444,-3.6577,-3.6445,-3.637,-3.6452,-3.637,-3.6345,-3.6452,-3.6358,-3.637,-3.6476,-3.6816,-3.6909,-3.7216,-3.751,-3.7936,-3.7977,-3.7839,-3.731,-3.6577,-3.6258,-3.5744,-3.558,-3.5451,-3.5251,-3.5519,-3.5489,-3.5489,-3.5489,-3.5489,-3.5489,-3.5489,-3.5469,-3.5502,-3.5451,-3.5487,-3.5437,-3.5195,-3.4765,-3.5112,-3.4709,-3.3839,-3.3269,-3.2777,-3.1842,-3.1328,-3.1669,-3.2593,-3.3518,-3.4177,-3.4773,-3.5213,-3.5424,-3.5489,-3.5489,-3.5379,-3.519,-3.5429,-3.5539,-3.5424,-3.5489,-3.5489,-3.5489,-3.5554,-3.5574,-3.5599,-3.5502,-3.5519,-3.5508,-3.5457,-3.5323,-3.5234,-3.4949,-3.4292,-3.314,-3.2553,-3.2009,-3.129,-3.0267,-2.9959,-2.9691,-2.9644,-2.9541,-2.9038,-2.8176,-2.8225,-2.8136,-2.8111,-2.8025,-2.7963,-2.7755,-2.7303,-4.4047,-4.3344,-4.3344,-4.3344,-4.3344,-4.3344,-4.324,-4.2704,-4.1033,-3.9572,-3.8267,-3.6286,-3.4751,-3.4097,-3.4255,-3.4808,-3.5723,-3.6623,-3.6763,-3.6795,-3.6863,-3.6795,-3.6748,-3.7169,-3.7487,-3.7287,-3.7402,-3.679,-3.6546,-3.6722,-3.6803,-3.6977,-3.6977,-3.7507,-3.8262,-3.8376,-3.9156,-3.9812,-4.0361,-4.0239,-3.9702,-3.9018,-3.8497,-3.8317,-3.7285,-3.6574,-3.629,-3.5753,-3.5534,-3.5489,-3.5489,-3.5489,-3.5489,-3.5489,-3.5489,-3.5484,-3.5466,-3.5459,-3.5192,-3.5439,-3.4972,-3.3922,-3.4063,-3.3423,-3.2888,-3.2407,-3.2277,-3.1783,-3.1915,-3.2321,-3.3533,-3.4177,-3.4691,-3.5133,-3.5424,-3.5489,-3.5554,-3.5763,-3.6222,-3.6113,-3.6082,-3.6178,-3.6352,-3.6305,-3.6477,-3.6492,-3.6538,-3.6117,-3.608,-3.5612,-3.5507,-3.5509,-3.5424,-3.524,-3.4883,-3.4385,-3.3348,-3.1885,-3.1573,-3.1381,-3.0685,-2.9869,-2.9779,-2.9779,-2.9741,-2.9643,-2.9239,-2.9089,-2.9001,-2.8837,-2.8561,-2.8536,-2.8662,-2.8056,-2.7418,-4.4451,-4.3344,-4.3344,-4.3344,-4.3344,-4.3344,-4.3015,-4.2503,-4.1726,-4.0709,-3.9482,-3.7833,-3.6605,-3.6201,-3.6969,-3.8032,-3.862,-3.8646,-3.848,-3.846,-3.7915,-3.7507,-3.7277,-3.821,-3.856,-3.8506,-3.902,-3.8185,-3.7335,-3.7599,-3.7848,-3.8017,-3.8751,-3.9549,-3.9623,-3.9697,-3.9953,-4.0456,-4.0627,-4.0531,-4.0291,-3.9593,-3.9065,-3.8407,-3.7734,-3.712,-3.6701,-3.6133,-3.5729,-3.5639,-3.5594,-3.5534,-3.5489,-3.5489,-3.5489,-3.5504,-3.5404,-3.5126,-3.4578,-3.4488,-3.4326,-3.275,-3.1744,-3.1092,-3.1236,-3.0996,-3.1009,-3.1783,-3.2563,-3.3408,-3.4109,-3.4773,-3.5279,-3.5424,-3.5489,-3.5489,-3.5554,-3.6344,-3.6784,-3.7372,-3.7433,-3.7575,-3.7759,-3.7637,-3.7573,-3.7531,-3.7413,-3.6995,-3.6477,-3.5904,-3.4981,-3.4756,-3.4986,-3.4846,-3.423,-3.3785,-3.2804,-3.1023,-3.0729,-3.0771,-3.0279,-2.9779,-2.9779,-2.9779,-2.9779,-2.9779,-2.9578,-2.949,-2.9578,-2.9453,-2.9164,-2.9315,-2.9603,-2.8748,-2.7747,-4.4197,-4.3344,-4.3344,-4.3344,-4.3344,-4.3344,-4.318,-4.2847,-4.2287,-4.1441,-4.027,-3.8788,-3.769,-3.74,-3.8361,-3.9287,-3.9801,-4.0095,-4.03,-4.0194,-3.9639,-3.9298,-3.9244,-3.9547,-3.9732,-3.9559,-3.9633,-3.9434,-3.8738,-3.8738,-3.9094,-3.9169,-3.9724,-4.0232,-4.0746,-4.0831,-4.1374,-4.1784,-4.1848,-4.1385,-4.095,-4.0307,-3.9649,-3.8975,-3.8302,-3.7823,-3.7449,-3.6941,-3.6596,-3.6582,-3.6582,-3.6582,-3.6477,-3.6297,-3.6073,-3.6199,-3.5729,-3.503,-3.4109,-3.3101,-3.2338,-3.1893,-3.0712,-3.0453,-3.0913,-3.057,-3.0722,-3.2648,-3.3227,-3.3934,-3.4654,-3.5213,-3.5359,-3.5504,-3.5534,-3.5614,-3.5883,-3.6781,-3.7499,-3.8157,-3.883,-3.9137,-3.9112,-3.8537,-3.8237,-3.7921,-3.7573,-3.6995,-3.6461,-3.5946,-3.4827,-3.3671,-3.4004,-3.4332,-3.3605,-3.2913,-3.2401,-3.1078,-3.0314,-3.0254,-3.0075,-2.9779,-2.9779,-2.9779,-2.9779,-2.9779,-2.9779,-2.9754,-2.9691,-2.9729,-2.9779,-2.9779,-2.9792,-2.9714,-2.8755,-4.4018,-4.3569,-4.3404,-4.3344,-4.3344,-4.3344,-4.3225,-4.3015,-4.2581,-4.1937,-4.1069,-3.9996,-3.9079,-3.8661,-3.971,-4.0495,-4.0806,-4.1362,-4.1547,-4.1594,-4.1398,-4.0893,-4.05,-4.0568,-4.0608,-4.0252,-4.0686,-4.0717,-4.0817,-4.076,-4.0746,-4.0404,-4.0845,-4.1267,-4.1782,-4.2029,-4.2394,-4.2877,-4.2563,-4.2102,-4.1564,-4.0771,-4.0187,-3.9544,-3.8931,-3.8377,-3.8287,-3.8016,-3.7721,-3.7691,-3.8014,-3.8019,-3.7688,-3.7334,-3.6984,-3.6902,-3.6387,-3.56,-3.3896,-3.2258,-3.0758,-3.0594,-3.0475,-3.0134,-3.0755,-3.0292,-3.0709,-3.2918,-3.3934,-3.4645,-3.5391,-3.5654,-3.5654,-3.5654,-3.5639,-3.5769,-3.6167,-3.7375,-3.8708,-3.9893,-4.0598,-4.0956,-4.0696,-3.961,-3.8956,-3.8439,-3.7806,-3.7131,-3.6445,-3.5876,-3.4449,-3.309,-3.3223,-3.3451,-3.2816,-3.2112,-3.1559,-3.1087,-3.0303,-2.9919,-2.9804,-2.9779,-2.9779,-2.9779,-2.9779,-2.9779,-2.9779,-2.9779,-2.9779,-2.9779,-2.9779,-2.9779,-2.9792,-2.9817,-2.9271,-4.4287,-4.4197,-4.3584,-4.3344,-4.3344,-4.3344,-4.2985,-4.2536,-4.2509,-4.2402,-4.2075,-4.1638,-4.1208,-4.1227,-4.129,-4.1968,-4.2932,-4.2566,-4.2357,-4.2102,-4.1728,-4.1279,-4.108,-4.1166,-4.1362,-4.1429,-4.171,-4.2305,-4.2782,-4.2482,-4.2126,-4.1684,-4.2126,-4.282,-4.2996,-4.29,-4.2981,-4.324,-4.2776,-4.2387,-4.1848,-4.113,-4.0397,-4.0008,-3.9125,-3.8392,-3.8432,-3.8772,-3.9013,-3.9029,-3.9596,-3.9518,-3.9082,-3.8558,-3.8137,-3.7676,-3.7188,-3.6393,-3.4917,-3.2652,-3.085,-3.0695,-3.0644,-3.0303,-3.0709,-3.0254,-3.0885,-3.2915,-3.4553,-3.5555,-3.5992,-3.5983,-3.5923,-3.5839,-3.5924,-3.6371,-3.7016,-3.8302,-3.9763,-4.1436,-4.2149,-4.2286,-4.194,-4.0804,-3.983,-3.9281,-3.8017,-3.7329,-3.6333,-3.5514,-3.3902,-3.2736,-3.2611,-3.2437,-3.1856,-3.1303,-3.0854,-3.0599,-3.0035,-2.9894,-2.9792,-2.9779,-2.9779,-2.9779,-2.9779,-2.9779,-2.9779,-2.9779,-2.9779,-2.9779,-2.9779,-2.9779,-2.9752,-2.9814,-2.8876,-4.4182,-4.4811,-4.3778,-4.3344,-4.3344,-4.3344,-4.2955,-4.2521,-4.2776,-4.2716,-4.2402,-4.256,-4.2408,-4.2261,-4.2511,-4.2805,-4.3235,-4.312,-4.297,-4.2746,-4.2312,-4.2102,-4.2058,-4.2013,-4.2207,-4.2476,-4.2851,-4.303,-4.322,-4.3344,-4.3155,-4.29,-4.3076,-4.317,-4.3265,-4.3344,-4.3344,-4.3299,-4.3015,-4.2671,-4.1713,-4.1339,-4.0621,-3.9723,-3.9993,-3.9919,-4.0445,-4.1017,-4.1216,-4.1433,-4.1741,-4.1358,-4.0641,-3.9971,-3.9311,-3.8656,-3.8069,-3.7336,-3.6724,-3.4608,-3.3254,-3.2403,-3.2036,-3.1516,-3.1373,-3.1589,-3.2496,-3.4115,-3.5707,-3.6753,-3.6387,-3.6267,-3.6133,-3.6024,-3.6368,-3.6999,-3.8027,-3.9381,-4.0629,-4.2311,-4.2825,-4.3006,-4.2537,-4.1963,-4.0987,-4.0043,-3.8683,-3.7364,-3.6313,-3.4919,-3.3154,-3.1981,-3.1757,-3.1509,-3.0921,-3.057,-3.0216,-2.9998,-2.9779,-2.9779,-2.9779,-2.9779,-2.9779,-2.9779,-2.9779,-2.9779,-2.9779,-2.9779,-2.9779,-2.9779,-2.9779,-2.9779,-2.9777,-2.9774,-2.9059,-4.4451,-4.5095,-4.3868,-4.3449,-4.3599,-4.3419,-4.3075,-4.2746,-4.288,-4.2821,-4.2417,-4.3,-4.312,-4.288,-4.3075,-4.325,-4.3265,-4.3299,-4.3314,-4.3135,-4.2925,-4.2851,-4.2791,-4.2671,-4.2462,-4.3,-4.3075,-4.306,-4.3344,-4.3344,-4.325,-4.325,-4.3344,-4.3344,-4.3344,-4.3344,-4.3344,-4.3344,-4.324,-4.2836,-4.1833,-4.1414,-4.1115,-4.0246,-4.0525,-4.1153,-4.1984,-4.2811,-4.3533,-4.3767,-4.3862,-4.3602,-4.2703,-4.1709,-4.086,-3.9991,-3.9195,-3.8538,-3.8092,-3.6788,-3.5052,-3.3573,-3.3135,-3.2866,-3.2949,-3.3166,-3.3603,-3.5082,-3.6704,-3.7509,-3.697,-3.718,-3.743,-3.7587,-3.7857,-3.8509,-3.9566,-4.0815,-4.1898,-4.3056,-4.3396,-4.3741,-4.2836,-4.2071,-4.0209,-3.9064,-3.7496,-3.646,-3.5783,-3.4149,-3.2088,-3.1143,-3.0734,-3.0379,-3.0011,-2.9998,-2.9998,-2.9998,-2.9779,-2.9779,-2.9779,-2.9792,-2.9792,-2.9779,-2.9779,-2.9779,-2.9779,-2.9779,-2.9779,-2.9779,-2.9779,-2.9779,-2.9792,-2.9777,-2.9752,-4.5214,-4.5125,-4.3868,-4.3688,-4.4122,-4.3584,-4.3269,-4.3045,-4.2671,-4.2476,-4.2536,-4.309,-4.3329,-4.324,-4.3314,-4.3329,-4.3344,-4.3344,-4.3344,-4.3269,-4.3195,-4.2925,-4.2686,-4.2551,-4.2641,-4.2432,-4.2656,-4.3015,-4.3344,-4.3344,-4.3344,-4.3344,-4.3344,-4.3344,-4.3344,-4.3329,-4.3329,-4.3344,-4.3344,-4.2895,-4.2282,-4.1743,-4.146,-4.1442,-4.1668,-4.2277,-4.3416,-4.4603,-4.5293,-4.548,-4.6007,-4.553,-4.4229,-4.3896,-4.3051,-4.1837,-4.0974,-4.0293,-3.9632,-3.7367,-3.5896,-3.4569,-3.4313,-3.4199,-3.3872,-3.403,-3.4877,-3.6906,-3.7443,-3.7918,-3.8122,-3.8565,-3.8901,-3.8996,-3.9277,-3.9919,-4.0929,-4.1774,-4.2789,-4.3451,-4.4063,-4.4328,-4.3287,-4.1956,-3.9612,-3.7859,-3.6259,-3.5329,-3.4849,-3.3255,-3.1156,-3.0624,-3.0163,-3.0025,-2.9856,-2.9856,-2.9779,-2.9792,-2.9804,-2.9817,-2.9817,-2.9817,-2.9817,-2.9792,-2.9779,-2.9779,-2.9779,-2.9779,-2.9779,-2.9779,-2.9779,-2.9779,-2.9779,-2.9779,-2.9779,-4.49,-4.517,-4.3883,-4.3703,-4.4182,-4.3614,-4.3105,-4.2686,-4.2491,-4.2611,-4.297,-4.3284,-4.3344,-4.3344,-4.3344,-4.3344,-4.3344,-4.3344,-4.3344,-4.3344,-4.3344,-4.324,-4.3015,-4.294,-4.297,-4.3,-4.303,-4.303,-4.3344,-4.3344,-4.3344,-4.3344,-4.3409,-4.3344,-4.3472,-4.3771,-4.4066,-4.3409,-4.3284,-4.303,-4.2494,-4.2179,-4.2093,-4.2279,-4.2819,-4.3717,-4.5053,-4.6306,-4.6839,-4.6982,-4.747,-4.6793,-4.5477,-4.5013,-4.4002,-4.2919,-4.2078,-4.153,-4.1195,-4.0115,-3.8788,-3.7114,-3.616,-3.6325,-3.6798,-3.7413,-3.8269,-3.8877,-3.9358,-3.9869,-4.0228,-4.0213,-4.0293,-3.9939,-4.0183,-4.0955,-4.1865,-4.2555,-4.3373,-4.3799,-4.4282,-4.2864,-4.1697,-4.0605,-3.8568,-3.669,-3.5035,-3.421,-3.3605,-3.1988,-3.0128,-3.0075,-2.9871,-2.9819,-2.9779,-2.9779,-3.0018,-3.0193,-2.9977,-2.9749,-2.9814,-2.9852,-2.9842,-2.9817,-2.9804,-2.9779,-2.9779,-2.9779,-2.9779,-2.9779,-2.9779,-2.9779,-2.9779,-2.9779,-2.9779,-4.4781,-4.4855,-4.4032,-4.3763,-4.3898,-4.3509,-4.306,-4.2746,-4.2716,-4.2955,-4.3269,-4.3329,-4.3344,-4.3344,-4.3344,-4.3344,-4.3344,-4.3344,-4.3344,-4.3344,-4.3344,-4.3299,-4.3314,-4.3344,-4.3254,-4.3344,-4.3344,-4.3344,-4.3344,-4.3344,-4.3344,-4.3409,-4.363,-4.363,-4.3771,-4.4066,-4.451,-4.4004,-4.3866,-4.3376,-4.2769,-4.2406,-4.2622,-4.3225,-4.3937,-4.5059,-4.6568,-4.7552,-4.8152,-4.827,-4.8088,-4.7699,-4.6574,-4.5647,-4.487,-4.4098,-4.3084,-4.2443,-4.1933,-4.1837,-4.0473,-3.9329,-3.8888,-3.8951,-3.9327,-3.9343,-4.007,-4.0865,-4.1645,-4.1597,-4.1467,-4.1401,-4.161,-4.1271,-4.1756,-4.256,-4.2889,-4.3625,-4.3804,-4.4198,-4.3592,-4.1938,-4.0139,-3.8718,-3.7278,-3.5538,-3.3833,-3.3155,-3.2488,-3.1057,-2.9769,-2.9796,-2.9779,-2.9779,-2.9779,-2.9779,-3.008,-3.0545,-3.0353,-3.0127,-2.9895,-2.9945,-2.9927,-2.9842,-2.9829,-2.9817,-2.9792,-2.9792,-2.9829,-2.9817,-2.9779,-2.9779,-2.9779,-2.9817,-2.9764,-4.487,-4.4332,-4.4272,-4.3883,-4.3404,-4.3344,-4.3314,-4.3314,-4.3314,-4.3314,-4.3344,-4.3344,-4.3344,-4.3344,-4.3344,-4.3344,-4.3344,-4.3344,-4.3344,-4.3344,-4.3344,-4.3344,-4.3344,-4.3344,-4.3344,-4.3344,-4.3344,-4.3344,-4.3344,-4.3344,-4.3344,-4.3488,-4.3927,-4.3927,-4.4004,-4.4297,-4.4586,-4.4297,-4.4098,-4.3546,-4.2842,-4.2584,-4.3198,-4.3982,-4.4922,-4.6096,-4.7342,-4.8366,-4.8748,-4.89,-4.8883,-4.8477,-4.7885,-4.7175,-4.6447,-4.5404,-4.3979,-4.3129,-4.2583,-4.2504,-4.2555,-4.1853,-4.1419,-4.1211,-4.1036,-4.0986,-4.1399,-4.1924,-4.2496,-4.2248,-4.2074,-4.2651,-4.3201,-4.3381,-4.3762,-4.4125,-4.4255,-4.4434,-4.4434,-4.4193,-4.3328,-4.1714,-3.9444,-3.7761,-3.636,-3.4826,-3.3382,-3.253,-3.1782,-3.084,-2.9859,-2.9795,-2.9779,-2.9779,-2.9804,-2.9892,-3.019,-3.0691,-3.0809,-3.0578,-3.0411,-3.0194,-2.9961,-2.9864,-2.988,-2.9842,-2.9804,-2.9842,-2.9905,-2.9867,-2.9546,-2.9611,-2.9599,-2.9749,-2.9708,-4.4792,-4.3629,-4.3614,-4.3494,-4.3344,-4.3344,-4.3344,-4.3344,-4.3344,-4.3344,-4.3344,-4.3344,-4.3344,-4.3344,-4.3344,-4.3344,-4.3344,-4.3344,-4.3344,-4.3344,-4.3344,-4.3344,-4.3344,-4.3344,-4.3344,-4.3344,-4.3344,-4.3344,-4.3344,-4.3344,-4.3344,-4.3409,-4.3708,-4.3849,-4.422,-4.4586,-4.4297,-4.4066,-4.3912,-4.3542,-4.3202,-4.297,-4.3884,-4.5007,-4.5562,-4.6757,-4.8142,-4.8736,-4.9018,-4.9018,-4.9018,-4.8663,-4.7953,-4.7175,-4.6346,-4.506,-4.4394,-4.4064,-4.3856,-4.3798,-4.3889,-4.4062,-4.3722,-4.3558,-4.3202,-4.2778,-4.2752,-4.3158,-4.3386,-4.331,-4.3251,-4.3706,-4.4006,-4.4196,-4.444,-4.4514,-4.457,-4.457,-4.4536,-4.3759,-4.2896,-4.0901,-3.8631,-3.7033,-3.5633,-3.4137,-3.2969,-3.2136,-3.1224,-3.0292,-2.9882,-2.9792,-2.9817,-2.9817,-3.0005,-3.0118,-3.0465,-3.076,-3.0979,-3.1317,-3.1567,-3.1221,-3.0315,-2.9986,-3.0165,-3.0068,-2.9817,-2.9967,-3.0331,-2.9502,-2.9118,-2.9275,-2.9378,-2.9406,-2.8998,-4.5597,-4.4541,-4.4711,-4.4741,-4.4495,-4.4479,-4.4374,-4.4215,-4.3593,-4.3344,-4.3344,-4.3344,-4.3344,-4.3344,-4.3344,-4.3344,-4.3344,-4.3344,-4.3344,-4.3344,-4.3344,-4.3344,-4.3344,-4.3344,-4.3344,-4.3344,-4.3344,-4.3344,-4.3344,-4.3344,-4.3344,-4.3344,-4.3344,-4.363,-4.4004,-4.3989,-4.3849,-4.3693,-4.363,-4.3551,-4.3488,-4.3409,-4.454,-4.5746,-4.6173,-4.7306,-4.8736,-4.9001,-4.9018,-4.9018,-4.9018,-4.8849,-4.8156,-4.7411,-4.6413,-4.5246,-4.4722,-4.4564,-4.4367,-4.444,-4.4857,-4.5026,-4.4891,-4.4983,-4.4691,-4.4347,-4.4357,-4.4522,-4.4485,-4.4497,-4.4553,-4.457,-4.457,-4.457,-4.457,-4.457,-4.457,-4.457,-4.4057,-4.333,-4.1782,-3.9774,-3.7933,-3.642,-3.5317,-3.4621,-3.3508,-3.216,-3.1189,-3.01,-2.9845,-2.9792,-2.9829,-2.988,-3.0093,-3.0486,-3.0922,-3.1348,-3.1542,-3.1978,-3.2498,-3.2174,-3.1135,-3.0766,-3.0641,-3.049,-3.0365,-3.0658,-3.0778,-2.9782,-2.8919,-2.8819,-2.8796,-2.8548,-2.7953,-4.6781,-4.615,-4.6821,-4.6518,-4.6221,-4.6032,-4.5981,-4.5664,-4.4417,-4.3578,-4.3528,-4.3359,-4.3344,-4.3344,-4.3344,-4.3344,-4.3344,-4.3344,-4.3344,-4.3344,-4.3344,-4.3344,-4.3344,-4.3344,-4.3344,-4.3344,-4.3344,-4.3344,-4.3329,-4.3488,-4.363,-4.3329,-4.3344,-4.3488,-4.3488,-4.3551,-4.3488,-4.3472,-4.3771,-4.3927,-4.3566,-4.363,-4.4266,-4.5818,-4.6539,-4.7188,-4.8513,-4.9018,-4.9018,-4.9018,-4.9001,-4.8968,-4.8342,-4.7733,-4.6667,-4.5805,-4.5111,-4.4756,-4.4637,-4.457,-4.4688,-4.4756,-4.4654,-4.5206,-4.526,-4.4858,-4.4744,-4.5122,-4.5128,-4.4688,-4.457,-4.457,-4.457,-4.457,-4.457,-4.457,-4.457,-4.4429,-4.3933,-4.3066,-4.1671,-3.9674,-3.8247,-3.6854,-3.6186,-3.5527,-3.4646,-3.3073,-3.2205,-3.1039,-3.0838,-3.0778,-3.0842,-3.1034,-3.0648,-3.1042,-3.1554,-3.1915,-3.2172,-3.2407,-3.2816,-3.2472,-3.1888,-3.1549,-3.1223,-3.1242,-3.116,-3.1385,-3.1091,-2.9738,-2.8935,-2.8494,-2.8174,-2.7674,-2.7166,-4.6961,-4.6189,-4.6365,-4.6317,-4.6189,-4.6173,-4.6518,-4.6834,-4.6576,-4.5448,-4.4213,-4.3599,-4.3438,-4.3626,-4.3503,-4.3423,-4.3468,-4.3503,-4.3344,-4.3488,-4.3472,-4.3771,-4.3438,-4.3642,-4.3468,-4.3344,-4.3344,-4.3533,-4.3708,-4.4004,-4.4004,-4.3409,-4.3374,-4.3434,-4.3344,-4.3344,-4.3344,-4.3329,-4.3566,-4.3708,-4.3409,-4.4143,-4.5079,-4.6119,-4.6815,-4.7655,-4.8719,-4.9018,-4.9018,-4.9018,-4.9018,-4.8714,-4.8156,-4.78,-4.6989,-4.5974,-4.5551,-4.5213,-4.4823,-4.4739,-4.4891,-4.5026,-4.5094,-4.5314,-4.5297,-4.4857,-4.484,-4.5331,-4.5399,-4.4891,-4.457,-4.457,-4.457,-4.457,-4.457,-4.457,-4.457,-4.4198,-4.3769,-4.2643,-4.1451,-4.0054,-3.8565,-3.7582,-3.7014,-3.6447,-3.5938,-3.5125,-3.4836,-3.4085,-3.3666,-3.3532,-3.2907,-3.2725,-3.2067,-3.1757,-3.2397,-3.2581,-3.2782,-3.2954,-3.3051,-3.2764,-3.2369,-3.2092,-3.1877,-3.1589,-3.1586,-3.2152,-3.1565,-2.9764,-2.8496,-2.7866,-2.689,-2.6256,-2.5994,-4.7933,-4.744,-4.744,-4.7456,-4.7456,-4.7456,-4.7632,-4.7874,-4.7886,-4.7276,-4.6098,-4.5418,-4.5063,-4.4833,-4.4358,-4.4278,-4.4308,-4.4096,-4.4112,-4.4066,-4.4435,-4.4675,-4.4541,-4.4433,-4.4508,-4.4415,-4.44,-4.451,-4.4618,-4.4757,-4.4757,-4.4048,-4.3874,-4.3584,-4.3419,-4.3344,-4.3344,-4.3344,-4.3344,-4.3329,-4.3409,-4.4282,-4.5211,-4.6173,-4.7088,-4.8015,-4.8656,-4.9018,-4.9018,-4.9018,-4.9018,-4.89,-4.8477,-4.8088,-4.7344,-4.6599,-4.6126,-4.5872,-4.5331,-4.5145,-4.528,-4.5415,-4.5077,-4.5111,-4.5449,-4.506,-4.4671,-4.5043,-4.501,-4.4587,-4.457,-4.457,-4.457,-4.457,-4.457,-4.457,-4.4384,-4.3997,-4.338,-4.234,-4.1086,-3.9749,-3.8473,-3.7436,-3.701,-3.7168,-3.6737,-3.6858,-3.6707,-3.6444,-3.6244,-3.5942,-3.5164,-3.446,-3.3878,-3.3515,-3.3485,-3.3545,-3.3352,-3.3233,-3.3085,-3.3115,-3.2924,-3.2277,-3.1806,-3.1479,-3.1685,-3.1877,-3.0754,-2.8776,-2.778,-2.7031,-2.6023,-2.5345,-2.552,-4.894,-4.9018,-4.9001,-4.9001,-4.9001,-4.9001,-4.8932,-4.8812,-4.8827,-4.8797,-4.8514,-4.7916,-4.7668,-4.6916,-4.6134,-4.6041,-4.5968,-4.5768,-4.5503,-4.5649,-4.6133,-4.6133,-4.604,-4.6127,-4.6077,-4.6093,-4.615,-4.6103,-4.6119,-4.5929,-4.5394,-4.4862,-4.4339,-4.3898,-4.3509,-4.3344,-4.3344,-4.3344,-4.3344,-4.3344,-4.3708,-4.4297,-4.5211,-4.6189,-4.7088,-4.7998,-4.8719,-4.9018,-4.9018,-4.9018,-4.9018,-4.8951,-4.8815,-4.8426,-4.78,-4.7158,-4.6938,-4.6532,-4.6041,-4.5855,-4.5872,-4.572,-4.5111,-4.5077,-4.5534,-4.528,-4.4891,-4.4925,-4.4891,-4.4654,-4.4637,-4.4637,-4.4637,-4.4604,-4.4604,-4.4406,-4.4047,-4.368,-4.2876,-4.1933,-4.0704,-3.9428,-3.8599,-3.7605,-3.7476,-3.7674,-3.7833,-3.8121,-3.8192,-3.7952,-3.7752,-3.752,-3.6997,-3.6365,-3.5613,-3.5233,-3.494,-3.3809,-3.356,-3.3344,-3.3116,-3.3148,-3.278,-3.2019,-3.1523,-3.1121,-3.0789,-3.0775,-2.9309,-2.784,-2.7055,-2.6428,-2.6059,-2.5503,-2.5592,-4.9018,-4.9018,-4.9018,-4.9018,-4.9018,-4.9018,-4.9282,-4.9746,-4.9813,-5.0087,-5.0192,-4.9809,-4.9143,-4.8191,-4.7981,-4.785,-4.7802,-4.7611,-4.769,-4.7901,-4.7958,-4.7589,-4.7445,-4.7782,-4.785,-4.7901,-4.7846,-4.7696,-4.7308,-4.6573,-4.5662,-4.4918,-4.3925,-4.3509,-4.3434,-4.3344,-4.3344,-4.3265,-4.317,-4.3076,-4.3457,-4.4113,-4.5196,-4.6189,-4.7104,-4.8015,-4.8736,-4.9001,-4.9018,-4.9018,-4.894,-4.8877,-4.8731,-4.8483,-4.79,-4.729,-4.7167,-4.6848,-4.6384,-4.6032,-4.5949,-4.6143,-4.5723,-4.5816,-4.5908,-4.5483,-4.5449,-4.5906,-4.572,-4.5026,-4.4891,-4.4857,-4.484,-4.4739,-4.4649,-4.4013,-4.3488,-4.2965,-4.2283,-4.1314,-4.027,-3.9561,-3.9249,-3.868,-3.868,-3.8781,-3.8751,-3.8957,-3.8897,-3.9017,-3.899,-3.8746,-3.8412,-3.7987,-3.7128,-3.6874,-3.6395,-3.4942,-3.3719,-3.35,-3.324,-3.3167,-3.2649,-3.2028,-3.1086,-3.036,-3.0057,-2.9546,-2.8263,-2.6996,-2.64,-2.5868,-2.5703,-2.5684,-2.5741]},{"header":{"parameterUnit":"m.s-1","parameterCategory":1,"la1":31.0,"la2":29.5877,"lo1":-88.7671,"lo2":-86.6584,"dy":0.0162,"dx":0.0185,"nx":115,"ny":88,"refTime":"2023-06-12T06:00:00:Z","depth":0,"parameterNumber":3,"parameterNumberName":"V-component_of_WINDS"},"data":[0.0,0.0,0.0,0.0,0.0,0.0,0.0,0.0,0.0,0.0,0.0,0.0,0.0,0.0,0.0,0.0,0.0,0.0,0.0,0.0,0.0,0.0,0.0,0.0,0.0,0.0,0.0,0.0,0.0,0.0,0.0,0.0,0.0,0.0,0.0,0.0,0.0,0.0,0.0,0.0,0.0,0.0,0.0,0.0,0.0,0.0,0.0,0.0,0.0,0.0,0.0,0.0,0.0,0.0,0.0,0.0,0.0,0.0,0.0,0.0,0.0,0.0,0.0,0.0,0.0,0.0,0.0,0.0,0.0,0.0,0.0,0.0,0.0,0.0,0.0,0.0,0.0,0.0,0.0,0.0,0.0,0.0,0.0,0.0,0.0,0.0,0.0,0.0,0.0,0.0,0.0,0.0,0.0,0.0,0.0,0.0,0.0,0.0,0.0,0.0,0.0,0.0,0.0,0.0,0.0,0.0,0.0,0.0,0.0,0.0,0.0,0.0,0.0,0.0,0.0,0.0,0.0,0.0,0.0,0.0,0.0,0.0,0.0,0.0,0.0,0.0,0.0,0.0,0.0,0.0,0.0,0.0,0.0,0.0,0.0,0.0,0.0,0.0,0.0,0.0,0.0,0.0,0.0,0.0,0.0,0.0,0.0,0.0,0.0,0.0,0.0,0.0,0.0,0.0,0.0,0.0,0.0,0.0,0.0,0.0,0.0,0.0,0.0,0.0,0.0,0.0,0.0,0.0,0.0,0.0,0.0,0.0,0.0,0.0,0.0,0.0,0.0,0.0,0.0,0.0,0.0,0.0,0.0,0.0,0.0,0.0,0.0,0.0,0.0,0.0,0.0,0.0,0.0,0.0,0.0,0.0,0.0,0.0,0.0,0.0,0.0,0.0,0.0,0.0,0.0,0.0,0.0,0.0,0.0,0.0,0.0,0.0,0.0,0.0,0.0,0.0,0.0,0.0,0.0,0.0,0.0,0.0,0.0,0.0,0.0,0.0,0.0,0.0,0.0,0.0,0.0,0.0,0.0,0.0,0.0,0.0,0.0,0.0,0.0,0.0,0.0,0.0,0.0,0.0,0.0,0.0,0.0,0.0,0.0,0.0,0.0,0.0,0.0,0.0,0.0,0.0,0.0,0.0,0.0,0.0,0.0,0.0,0.0,0.0,0.0,0.0,0.0,0.0,0.0,0.0,0.0,0.0,0.0,0.0,0.0,0.0,0.0,0.0,0.0,0.0,0.0,0.0,0.0,0.0,0.0,0.0,0.0,0.0,0.0,0.0,0.0,0.0,0.0,0.0,0.0,0.0,0.0,0.0,0.0,0.0,0.0,0.0,0.0,0.0,0.0,0.0,0.0,0.0,0.0,0.0,0.0,0.0,0.0,0.0,0.0,0.0,0.0,0.0,0.0,0.0,0.0,0.0,0.0,0.0,0.0,0.0,0.0,0.0,0.0,0.0,0.0,0.0,0.0,0.0,0.0,0.0,0.0,0.0,0.0,0.0,0.0,0.0,0.0,0.0,0.0,0.0,0.0,0.0,0.0,0.0,0.0,0.0,0.0,0.0,0.0,0.0,0.0,0.0,0.0,0.0,0.0,0.0,0.0,0.0,0.0,0.0,0.0,0.0,0.0,0.0,0.0,0.0,0.0,0.0,0.0,0.0,0.0,0.0,0.0,0.0,0.0,0.0,0.0,0.0,0.0,0.0,0.0,0.0,0.0,0.0,0.0,0.0,0.0,0.0,0.0,0.0,0.0,0.0,0.0,0.0,0.0,0.0,0.0,0.0,0.0,0.0,0.0,0.0,0.0,0.0,0.0,0.0,0.0,0.0,0.0,0.0,0.0,0.0,0.0,0.0,0.0,0.0,0.0,0.0,0.0,0.0,0.0,0.0,0.0,0.0,0.0,0.0,0.0,0.0,0.0,0.0,0.0,0.0,0.0,0.0,0.0,0.0,0.0,0.0,0.0,0.0,0.0,0.0,0.0,0.0,0.0,0.0,0.0,0.0,0.0,0.0,0.0,0.0,0.0,0.0,0.0,0.0,0.0,0.0,0.0,0.0,0.0,0.0,0.0,0.0,0.0,0.0,0.0,0.0,0.0,0.0,0.0,0.0,0.0,0.0,0.0,0.0,0.0,0.0,0.0,0.0,0.0,0.0,0.0,0.0,0.0,0.0,0.0,0.0,0.0,0.0,0.0,0.0,0.0,0.0,0.0,0.0,0.0,0.0,0.0,0.0,0.0,0.0,0.0,0.0,0.0,0.0,0.0,0.0,0.0,0.0,0.0,0.0,0.0,0.0,0.0,0.0,0.0,0.0,0.0,0.0,0.0,0.0,0.0,0.0,0.0,0.0,0.0,0.0,0.0,0.0,0.0,0.0,0.0,0.0,0.0,0.0,0.0,0.0,0.0,0.0,0.0,0.0,0.0,0.0,0.0,0.0,0.0,0.0,0.0,0.0,0.0,0.0,0.0,0.0,0.0,0.0,0.0,0.0,0.0,0.0,0.0,0.0,0.0,0.0,0.0,0.0,0.0,0.0,0.0,0.0,0.0,0.0,0.0,0.0,0.0,0.0,0.0,0.0,0.0,0.0,0.0,0.0,0.0,0.0,0.0,0.0,0.0,0.0,0.0,0.0,0.0,0.0,0.0,0.0,0.0,0.0,0.0,0.0,0.0,0.0,0.0,0.0,0.0,0.0,0.0,0.0,0.0,0.0,0.0,0.0,0.0,0.0,0.0,0.0,0.0,0.0,0.0,0.0,0.0,0.0,0.0,0.0,0.0,0.0,0.0,0.0,0.0,0.0,0.0,0.0,0.0,0.0,0.0,0.0,0.0,0.0,0.0,0.0,0.0,0.0,0.0,0.0,0.0,0.0,0.0,0.0,0.0,0.0,0.0,0.0,0.0,0.0,0.0,0.0,0.0,0.0,0.0,0.0,0.0,0.0,0.0,0.0,0.0,0.0,0.0,0.0,0.0,0.0,0.0,0.0,0.0,0.0,0.0,0.0,0.0,0.0,0.0,0.0,0.0,0.0,0.0,0.0,0.0,0.0,0.0,0.0,0.0,0.0,0.0,0.0,0.0,0.0,0.0,0.0,0.0,0.0,0.0,0.0,0.0,0.0,0.0,0.0,0.0,0.0,0.0,0.0,0.0,0.0,0.0,0.0,0.0,0.0,0.0,0.0,0.0,0.0,0.0,0.0,0.0,0.0,0.0,0.0,0.0,0.0,0.0,0.0,0.0,0.0,0.0,0.0,0.0,0.0,0.0,0.0,0.0,0.0,0.0,0.0,0.0,0.0,0.0,0.0,0.0,0.0,0.0,0.0,0.0,0.0,0.0,0.0,0.0,0.0,0.0,0.0,0.0,0.0,0.0,0.0,0.0,0.0,0.0,0.0,0.0,0.0,0.0,0.0,0.0,0.0,0.0,0.0,0.0,0.0,0.0,0.0,0.0,0.0,0.0,0.0,0.0,0.0,0.0,0.0,0.0,0.0,0.0,0.0,0.0,0.0,0.0,0.0,0.0,0.0,0.0,0.0,0.0,0.0,0.0,0.0,0.0,0.0,0.0,0.0,0.0,0.0,0.0,0.0,0.0,0.0,0.0,0.0,0.0,0.0,0.0,0.0,0.0,0.0,0.0,0.0,0.0,0.0,0.0,0.0,0.0,0.0,0.0,0.0,0.0,0.0,0.0,0.0,0.0,0.0,0.0,0.0,0.0,0.0,0.0,0.0,0.0,0.0,0.0,0.0,0.0,0.0,0.0,0.0,0.0,0.0,0.0,0.0,0.0,0.0,0.0,0.0,0.0,0.0,0.0,0.0,0.0,0.0,0.0,0.0,0.0,0.0,0.0,0.0,0.0,0.0,0.0,0.0,0.0,0.0,0.0,0.0,0.0,0.0,0.0,0.0,0.0,0.0,0.0,0.0,0.0,0.0,0.0,0.0,0.0,0.0,0.0,0.0,0.0,0.0,0.0,0.0,0.0,0.0,0.0,0.0,0.0,0.0,0.0,0.0,0.0,0.0,0.0,0.0,0.0,0.0,0.0,0.0,0.0,0.0,0.0,0.0,0.0,0.0,0.0,0.0,0.0,0.0,0.0,0.0,0.0,0.0,0.0,0.0,0.0,0.0,0.0,0.0,0.0,0.0,0.0,0.0,0.0,0.0,0.0,0.0,0.0,0.0,0.0,0.0,0.0,0.0,0.0,0.0,0.0,0.0,0.0,0.0,0.0,0.0,0.0,0.0,0.0,0.0,0.0,0.0,0.0,0.0,-1.4541,0.0,0.0,0.0,0.0,0.0,0.0,0.0,0.0,0.0,0.0,0.0,0.0,0.0,0.0,0.0,0.0,0.0,0.0,0.0,0.0,0.0,0.0,0.0,0.0,0.0,0.0,0.0,0.0,0.0,0.0,0.0,0.0,0.0,0.0,0.0,0.0,0.0,0.0,0.0,0.0,0.0,0.0,0.0,0.0,0.0,0.0,0.0,0.0,0.0,0.0,0.0,0.0,0.0,0.0,0.0,0.0,0.0,0.0,0.0,0.0,0.0,0.0,0.0,0.0,0.0,0.0,0.0,0.0,0.0,0.0,0.0,0.0,0.0,0.0,0.0,0.0,0.0,0.0,0.0,0.0,0.0,0.0,0.0,0.0,0.0,0.0,0.0,0.0,0.0,0.0,0.0,0.0,0.0,0.0,0.0,0.0,0.0,0.0,0.0,0.0,0.0,0.0,0.0,0.0,0.0,0.0,0.0,0.0,0.0,0.0,-1.3904,-1.4595,-1.3675,-1.3642,-1.4703,0.0,0.0,0.0,0.0,0.0,0.0,0.0,0.0,0.0,0.0,0.0,0.0,0.0,0.0,0.0,0.0,0.0,0.0,0.0,0.0,0.0,0.0,0.0,0.0,0.0,0.0,0.0,0.0,0.0,0.0,0.0,0.0,0.0,0.0,0.0,0.0,0.0,0.0,0.0,0.0,0.0,0.0,0.0,0.0,0.0,0.0,0.0,0.0,0.0,0.0,0.0,0.0,0.0,0.0,0.0,0.0,0.0,0.0,0.0,0.0,0.0,0.0,0.0,0.0,0.0,0.0,0.0,0.0,0.0,0.0,0.0,0.0,0.0,0.0,0.0,0.0,0.0,0.0,0.0,0.0,0.0,0.0,0.0,0.0,0.0,0.0,0.0,0.0,0.0,0.0,0.0,0.0,0.0,0.0,0.0,0.0,0.0,0.0,0.0,0.0,0.0,0.0,0.0,0.0,0.0,0.0,0.0,0.0,0.0,0.0,0.0,0.0,-1.4288,-1.4211,-1.5184,0.0,0.0,0.0,0.0,0.0,0.0,0.0,0.0,0.0,0.0,0.0,0.0,0.0,0.0,0.0,0.0,0.0,0.0,0.0,0.0,0.0,0.0,0.0,0.0,0.0,0.0,0.0,0.0,0.0,0.0,0.0,0.0,0.0,0.0,0.0,0.0,0.0,0.0,0.0,0.0,0.0,0.0,0.0,0.0,0.0,0.0,0.0,0.0,0.0,0.0,0.0,0.0,0.0,0.0,0.0,0.0,0.0,0.0,0.0,0.0,0.0,0.0,0.0,0.0,0.0,0.0,0.0,0.0,0.0,0.0,0.0,0.0,0.0,0.0,0.0,0.0,0.0,0.0,0.0,0.0,0.0,0.0,0.0,0.0,0.0,0.0,0.0,0.0,0.0,0.0,0.0,0.0,0.0,0.0,0.0,0.0,0.0,0.0,0.0,0.0,0.0,0.0,0.0,0.0,0.0,0.0,0.0,0.0,0.0,0.0,-1.5719,-1.7278,-1.724,0.0,-1.7086,0.0,0.0,0.0,0.0,0.0,0.0,0.0,0.0,0.0,0.0,0.0,0.0,0.0,0.0,0.0,0.0,0.0,0.0,0.0,0.0,0.0,0.0,0.0,0.0,0.0,0.0,0.0,0.0,0.0,0.0,0.0,0.0,0.0,0.0,0.0,0.0,0.0,0.0,0.0,0.0,0.0,0.0,0.0,0.0,0.0,0.0,0.0,0.0,0.0,0.0,0.0,0.0,0.0,0.0,0.0,0.0,0.0,0.0,0.0,0.0,0.0,0.0,0.0,0.0,0.0,0.0,0.0,0.0,0.0,0.0,0.0,0.0,0.0,0.0,0.0,0.0,0.0,0.0,0.0,0.0,0.0,0.0,0.0,0.0,0.0,0.0,0.0,0.0,0.0,0.0,0.0,0.0,0.0,0.0,0.0,0.0,0.0,0.0,0.0,0.0,0.0,0.0,0.0,0.0,0.0,0.0,0.0,0.0,0.0,0.0,-1.5876,-1.7615,-1.7202,-1.656,0.0,0.0,0.0,0.0,0.0,0.0,0.0,0.0,0.0,0.0,0.0,0.0,0.0,0.0,0.0,0.0,0.0,0.0,0.0,0.0,0.0,0.0,0.0,0.0,0.0,0.0,0.0,0.0,0.0,0.0,0.0,0.0,0.0,0.0,0.0,0.0,0.0,0.0,0.0,0.0,0.0,0.0,0.0,0.0,0.0,0.0,0.0,0.0,0.0,0.0,0.0,0.0,0.0,0.0,0.0,0.0,0.0,0.0,0.0,0.0,0.0,0.0,0.0,0.0,0.0,0.0,0.0,0.0,0.0,0.0,0.0,0.0,0.0,0.0,0.0,0.0,0.0,0.0,0.0,0.0,0.0,0.0,0.0,0.0,0.0,0.0,0.0,0.0,0.0,0.0,0.0,0.0,0.0,0.0,0.0,0.0,0.0,0.0,0.0,0.0,0.0,0.0,0.0,0.0,0.0,0.0,0.0,0.0,0.0,0.0,-1.6006,-1.6526,-1.8088,-1.6728,-1.5696,-1.5249,0.0,0.0,0.0,0.0,0.0,0.0,0.0,0.0,0.0,0.0,0.0,0.0,0.0,0.0,0.0,0.0,0.0,0.0,0.0,0.0,0.0,0.0,0.0,0.0,0.0,0.0,0.0,0.0,0.0,0.0,0.0,0.0,0.0,0.0,0.0,0.0,0.0,0.0,0.0,0.0,0.0,0.0,0.0,0.0,0.0,0.0,0.0,0.0,0.0,0.0,0.0,0.0,0.0,0.0,0.0,0.0,0.0,0.0,0.0,0.0,0.0,0.0,0.0,0.0,0.0,0.0,0.0,0.0,0.0,0.0,0.0,0.0,0.0,0.0,0.0,0.0,0.0,0.0,0.0,0.0,0.0,0.0,0.0,0.0,0.0,0.0,0.0,0.0,0.0,0.0,0.0,0.0,0.0,0.0,0.0,0.0,0.0,0.0,0.0,0.0,0.0,0.0,0.0,0.0,0.0,0.0,0.0,0.0,-1.9507,-1.8165,-1.8115,-1.9468,-1.644,-1.5341,0.0,0.0,0.0,0.0,0.0,0.0,0.0,0.0,0.0,0.0,0.0,0.0,0.0,0.0,0.0,0.0,0.0,0.0,0.0,0.0,0.0,0.0,0.0,0.0,0.0,0.0,0.0,0.0,0.0,0.0,0.0,0.0,0.0,0.0,0.0,0.0,0.0,0.0,0.0,0.0,0.0,0.0,0.0,0.0,0.0,0.0,0.0,0.0,0.0,0.0,0.0,0.0,0.0,0.0,0.0,0.0,0.0,0.0,0.0,0.0,0.0,0.0,0.0,0.0,0.0,0.0,0.0,0.0,0.0,0.0,0.0,0.0,0.0,0.0,0.0,0.0,0.0,0.0,0.0,0.0,0.0,0.0,0.0,0.0,0.0,0.0,0.0,0.0,0.0,0.0,0.0,0.0,0.0,0.0,0.0,0.0,0.0,0.0,0.0,0.0,0.0,0.0,0.0,0.0,0.0,0.0,0.0,0.0,0.0,-1.6687,-1.7179,-1.721,-1.679,-1.6149,-1.5944,0.0,0.0,0.0,0.0,0.0,0.0,0.0,0.0,0.0,0.0,0.0,0.0,0.0,0.0,0.0,0.0,0.0,0.0,0.0,0.0,0.0,0.0,0.0,0.0,0.0,0.0,0.0,0.0,0.0,0.0,0.0,0.0,0.0,0.0,0.0,0.0,0.0,0.0,0.0,0.0,0.0,0.0,0.0,0.0,0.0,0.0,0.0,0.0,0.0,0.0,0.0,0.0,0.0,0.0,0.0,0.0,0.0,0.0,0.0,0.0,0.0,0.0,0.0,0.0,0.0,0.0,0.0,0.0,0.0,0.0,0.0,0.0,0.0,0.0,0.0,0.0,0.0,0.0,0.0,0.0,0.0,0.0,0.0,0.0,0.0,0.0,0.0,0.0,0.0,0.0,0.0,0.0,0.0,0.0,0.0,0.0,0.0,0.0,0.0,0.0,0.0,0.0,0.0,0.0,0.0,0.0,0.0,0.0,0.0,-1.5639,0.0,-1.6996,-1.5669,-1.5796,-1.568,0.0,0.0,0.0,0.0,0.0,0.0,0.0,0.0,0.0,0.0,0.0,0.0,0.0,0.0,0.0,0.0,0.0,0.0,0.0,0.0,0.0,0.0,0.0,0.0,0.0,0.0,0.0,0.0,0.0,0.0,0.0,0.0,0.0,0.0,0.0,0.0,0.0,0.0,0.0,0.0,0.0,0.0,0.0,0.0,0.0,0.0,0.0,0.0,0.0,0.0,0.0,0.0,0.0,0.0,0.0,0.0,0.0,0.0,0.0,0.0,0.0,0.0,0.0,0.0,0.0,0.0,0.0,0.0,0.0,0.0,0.0,0.0,0.0,0.0,0.0,0.0,0.0,0.0,0.0,0.0,0.0,0.0,0.0,0.0,0.0,0.0,0.0,0.0,0.0,0.0,0.0,0.0,0.0,0.0,0.0,0.0,0.0,0.0,0.0,0.0,0.0,0.0,0.0,0.0,0.0,0.0,0.0,0.0,-1.6434,-1.7027,-1.7739,-1.7564,-1.6627,-1.5398,-1.4511,0.0,0.0,0.0,0.0,0.0,0.0,0.0,0.0,0.0,0.0,0.0,0.0,0.0,0.0,0.0,0.0,0.0,0.0,0.0,0.0,0.0,0.0,0.0,0.0,0.0,0.0,0.0,0.0,0.0,0.0,0.0,0.0,0.0,0.0,0.0,0.0,0.0,0.0,0.0,0.0,0.0,0.0,0.0,0.0,0.0,0.0,0.0,0.0,0.0,0.0,0.0,0.0,0.0,0.0,0.0,0.0,0.0,0.0,0.0,0.0,0.0,0.0,0.0,0.0,0.0,0.0,0.0,0.0,0.0,0.0,0.0,0.0,0.0,0.0,0.0,0.0,0.0,0.0,0.0,0.0,0.0,0.0,0.0,0.0,0.0,0.0,0.0,0.0,0.0,0.0,0.0,0.0,0.0,0.0,0.0,0.0,0.0,0.0,0.0,0.0,0.0,0.0,0.0,0.0,0.0,0.0,0.0,0.0,0.0,-1.5706,-1.5396,-1.6054,-1.7538,-1.5562,-1.5358,0.0,0.0,0.0,0.0,0.0,0.0,0.0,0.0,0.0,0.0,0.0,0.0,0.0,0.0,0.0,0.0,0.0,0.0,0.0,0.0,0.0,0.0,0.0,0.0,0.0,0.0,0.0,0.0,0.0,0.0,0.0,0.0,0.0,0.0,0.0,0.0,0.0,0.0,0.0,0.0,0.0,0.0,0.0,0.0,0.0,0.0,0.0,0.0,0.0,0.0,0.0,0.0,0.0,0.0,0.0,0.0,0.0,0.0,0.0,0.0,0.0,0.0,0.0,0.0,0.0,0.0,0.0,0.0,0.0,0.0,0.0,0.0,0.0,0.0,0.0,0.0,0.0,0.0,0.0,0.0,0.0,0.0,0.0,0.0,0.0,0.0,0.0,0.0,0.0,0.0,0.0,0.0,0.0,0.0,0.0,0.0,0.0,0.0,0.0,0.0,0.0,0.0,0.0,0.0,0.0,0.0,0.0,0.0,0.0,-1.5919,-1.5325,-1.5575,-1.6758,-1.5365,-1.5422,-1.7167,0.0,0.0,0.0,0.0,0.0,0.0,0.0,0.0,0.0,0.0,0.0,0.0,0.0,0.0,0.0,0.0,0.0,0.0,0.0,0.0,0.0,0.0,0.0,0.0,0.0,0.0,0.0,0.0,0.0,0.0,0.0,0.0,0.0,0.0,0.0,0.0,0.0,0.0,0.0,0.0,0.0,0.0,0.0,0.0,0.0,0.0,0.0,0.0,0.0,0.0,0.0,0.0,0.0,0.0,0.0,0.0,0.0,0.0,0.0,0.0,0.0,0.0,0.0,0.0,0.0,0.0,0.0,0.0,0.0,0.0,0.0,0.0,0.0,0.0,0.0,0.0,0.0,0.0,0.0,0.0,0.0,0.0,0.0,0.0,0.0,0.0,0.0,0.0,0.0,0.0,0.0,0.0,0.0,0.0,0.0,0.0,0.0,0.0,0.0,0.0,0.0,0.0,0.0,0.0,0.0,0.0,0.0,0.0,-1.7361,-1.7132,-1.6297,-1.4849,-1.5031,-1.4978,0.0,0.0,0.0,0.0,0.0,0.0,0.0,0.0,0.0,0.0,0.0,0.0,0.0,0.0,0.0,0.0,0.0,0.0,0.0,0.0,0.0,0.0,0.0,0.0,0.0,0.0,0.0,0.0,0.0,0.0,0.0,0.0,0.0,0.0,0.0,0.0,0.0,0.0,0.0,0.0,0.0,0.0,0.0,0.0,0.0,0.0,0.0,0.0,0.0,0.0,0.0,0.0,0.0,0.0,0.0,0.0,0.0,0.0,0.0,0.0,0.0,0.0,0.0,0.0,0.0,0.0,0.0,0.0,0.0,0.0,0.0,0.0,0.0,0.0,0.0,0.0,0.0,0.0,0.0,0.0,0.0,0.0,0.0,0.0,0.0,0.0,0.0,0.0,0.0,0.0,0.0,0.0,0.0,0.0,0.0,0.0,0.0,0.0,0.0,0.0,0.0,0.0,0.0,0.0,0.0,0.0,0.0,0.0,0.0,-1.8006,-1.825,-1.8306,-1.8128,-1.6571,-1.6332,0.0,0.0,0.0,0.0,0.0,0.0,0.0,0.0,0.0,0.0,0.0,0.0,0.0,0.0,0.0,0.0,0.0,0.0,0.0,0.0,0.0,0.0,0.0,0.0,0.0,0.0,0.0,0.0,0.0,0.0,0.0,0.0,0.0,0.0,0.0,0.0,0.0,0.0,0.0,0.0,0.0,0.0,0.0,0.0,0.0,0.0,0.0,0.0,0.0,0.0,0.0,0.0,0.0,0.0,0.0,0.0,0.0,0.0,0.0,0.0,0.0,0.0,0.0,0.0,0.0,0.0,0.0,0.0,0.0,0.0,0.0,0.0,0.0,0.0,0.0,0.0,0.0,0.0,0.0,0.0,0.0,0.0,0.0,0.0,0.0,0.0,0.0,0.0,0.0,0.0,0.0,0.0,0.0,0.0,0.0,0.0,0.0,0.0,0.0,0.0,0.0,0.0,0.0,0.0,0.0,0.0,0.0,0.0,-1.972,-1.8815,-1.9448,-1.975,-1.9719,-1.7725,-1.6982,0.0,0.0,0.0,0.0,0.0,0.0,0.0,0.0,0.0,0.0,0.0,0.0,0.0,0.0,0.0,0.0,0.0,0.0,0.0,0.0,0.0,0.0,0.0,0.0,0.0,0.0,0.0,0.0,0.0,0.0,0.0,0.0,0.0,0.0,0.0,0.0,0.0,0.0,0.0,0.0,0.0,0.0,0.0,0.0,0.0,0.0,0.0,0.0,0.0,0.0,0.0,0.0,0.0,0.0,0.0,0.0,0.0,0.0,0.0,0.0,0.0,0.0,0.0,0.0,0.0,0.0,0.0,0.0,0.0,0.0,0.0,0.0,0.0,0.0,0.0,0.0,0.0,0.0,0.0,0.0,0.0,0.0,0.0,0.0,0.0,0.0,0.0,0.0,0.0,0.0,0.0,0.0,0.0,0.0,0.0,0.0,0.0,0.0,0.0,0.0,0.0,0.0,0.0,0.0,0.0,0.0,0.0,0.0,-2.023,-1.9587,-2.0499,-2.0671,-1.9997,-1.853,-1.7302,0.0,0.0,0.0,0.0,0.0,0.0,0.0,0.0,0.0,0.0,0.0,0.0,0.0,0.0,0.0,0.0,0.0,0.0,0.0,0.0,0.0,0.0,0.0,0.0,0.0,0.0,0.0,0.0,0.0,0.0,0.0,0.0,0.0,0.0,0.0,0.0,0.0,0.0,0.0,0.0,0.0,0.0,0.0,0.0,0.0,0.0,0.0,0.0,0.0,0.0,0.0,0.0,0.0,0.0,0.0,0.0,0.0,0.0,0.0,0.0,0.0,0.0,0.0,0.0,0.0,0.0,0.0,0.0,0.0,0.0,0.0,0.0,0.0,0.0,0.0,0.0,0.0,0.0,0.0,0.0,0.0,0.0,0.0,0.0,0.0,0.0,0.0,0.0,0.0,0.0,0.0,0.0,0.0,0.0,0.0,0.0,0.0,0.0,0.0,0.0,0.0,0.0,0.0,0.0,0.0,0.0,0.0,0.0,-1.9052,-1.9373,-2.043,-2.0655,-2.0013,-1.853,-1.774,0.0,0.0,0.0,0.0,0.0,0.0,0.0,0.0,0.0,0.0,0.0,0.0,0.0,0.0,0.0,0.0,0.0,0.0,0.0,0.0,0.0,0.0,0.0,0.0,0.0,0.0,0.0,0.0,0.0,0.0,0.0,0.0,0.0,0.0,0.0,0.0,0.0,0.0,0.0,0.0,0.0,0.0,0.0,0.0,0.0,0.0,0.0,0.0,-2.0162,0.0,0.0,0.0,0.0,0.0,0.0,0.0,0.0,0.0,0.0,0.0,0.0,0.0,0.0,0.0,0.0,0.0,0.0,0.0,0.0,0.0,0.0,0.0,0.0,0.0,0.0,0.0,0.0,0.0,0.0,0.0,0.0,0.0,0.0,0.0,0.0,0.0,0.0,0.0,0.0,0.0,0.0,0.0,0.0,0.0,0.0,0.0,0.0,0.0,0.0,0.0,0.0,0.0,0.0,0.0,0.0,0.0,0.0,0.0,-2.0017,-2.0551,-2.1,-2.1003,-2.0431,-1.8651,-1.7915,0.0,0.0,0.0,0.0,0.0,0.0,0.0,0.0,0.0,0.0,0.0,0.0,0.0,0.0,0.0,0.0,0.0,0.0,0.0,0.0,0.0,0.0,0.0,0.0,0.0,0.0,0.0,0.0,0.0,0.0,0.0,0.0,0.0,0.0,0.0,0.0,0.0,0.0,0.0,0.0,0.0,0.0,0.0,0.0,0.0,0.0,0.0,0.0,0.0,0.0,0.0,0.0,0.0,0.0,0.0,0.0,0.0,0.0,0.0,0.0,0.0,0.0,0.0,0.0,0.0,0.0,0.0,0.0,0.0,0.0,0.0,0.0,0.0,0.0,0.0,0.0,0.0,0.0,0.0,0.0,0.0,0.0,0.0,0.0,0.0,0.0,0.0,0.0,0.0,0.0,0.0,0.0,0.0,0.0,0.0,0.0,0.0,0.0,0.0,0.0,0.0,0.0,0.0,0.0,0.0,0.0,0.0,-2.1515,-2.1422,-2.2038,-2.182,-2.1513,-2.1133,-1.9092,-1.8305,-1.9046,0.0,0.0,0.0,0.0,0.0,0.0,0.0,0.0,0.0,0.0,0.0,0.0,0.0,0.0,0.0,0.0,0.0,0.0,0.0,0.0,0.0,0.0,0.0,0.0,0.0,0.0,0.0,0.0,0.0,0.0,0.0,0.0,0.0,0.0,0.0,0.0,0.0,0.0,-2.2562,-2.1316,0.0,0.0,0.0,0.0,0.0,0.0,0.0,0.0,-1.9206,0.0,0.0,0.0,0.0,0.0,0.0,0.0,0.0,0.0,0.0,0.0,0.0,0.0,0.0,0.0,0.0,0.0,0.0,0.0,0.0,0.0,0.0,0.0,0.0,0.0,0.0,0.0,0.0,0.0,0.0,0.0,0.0,0.0,0.0,0.0,0.0,0.0,0.0,0.0,0.0,0.0,0.0,0.0,0.0,0.0,0.0,0.0,0.0,0.0,0.0,0.0,0.0,0.0,0.0,0.0,0.0,-2.3196,-2.1291,-2.1,-2.2398,-2.2426,-2.2248,-2.1876,-2.0096,-1.9599,-2.0512,0.0,0.0,0.0,0.0,0.0,0.0,0.0,0.0,0.0,0.0,0.0,0.0,0.0,0.0,0.0,0.0,0.0,0.0,0.0,0.0,0.0,0.0,0.0,0.0,0.0,0.0,0.0,0.0,0.0,0.0,0.0,0.0,0.0,0.0,0.0,0.0,0.0,0.0,0.0,-2.071,-2.0492,0.0,0.0,0.0,0.0,0.0,0.0,0.0,0.0,-1.8765,0.0,0.0,0.0,0.0,0.0,0.0,0.0,0.0,0.0,0.0,0.0,0.0,0.0,0.0,0.0,0.0,0.0,0.0,0.0,0.0,0.0,0.0,0.0,0.0,0.0,0.0,0.0,0.0,0.0,0.0,0.0,0.0,0.0,0.0,0.0,0.0,0.0,0.0,0.0,0.0,0.0,0.0,0.0,0.0,0.0,0.0,0.0,0.0,0.0,0.0,0.0,0.0,0.0,0.0,0.0,-2.4041,-2.1692,-2.128,-2.3171,-2.3021,-2.2701,-2.2339,-2.0435,-1.9986,0.0,0.0,0.0,0.0,0.0,0.0,0.0,0.0,0.0,0.0,0.0,0.0,0.0,0.0,0.0,0.0,0.0,0.0,0.0,0.0,0.0,0.0,0.0,0.0,0.0,0.0,0.0,0.0,0.0,0.0,0.0,0.0,0.0,0.0,0.0,0.0,0.0,0.0,0.0,0.0,-2.1158,-2.0836,-1.9909,0.0,0.0,0.0,0.0,0.0,0.0,-1.8233,-1.8771,0.0,0.0,0.0,0.0,0.0,0.0,0.0,0.0,0.0,0.0,0.0,0.0,0.0,0.0,0.0,0.0,0.0,0.0,0.0,0.0,0.0,0.0,0.0,0.0,0.0,0.0,0.0,0.0,0.0,0.0,0.0,0.0,0.0,0.0,0.0,0.0,0.0,0.0,0.0,0.0,0.0,0.0,0.0,0.0,0.0,0.0,0.0,0.0,0.0,0.0,0.0,0.0,0.0,0.0,0.0,-2.4917,-2.2462,-2.207,-2.3989,-2.3632,-2.3221,-2.28,-2.0839,-2.043,0.0,0.0,0.0,0.0,0.0,0.0,0.0,0.0,0.0,0.0,0.0,0.0,0.0,0.0,0.0,0.0,0.0,0.0,0.0,0.0,0.0,0.0,0.0,0.0,0.0,0.0,0.0,0.0,0.0,0.0,0.0,0.0,0.0,0.0,0.0,0.0,0.0,0.0,0.0,0.0,0.0,-2.1259,-2.0046,-2.0076,0.0,0.0,0.0,0.0,-1.8465,-1.8322,0.0,0.0,0.0,0.0,0.0,0.0,0.0,0.0,0.0,0.0,0.0,0.0,0.0,0.0,0.0,0.0,0.0,0.0,0.0,0.0,0.0,0.0,0.0,0.0,0.0,0.0,0.0,0.0,0.0,0.0,0.0,0.0,0.0,0.0,0.0,0.0,0.0,0.0,0.0,0.0,0.0,0.0,0.0,0.0,0.0,0.0,0.0,0.0,0.0,0.0,0.0,0.0,0.0,0.0,0.0,0.0,-2.5027,-2.382,-2.3574,-2.4403,-2.4372,-2.4099,-2.3574,-2.2021,-2.1747,0.0,0.0,0.0,0.0,0.0,0.0,0.0,0.0,0.0,0.0,0.0,0.0,0.0,0.0,0.0,0.0,0.0,0.0,0.0,0.0,0.0,0.0,0.0,0.0,0.0,0.0,0.0,0.0,0.0,0.0,0.0,0.0,0.0,0.0,0.0,0.0,0.0,0.0,0.0,0.0,0.0,-2.1891,-2.2389,-2.1612,-2.0969,0.0,0.0,-1.9051,-1.893,-1.9286,0.0,0.0,0.0,0.0,0.0,0.0,0.0,0.0,0.0,0.0,0.0,0.0,0.0,0.0,0.0,0.0,0.0,0.0,0.0,0.0,0.0,0.0,0.0,0.0,0.0,0.0,0.0,0.0,0.0,0.0,0.0,0.0,0.0,0.0,0.0,0.0,0.0,0.0,0.0,0.0,0.0,0.0,0.0,0.0,0.0,0.0,0.0,0.0,0.0,0.0,0.0,0.0,0.0,0.0,0.0,-2.3899,-2.5165,-2.3651,-2.345,-2.4719,-2.4588,-2.4391,-2.4136,-2.2372,-2.2048,0.0,0.0,0.0,0.0,0.0,0.0,0.0,0.0,0.0,0.0,0.0,0.0,0.0,0.0,0.0,0.0,0.0,0.0,0.0,0.0,0.0,0.0,0.0,0.0,0.0,0.0,0.0,0.0,0.0,0.0,0.0,0.0,0.0,0.0,0.0,0.0,0.0,0.0,0.0,0.0,0.0,0.0,-2.2128,-2.182,0.0,0.0,0.0,-2.0264,-1.9723,0.0,0.0,0.0,0.0,0.0,0.0,0.0,0.0,0.0,0.0,0.0,0.0,0.0,0.0,0.0,0.0,0.0,0.0,0.0,0.0,0.0,0.0,0.0,0.0,0.0,0.0,0.0,0.0,0.0,0.0,0.0,0.0,0.0,0.0,0.0,0.0,0.0,0.0,0.0,0.0,0.0,0.0,0.0,0.0,0.0,0.0,0.0,0.0,0.0,0.0,0.0,0.0,0.0,0.0,0.0,0.0,0.0,-2.5322,-2.3446,-2.3246,-2.486,-2.4693,-2.4528,-2.4391,-2.2539,0.0,0.0,0.0,0.0,0.0,0.0,0.0,0.0,0.0,0.0,0.0,0.0,0.0,0.0,0.0,0.0,0.0,0.0,0.0,0.0,0.0,0.0,0.0,0.0,0.0,0.0,0.0,-2.5009,0.0,0.0,0.0,0.0,0.0,0.0,0.0,0.0,0.0,0.0,0.0,0.0,0.0,0.0,-2.2615,-2.2074,-2.2166,-2.1827,0.0,0.0,-2.1498,-2.0373,-2.0263,-2.0648,0.0,0.0,0.0,0.0,0.0,0.0,0.0,0.0,0.0,0.0,0.0,0.0,0.0,0.0,0.0,0.0,0.0,0.0,0.0,0.0,0.0,0.0,0.0,0.0,0.0,0.0,0.0,0.0,0.0,0.0,0.0,0.0,0.0,0.0,0.0,0.0,0.0,0.0,0.0,0.0,0.0,0.0,0.0,0.0,0.0,0.0,0.0,0.0,0.0,0.0,0.0,0.0,0.0,0.0,0.0,-2.5274,-2.3659,-2.3433,-2.4757,-2.4804,-2.461,-2.421,-2.263,-2.252,0.0,0.0,0.0,0.0,0.0,0.0,0.0,0.0,0.0,0.0,0.0,0.0,0.0,0.0,0.0,0.0,0.0,0.0,0.0,0.0,0.0,0.0,0.0,0.0,0.0,0.0,0.0,0.0,0.0,0.0,0.0,0.0,0.0,0.0,0.0,0.0,0.0,0.0,0.0,0.0,0.0,-2.3422,-2.3367,-2.3223,-2.2808,0.0,0.0,-2.2355,-2.0743,-2.1146,-2.1607,-2.1381,0.0,0.0,0.0,0.0,0.0,0.0,0.0,0.0,0.0,0.0,0.0,0.0,0.0,0.0,0.0,0.0,0.0,0.0,0.0,0.0,0.0,0.0,0.0,0.0,0.0,0.0,0.0,0.0,0.0,0.0,0.0,0.0,0.0,0.0,0.0,0.0,0.0,0.0,0.0,0.0,0.0,0.0,0.0,0.0,0.0,0.0,0.0,0.0,0.0,0.0,0.0,0.0,0.0,-2.413,-2.5111,-2.402,-2.3896,-2.4854,-2.4727,-2.4591,-2.4559,-2.2767,-2.2318,0.0,0.0,0.0,0.0,0.0,0.0,0.0,0.0,0.0,0.0,0.0,0.0,0.0,0.0,0.0,0.0,0.0,0.0,0.0,0.0,0.0,0.0,0.0,0.0,0.0,0.0,0.0,0.0,-2.3229,-2.3014,-2.3201,0.0,0.0,0.0,0.0,0.0,0.0,0.0,0.0,0.0,0.0,-2.3407,-2.3491,-2.3252,0.0,0.0,-2.2993,-2.318,-2.1547,-2.2006,-2.2484,-2.2373,-2.283,0.0,0.0,0.0,0.0,0.0,0.0,0.0,0.0,0.0,0.0,0.0,0.0,0.0,0.0,0.0,0.0,0.0,0.0,0.0,0.0,0.0,0.0,0.0,0.0,0.0,0.0,0.0,0.0,0.0,0.0,0.0,0.0,0.0,0.0,0.0,0.0,0.0,0.0,0.0,0.0,0.0,0.0,0.0,0.0,0.0,0.0,0.0,0.0,0.0,0.0,0.0,0.0,-2.4285,-2.4991,-2.415,-2.4201,-2.5205,-2.4732,-2.4657,-2.4926,-2.3172,-2.2428,0.0,0.0,0.0,0.0,0.0,0.0,0.0,0.0,0.0,0.0,0.0,0.0,0.0,0.0,0.0,0.0,0.0,0.0,0.0,0.0,0.0,0.0,0.0,0.0,0.0,0.0,0.0,0.0,-2.2646,-2.2444,-2.2685,0.0,0.0,0.0,0.0,0.0,0.0,0.0,0.0,0.0,0.0,-2.3603,-2.3705,-2.3543,-2.3363,-2.3143,-2.3767,-2.3897,-2.2771,-2.283,-2.3015,-2.3015,0.0,0.0,0.0,0.0,0.0,0.0,0.0,0.0,0.0,0.0,0.0,0.0,0.0,0.0,0.0,0.0,0.0,0.0,0.0,0.0,0.0,0.0,0.0,0.0,0.0,0.0,0.0,0.0,0.0,0.0,-2.7468,0.0,0.0,0.0,0.0,0.0,0.0,0.0,0.0,0.0,0.0,0.0,0.0,0.0,0.0,0.0,0.0,0.0,0.0,0.0,0.0,0.0,0.0,-2.4055,-2.4998,-2.4079,-2.4238,-2.5612,-2.4923,-2.4818,-2.5332,-2.3823,-2.2997,-2.3015,0.0,0.0,0.0,0.0,0.0,0.0,0.0,0.0,0.0,0.0,0.0,0.0,0.0,0.0,0.0,0.0,0.0,0.0,0.0,0.0,0.0,0.0,0.0,0.0,0.0,0.0,-2.3259,-2.2493,-2.2086,0.0,0.0,0.0,0.0,0.0,0.0,0.0,0.0,0.0,0.0,-2.419,-2.4171,-2.4172,-2.4338,-2.4672,-2.5425,-2.4931,-2.4469,-2.4383,-2.3636,-2.3015,0.0,0.0,0.0,0.0,0.0,0.0,0.0,0.0,0.0,0.0,0.0,0.0,0.0,0.0,0.0,0.0,0.0,0.0,0.0,0.0,0.0,0.0,0.0,0.0,0.0,0.0,0.0,-2.6945,-2.6482,0.0,0.0,0.0,0.0,0.0,0.0,0.0,0.0,0.0,0.0,0.0,-2.8706,-2.8522,0.0,0.0,0.0,0.0,0.0,0.0,0.0,0.0,0.0,0.0,0.0,0.0,-2.5521,-2.6191,-2.5415,-2.5461,-2.6433,-2.6096,-2.5799,-2.5579,-2.4413,-2.3566,-2.3033,0.0,0.0,0.0,0.0,0.0,0.0,0.0,0.0,0.0,0.0,0.0,0.0,0.0,0.0,0.0,0.0,0.0,0.0,0.0,0.0,0.0,0.0,0.0,0.0,0.0,-2.3885,0.0,0.0,0.0,0.0,0.0,0.0,0.0,0.0,0.0,0.0,0.0,-2.419,-2.419,-2.419,-2.419,-2.419,-2.4264,-2.4393,0.0,0.0,0.0,0.0,0.0,0.0,0.0,0.0,0.0,0.0,0.0,0.0,0.0,0.0,-2.6629,-2.5512,-2.5225,-2.5225,-2.5571,0.0,0.0,0.0,0.0,0.0,0.0,0.0,0.0,0.0,0.0,0.0,0.0,0.0,0.0,-2.6849,0.0,-2.6898,0.0,0.0,0.0,0.0,0.0,0.0,0.0,0.0,-2.9819,-3.0148,-3.0794,-3.0315,-3.0225,0.0,-2.9621,-2.8686,0.0,0.0,0.0,0.0,0.0,0.0,0.0,0.0,-2.6038,-2.6451,-2.6172,-2.6394,-2.7152,-2.7082,-2.6822,-2.6411,-2.4965,-2.3951,-2.3437,-2.3419,-2.3896,0.0,0.0,0.0,0.0,0.0,0.0,0.0,0.0,0.0,0.0,0.0,0.0,0.0,0.0,0.0,0.0,0.0,0.0,0.0,0.0,0.0,0.0,0.0,-2.3824,0.0,0.0,0.0,0.0,0.0,0.0,0.0,0.0,0.0,-2.4302,-2.4031,-2.3896,-2.3996,-2.4034,-2.4034,-2.4012,0.0,0.0,0.0,0.0,0.0,0.0,0.0,-2.5309,-2.5071,-2.5897,-2.6631,-2.6649,-2.7518,-2.8647,-2.9972,0.0,0.0,-2.654,-2.6038,-2.6092,-2.6897,-2.7551,-2.8264,-2.9246,-2.8996,-2.9014,0.0,0.0,0.0,0.0,0.0,0.0,0.0,0.0,-2.5964,-2.7006,0.0,-2.691,0.0,0.0,0.0,0.0,0.0,-2.9776,0.0,0.0,-3.0173,-3.0663,-3.1038,-3.046,-3.0477,-3.1091,-3.1648,-3.1492,-3.0492,-2.6526,0.0,0.0,0.0,0.0,0.0,0.0,-2.5612,-2.5949,-2.6497,-2.7126,-2.7897,-2.7934,-2.7897,-2.7791,-2.5493,-2.4245,-2.4226,-2.4208,-2.4208,-2.4282,-2.609,0.0,0.0,0.0,0.0,0.0,0.0,0.0,0.0,0.0,0.0,0.0,0.0,0.0,0.0,0.0,0.0,0.0,0.0,0.0,0.0,-2.3181,0.0,0.0,0.0,0.0,0.0,0.0,0.0,0.0,0.0,0.0,-2.575,-2.4347,-2.3376,-2.3793,0.0,0.0,0.0,0.0,-2.4762,-2.5501,-2.502,-2.5096,-2.66,-2.6077,-2.575,-2.6447,0.0,0.0,-2.8792,-2.9012,-2.9218,-3.0057,-2.9599,-2.8796,-2.7989,-2.7597,-2.7734,-2.8649,-2.8955,-2.9594,-3.0833,-3.0063,-2.9412,-2.8477,0.0,0.0,0.0,0.0,-2.8925,-2.8655,-2.7963,-2.8127,-2.8241,-2.8107,-2.7316,0.0,0.0,0.0,0.0,0.0,0.0,-3.1361,-3.1775,-3.2831,-3.3158,-3.2809,-3.3759,-3.3706,-3.2808,-3.2769,-3.2337,-3.151,-3.0068,-2.9485,-2.9738,0.0,0.0,0.0,0.0,-2.8268,-2.8868,-2.9076,-2.9567,-3.0356,-3.0356,-2.9824,-2.8686,-2.63,-2.5072,-2.5072,-2.4502,-2.4523,-2.5245,-2.5949,0.0,0.0,0.0,0.0,0.0,0.0,0.0,0.0,0.0,0.0,0.0,0.0,0.0,0.0,0.0,0.0,0.0,0.0,0.0,-2.4713,-2.4401,-2.4625,0.0,0.0,0.0,0.0,0.0,0.0,0.0,0.0,0.0,-2.6338,-2.4999,-2.4438,0.0,0.0,-2.375,-2.4832,-2.4606,-2.4438,-2.468,-2.5183,0.0,-2.618,-2.6728,-2.6979,-2.6667,-2.6818,-2.7767,-2.9979,-2.9399,-2.9123,-3.0709,-3.0399,-2.9678,-2.9188,-2.8791,-2.856,-2.8626,-2.9624,-3.0514,-3.0467,-3.0487,-3.0879,-3.2567,-3.1823,-3.0648,-3.0315,-3.0566,-3.08,-3.0229,-2.9139,-2.9187,-2.9262,-2.941,-2.8543,-2.8308,-2.8531,-2.8884,0.0,0.0,0.0,-3.3018,-3.3894,-3.4992,-3.555,-3.574,-3.6388,-3.6475,-3.6032,-3.5741,-3.5337,-3.4776,-3.4436,-3.4119,-3.3697,0.0,0.0,-3.0632,-2.9879,-3.0044,-3.1072,-3.0852,-3.1072,-3.1843,-3.1256,-3.032,-2.8994,-2.6961,-2.5713,-2.5403,-2.4612,-2.4487,-2.5079,-2.5604,-2.5951,0.0,0.0,0.0,0.0,0.0,0.0,0.0,0.0,0.0,0.0,0.0,-2.3808,0.0,0.0,0.0,0.0,-2.3414,-2.399,-2.4889,-2.4683,0.0,0.0,0.0,0.0,0.0,0.0,0.0,-2.6916,-2.6364,-2.6296,-2.7009,-2.5785,-2.5101,-2.5869,-2.4769,-2.4244,-2.5177,0.0,-2.4779,-2.4752,-2.5376,-2.5904,-2.6236,-2.6909,-2.7375,-2.7556,-2.7767,-2.8506,-3.0184,-2.9773,-2.962,-3.0567,-3.0549,-3.0252,-3.0299,-3.0098,-2.9872,-2.9579,-3.0628,-3.1422,-3.1119,-3.1444,-3.193,-3.639,-3.5754,-3.3171,-3.1884,-3.1602,-3.2364,-3.155,-2.9735,-2.9735,-3.0449,-3.1537,-3.0353,-3.0325,-3.1175,-3.0895,0.0,-3.2373,-3.3487,-3.4583,-3.5734,-3.6586,-3.7652,-3.8853,-3.8261,-3.8576,-3.97,-3.9581,-3.9394,-3.9138,-3.8976,-3.8487,-3.7588,-3.3862,-3.188,-3.1641,-3.0962,-3.1329,-3.2761,-3.2137,-3.2118,-3.2735,-3.1164,-2.9916,-2.9104,-2.7475,-2.6209,-2.5421,-2.4612,-2.4209,-2.4246,-2.5114,-2.5626,-2.5624,0.0,0.0,0.0,0.0,0.0,0.0,0.0,0.0,0.0,0.0,0.0,0.0,0.0,0.0,0.0,-2.3028,0.0,-2.417,-2.4457,0.0,0.0,0.0,-2.7621,-2.686,-2.752,-2.7977,-2.7891,0.0,0.0,-2.7789,-2.6674,-2.5635,-2.5252,-2.5069,-2.4993,-2.5103,-2.5367,-2.5504,-2.5472,-2.5584,-2.5941,-2.663,-2.6843,-2.7295,-2.8399,-2.8965,-2.9254,-2.9982,-3.0152,-3.0214,-3.0309,-3.0317,-3.0433,-3.1115,-3.1048,-3.1246,-3.1185,-3.1661,-3.2119,-3.2175,-3.2228,-3.226,-3.7249,-3.8063,-3.7429,-3.6465,-3.5482,-3.5597,-3.511,-3.4218,-3.367,-3.3336,-3.3075,-3.169,-3.0908,-3.0684,-3.1093,-3.169,-3.2583,-3.4364,-3.5646,-3.6489,-3.7833,-3.8362,-3.8193,-3.8548,-3.8798,-3.8972,-3.9317,-3.9679,-4.0023,-4.0349,-4.0139,-3.9276,-3.7734,-3.6028,-3.4211,-3.3927,-3.4018,-3.4422,-3.489,-3.4908,-3.4385,-3.2265,-3.0723,-2.9934,-2.775,-2.6227,-2.5421,-2.4612,-2.4284,-2.4409,-2.4645,-2.4874,-2.5013,-2.6087,0.0,0.0,0.0,0.0,0.0,0.0,0.0,0.0,0.0,-2.4718,-2.4624,0.0,-2.4847,0.0,-2.5657,-2.6562,-2.6532,-2.5794,0.0,0.0,-2.7689,-2.8399,-2.7655,-2.8755,-2.9347,-2.8772,-2.8552,-2.8501,-2.8687,-2.7875,-2.7267,-2.7114,-2.57,-2.5006,-2.6078,-2.5867,-2.5574,-2.563,-2.6266,-2.6923,-2.7074,-2.7414,-2.7595,-2.7679,-2.8175,-2.8833,-2.9615,-2.9732,-2.9796,-3.0127,-3.0214,-3.0167,-3.0018,-2.9983,-3.0335,-3.1016,-3.1578,-3.1792,-3.1582,-3.1524,-3.1507,-3.8104,-3.8908,-3.9262,-3.8954,-3.8254,-3.7826,-3.728,-3.6622,-3.5837,-3.5341,-3.488,-3.3456,-3.2796,-3.2706,-3.2788,-3.3391,-3.4441,-3.5941,-3.6975,-3.7738,-3.8942,-3.9259,-3.8903,-3.9276,-3.9723,-4.0079,-4.0394,-4.0921,-4.1705,-4.2038,-4.1772,-4.0983,-4.0524,-3.9441,-3.7704,-3.6303,-3.6119,-3.7184,-3.6945,-3.6248,-3.499,-3.2999,-3.1733,-3.1219,-2.8246,-2.6576,-2.6468,-2.4997,-2.4413,-2.4875,-2.4894,-2.4947,-2.5088,-2.5652,-2.5731,0.0,0.0,0.0,0.0,0.0,0.0,0.0,0.0,0.0,0.0,0.0,-2.6172,-2.6236,-2.6941,-2.7379,-2.7303,-2.645,-2.6031,-2.6441,-2.7386,-2.7909,-2.7789,-2.8586,-2.9144,-2.9279,-2.911,-2.9228,-2.9837,-2.9008,-2.823,-2.7975,-2.689,-2.6148,-2.6267,-2.6033,-2.5696,-2.5526,-2.5971,-2.6447,-2.6674,-2.7098,-2.7425,-2.7513,-2.7585,-2.7998,-2.9087,-2.8987,-2.892,-2.9505,-2.9385,-2.9197,-2.9248,-2.9299,-2.9639,-3.0445,-3.0895,-3.1073,-3.1184,-3.119,-3.119,-3.9137,-3.9235,-3.9933,-4.0155,-4.002,-3.9368,-3.8707,-3.8051,-3.7263,-3.6783,-3.6507,-3.5195,-3.4936,-3.5459,-3.4988,-3.5429,-3.6661,-3.7515,-3.8302,-3.8962,-3.9731,-4.0087,-4.0087,-4.0087,-4.0642,-4.1647,-4.1682,-4.2248,-4.3267,-4.3356,-4.3043,-4.2368,-4.2326,-4.1992,-4.1313,-3.8334,-3.7821,-3.9827,-3.8395,-3.689,-3.5339,-3.3752,-3.2724,-3.2192,-2.8686,-2.6924,-2.7255,-2.5309,-2.452,-2.5201,-2.5197,-2.5177,-2.5177,-2.5049,-2.4836,0.0,-2.469,0.0,0.0,0.0,0.0,0.0,0.0,0.0,0.0,-2.708,-2.7371,-2.8466,-2.7843,-2.7488,-2.7755,-2.707,-2.6606,-2.6506,-2.6888,-2.7368,-2.7909,-2.8093,-2.8653,-2.9753,-2.9553,-2.9786,-3.0903,-2.9935,-2.8834,-2.8342,-2.7947,-2.73,-2.6335,-2.6035,-2.5839,-2.5281,-2.5221,-2.5503,-2.5872,-2.6315,-2.6826,-2.7349,-2.7317,-2.7348,-2.859,-2.8444,-2.8286,-2.8662,-2.8431,-2.8315,-2.8873,-2.9011,-2.9299,-3.0159,-3.0277,-3.0434,-3.0987,-3.1055,-3.1072,-4.0713,-4.0759,-4.0932,-4.0629,-4.0087,-3.9952,-3.9799,-3.961,-3.8816,-3.7758,-3.6538,-3.571,-3.5385,-3.5554,-3.598,-3.6369,-3.6661,-3.806,-3.8745,-3.8908,-3.9731,-4.0087,-4.0087,-4.0087,-4.0449,-4.1041,-4.1087,-4.1446,-4.2126,-4.2637,-4.2792,-4.2629,-4.2391,-4.2543,-4.291,0.0,0.0,0.0,-3.8946,-3.801,-3.7,-3.5404,-3.3311,-3.0742,-2.8668,0.0,-2.4979,-2.4447,-2.4263,-2.441,-2.4174,0.0,0.0,0.0,0.0,0.0,0.0,0.0,0.0,0.0,0.0,0.0,-2.6977,-2.7165,-2.7317,-2.7537,-2.8154,-2.926,-3.0054,-3.0451,-3.0225,-2.9453,-2.8704,-2.8167,-2.8886,-2.9296,-2.8873,-2.9803,-3.0666,-3.0852,-3.0818,-3.0852,-3.0999,-2.9995,-2.9121,-2.89,-2.8083,-2.7147,-2.6448,-2.6214,-2.5918,-2.5339,-2.5192,-2.5237,-2.5335,-2.5815,-2.617,-2.6424,-2.7328,-2.7859,-2.8096,-2.889,-2.8909,-2.8388,-2.8458,-2.8812,-2.8994,-2.9011,-2.9414,-3.0717,-3.0514,-3.0328,-3.1021,-3.0734,-3.048,-4.1716,0.0,-4.1728,-4.1322,0.0,-4.0629,-4.0426,-4.002,-3.9262,-3.8286,-3.716,-3.6399,-3.607,-3.6054,-3.6054,-3.6054,-3.6102,-3.7263,-3.7987,-3.8414,-3.9139,-3.9714,-4.0087,-4.0087,-4.0368,-4.0903,-4.0903,-4.1206,-4.1793,-4.2121,-4.2262,-4.2244,-4.2127,-4.2242,-4.2585,-4.0787,-3.9621,-3.912,-3.8345,-3.7551,-3.6702,-3.5344,-3.3702,-3.1683,0.0,0.0,0.0,0.0,0.0,0.0,0.0,0.0,0.0,0.0,0.0,-2.5285,-2.5843,-2.6295,-2.6429,-2.6475,-2.6702,-2.7233,-2.8172,-2.8627,-2.8446,-2.8918,-2.959,-3.0418,-3.129,-3.1627,-3.1172,-3.0603,-2.9995,-2.9443,-2.9644,-2.974,-2.9675,-3.0192,-3.0801,-3.1083,-3.0918,-3.074,-3.0601,-2.9871,-2.9176,-2.8911,-2.8302,-2.7471,-2.6656,-2.6398,-2.5979,-2.5114,-2.5343,-2.5392,-2.4966,-2.5082,-2.5621,-2.6081,-2.6969,-2.7813,-2.8394,-2.9278,-2.9749,-2.95,-2.9566,-2.9556,-2.9553,-2.9536,-2.9756,-3.0412,-3.0352,-3.0236,-3.0687,-3.0673,-3.0734,-4.2812,-4.2523,-4.2625,-4.2185,-4.139,-4.1271,-4.0781,-4.002,0.0,0.0,0.0,-3.716,-3.6737,-3.6554,-3.6133,-3.5846,-3.5718,-3.6461,-3.7263,-3.8035,-3.8635,-3.9315,-4.0087,-4.0087,-4.0336,-4.0733,-4.0797,-4.0995,-4.1508,-4.1578,-4.1621,-4.1664,-4.175,-4.1768,-4.1576,-4.027,-3.9124,-3.8227,-3.7672,-3.6996,-3.6145,-3.513,-3.406,-3.3001,-3.0522,-2.8986,-2.8573,-2.7314,-2.6685,-2.686,-2.6278,-2.605,-2.6345,-2.5616,-2.5224,-2.5291,-2.5156,-2.5392,-2.6151,-2.6202,-2.6758,-2.8014,-2.9528,-3.0238,-2.9837,-3.0476,-3.1072,-3.1568,-3.2137,-3.2284,-3.1843,-3.1519,-3.1114,-3.0599,-3.0296,-3.0179,-3.0231,-3.034,-3.0679,-3.1016,-3.0716,-3.0251,-3.0107,-2.9553,-2.9069,-2.8602,-2.8327,-2.8033,-2.6995,-2.6483,-2.5894,-2.5118,-2.5448,-2.5571,-2.4941,-2.4937,-2.5315,-2.6107,-2.6759,-2.7536,-2.8556,-2.9367,-3.0017,-3.0224,-3.0234,-3.0091,-3.0108,-3.0197,-3.0285,-3.0294,-3.0219,-3.0182,-3.0286,-3.0601,-3.0778,-4.4997,-4.3318,-4.3978,-4.3453,-4.2083,-4.1474,-4.0781,-4.0037,-3.9246,-3.8854,-3.869,-3.7962,-3.7279,-3.6615,-3.7219,-3.7115,-3.6492,-3.7279,-3.8019,-3.8745,-3.8854,-3.9315,-4.007,-4.0087,-4.0121,-4.0204,-4.0204,-4.0254,-4.0368,-4.0797,-4.1041,-4.1087,-4.1534,-4.1534,-4.1018,-4.019,-3.9123,-3.7936,-3.8113,-3.7848,-3.7013,-3.6184,-3.4694,-3.257,-3.088,-2.8982,-2.7022,-2.6756,-2.6322,-2.5773,-2.5365,-2.5199,-2.5236,-2.548,-2.5824,-2.6419,-2.703,-2.7706,-2.845,-2.854,-2.8767,-2.9332,-3.0525,-3.1057,-3.071,-3.1454,-3.21,-3.243,-3.3109,-3.355,-3.3431,-3.3065,-3.2527,-3.1935,-3.1983,-3.1721,-3.082,-3.1163,-3.1411,-3.1218,-3.0658,-3.0251,-3.0123,-2.9271,-2.8576,-2.8436,-2.81,-2.768,-2.7325,-2.6447,-2.5736,-2.5516,-2.5545,-2.5573,-2.544,-2.5877,-2.6143,-2.6339,-2.6857,-2.7356,-2.7713,-2.8467,-2.8965,-2.8678,-2.9555,-3.0108,-3.0176,-3.0649,-3.0869,-3.0915,-3.0597,-3.0294,-3.0225,-2.9951,-2.9697,-4.6177,-4.5314,-4.5635,-4.4908,-4.342,-4.1863,-4.1018,-4.0646,-3.9899,-3.9542,-3.9489,-3.8761,-3.7946,-3.7263,-3.716,-3.6753,-3.5991,-3.6368,-3.7175,-3.8262,-3.8302,-3.8941,-4.0054,-4.0493,-4.046,-4.0121,-4.0493,-4.0493,-4.0155,-4.0319,-4.0449,-4.0497,-4.0767,-4.0542,-3.98,-3.9092,-3.8219,-3.727,-3.7366,-3.7126,-3.6348,-3.5788,-3.4609,-3.2737,-3.1774,-3.0445,-2.8576,-2.8505,-2.824,-2.7679,-2.7157,-2.6971,-2.7144,-2.6944,-2.7216,-2.8185,-2.8596,-2.9041,-2.9673,-2.9868,-2.9989,-3.0227,-3.1311,-3.2036,-3.2126,-3.2693,-3.3109,-3.3256,-3.3605,-3.3807,-3.3807,-3.3634,-3.3302,-3.2755,-3.2834,-3.2553,-3.186,-3.1707,-3.1716,-3.1452,-3.051,-2.9805,-2.9805,-2.8764,-2.8027,-2.8,-2.7715,-2.756,-2.756,-2.7081,-2.6564,-2.6276,-2.6431,-2.6348,-2.5809,-2.5997,-2.6335,-2.6456,-2.7024,-2.7509,-2.7847,-2.8721,-2.9303,-2.9376,-3.0095,-3.0632,-3.0683,-3.0937,-3.1157,-3.1151,-3.0725,-3.0281,-2.9835,-2.9107,-2.8732,-4.6464,-4.6179,-4.6562,-4.5883,-4.4434,-4.2523,-4.1525,-4.117,-4.0578,-4.024,-4.0037,-3.9437,-3.8652,-3.7748,-3.716,-3.6337,-3.5554,-3.5489,-3.6321,-3.769,-3.7822,-3.8694,-4.0273,-4.095,-4.0984,-4.0646,-4.1018,-4.0916,-4.0375,-4.0172,-4.0087,-4.0087,-4.0087,-3.9714,-3.8891,-3.8311,-3.7584,-3.6715,-3.6706,-3.6332,-3.5589,-3.5051,-3.4175,-3.31,-3.2607,-3.1689,-3.0264,-3.0277,-3.0054,-2.9403,-2.8835,-2.8665,-2.8926,-2.8416,-2.8577,-2.9558,-2.9799,-3.0119,-3.0747,-3.0902,-3.1133,-3.1547,-3.2378,-3.318,-3.3828,-3.4045,-3.4064,-3.3862,-3.3972,-3.41,-3.4137,-3.4392,-3.433,-3.4014,-3.3985,-3.3894,-3.3373,-3.2825,-3.235,-3.2009,-3.0667,-2.9643,-2.9273,-2.8352,-2.766,-2.761,-2.756,-2.756,-2.756,-2.756,-2.7324,-2.7075,-2.728,-2.7186,-2.6228,-2.6396,-2.6666,-2.6797,-2.7202,-2.762,-2.8238,-2.9229,-2.9978,-3.0016,-3.0634,-3.1072,-3.1173,-3.1173,-3.119,-3.1151,-3.0584,-2.9819,-2.9077,-2.8345,-2.7993,-4.552,-4.4621,-4.5962,-4.5824,-4.453,-4.3534,-4.2385,-4.1236,-4.1119,-4.0696,-4.0037,-4.002,-3.9172,-3.7921,-3.7706,-3.689,-3.5554,-3.5489,-3.6321,-3.7648,-3.7822,-3.8956,-4.0914,-4.117,-4.1525,-4.188,-4.1525,-4.1255,-4.1001,-4.0392,-4.0087,-4.0087,-4.0087,-3.9662,-3.8945,-3.8772,-3.806,-3.6628,-3.6627,-3.6252,-3.5591,-3.4338,-3.3588,-3.3478,-3.276,-3.1692,-3.0311,-3.0796,-3.0476,-2.9183,-2.903,-2.896,-2.9008,-2.8907,-2.9248,-2.998,-3.0418,-3.1096,-3.21,-3.1917,-3.2388,-3.3881,-3.4089,-3.4697,-3.5747,-3.554,-3.489,-3.4274,-3.4504,-3.4853,-3.4945,-3.574,-3.6192,-3.6077,-3.6159,-3.6192,-3.5669,-3.5026,-3.4164,-3.308,-3.1575,-3.0156,-2.9617,-2.8493,-2.7705,-2.7664,-2.7655,-2.7619,-2.7679,-2.759,-2.7619,-2.753,-2.7575,-2.7515,-2.729,-2.7395,-2.74,-2.7475,-2.7535,-2.774,-2.808,-2.8794,-2.9491,-2.9959,-3.0471,-3.1157,-3.119,-3.119,-3.1207,-3.0912,-3.0199,-2.9136,-2.8122,-2.7775,-2.7978,-4.5837,-4.5357,-4.606,-4.5553,-4.4306,-4.3545,-4.2162,-4.0541,-4.097,-4.054,-3.954,-3.9885,-3.9506,-3.843,-3.7978,-3.7175,-3.618,-3.5668,-3.6085,-3.7084,-3.7573,-3.8764,-4.0484,-4.1485,-4.2016,-4.232,-4.2422,-4.2066,-4.1204,-4.0443,-4.0087,-4.002,-3.9662,-3.8995,-3.8246,-3.7774,-3.7024,-3.6006,-3.5943,-3.5795,-3.5523,-3.4996,-3.4337,-3.3555,-3.3205,-3.2385,-3.111,-3.1206,-3.121,-3.0949,-3.0267,-3.0004,-3.0392,-3.0009,-3.0034,-3.0632,-3.1773,-3.2437,-3.2517,-3.3141,-3.3792,-3.4393,-3.4857,-3.5478,-3.6153,-3.5807,-3.545,-3.5528,-3.5413,-3.5404,-3.5809,-3.6366,-3.6721,-3.6721,-3.6876,-3.6962,-3.6774,-3.6064,-3.5331,-3.4792,-3.3266,-3.1863,-3.0981,-2.9357,-2.8329,-2.8105,-2.7904,-2.7769,-2.8068,-2.7844,-2.7769,-2.8023,-2.7859,-2.764,-2.756,-2.756,-2.756,-2.7685,-2.7934,-2.8195,-2.8273,-2.9144,-2.9966,-2.9895,-3.0622,-3.1157,-3.119,-3.1151,-3.1128,-3.0684,-2.972,-2.8596,-2.7771,-2.7883,-2.8227,-4.54,-4.541,-4.531,-4.483,-4.4048,-4.294,-4.1545,-4.0051,-4.0397,-3.9835,-3.8739,-3.9226,-3.9156,-3.858,-3.8035,-3.7338,-3.6554,-3.5831,-3.5894,-3.6615,-3.7203,-3.8405,-4.01,-4.136,-4.2227,-4.2658,-4.3132,-4.2642,-4.1271,-4.0443,-4.0087,-3.9969,-3.9315,-3.8509,-3.7806,-3.698,-3.6228,-3.5554,-3.5489,-3.5489,-3.5464,-3.5472,-3.495,-3.3881,-3.3603,-3.2977,-3.2013,-3.1785,-3.1887,-3.2299,-3.113,-3.0631,-3.105,-3.0457,-3.0327,-3.0977,-3.2225,-3.2948,-3.2783,-3.4074,-3.4865,-3.5072,-3.5701,-3.6395,-3.6838,-3.6665,-3.6869,-3.7717,-3.7268,-3.7131,-3.719,-3.7654,-3.8037,-3.8268,-3.8554,-3.8682,-3.8731,-3.7873,-3.7119,-3.6662,-3.4888,-3.3144,-3.187,-3.0248,-2.9154,-2.8847,-2.8487,-2.8263,-2.8659,-2.8359,-2.8068,-2.8487,-2.8008,-2.7619,-2.756,-2.756,-2.756,-2.7709,-2.8083,-2.8501,-2.8617,-2.9617,-3.0368,-3.0177,-3.0824,-3.1157,-3.119,-3.1151,-3.1032,-3.033,-2.9499,-2.8618,-2.805,-2.8275,-2.8513,-4.3394,-4.3419,-4.3036,-4.3357,-4.3949,-4.2013,-4.0667,-3.9715,-3.9344,-3.8595,-3.7911,-3.7978,-3.7937,-3.7863,-3.7764,-3.7338,-3.6569,-3.5831,-3.5894,-3.6492,-3.6676,-3.7923,-4.0061,-4.0899,-4.1966,-4.3052,-4.331,-4.2672,-4.1271,-4.0476,-4.0087,-4.002,-3.9209,-3.8525,-3.7748,-3.6919,-3.6228,-3.5569,-3.5489,-3.5489,-3.5489,-3.5509,-3.5168,-3.4499,-3.3824,-3.3444,-3.3197,-3.2767,-3.2442,-3.236,-3.1166,-3.0449,-3.0414,-2.979,-2.987,-3.0767,-3.1308,-3.2152,-3.3339,-3.4319,-3.5296,-3.6394,-3.6994,-3.7827,-3.8683,-3.8543,-3.899,-4.0519,-4.0367,-4.0139,-3.9769,-4.016,-4.1011,-4.1793,-4.2115,-4.2119,-4.216,-4.0608,-3.9529,-3.8358,-3.6344,-3.404,-3.1355,-3.0647,-3.0182,-2.9788,-2.952,-2.9446,-2.9425,-2.8967,-2.8667,-2.8629,-2.8255,-2.7655,-2.764,-2.771,-2.771,-2.7956,-2.847,-2.88,-2.9039,-2.9407,-3.0032,-3.0493,-3.0925,-3.1173,-3.119,-3.1055,-3.0821,-3.0356,-2.9749,-2.9024,-2.8525,-2.8497,-2.8778,-4.1774,-4.2102,-4.2395,-4.2223,-4.1699,-4.1485,-4.0235,-3.8431,-3.9201,-3.8562,-3.7329,-3.7573,-3.7822,-3.7748,-3.7279,-3.6919,-3.6569,-3.5846,-3.5683,-3.5943,-3.6384,-3.7324,-3.8562,-3.9806,-4.1187,-4.2591,-4.3107,-4.2835,-4.1912,-4.1153,-4.0305,-3.9312,-3.8596,-3.779,-3.7024,-3.629,-3.5797,-3.5554,-3.5489,-3.5489,-3.5489,-3.5489,-3.537,-3.51,-3.4467,-3.3955,-3.3486,-3.3279,-3.3075,-3.3053,-3.1805,-3.0911,-3.0454,-2.9437,-2.9164,-2.9919,-3.0892,-3.1783,-3.2719,-3.4469,-3.5883,-3.6642,-3.7694,-3.8685,-3.9593,-3.9597,-4.0021,-4.167,-4.3177,-4.3403,-4.2641,-4.1915,-4.1665,-4.2429,-4.2795,-4.2966,-4.2793,-4.2181,-4.1377,-4.0265,-3.7932,-3.54,-3.3806,-3.2262,-3.1192,-3.084,-3.0189,-2.9869,-2.9978,-2.9633,-2.9295,-2.9702,-2.9659,-2.9251,-2.8368,-2.8247,-2.833,-2.8784,-2.9299,-3.0114,-3.0507,-3.0895,-3.1534,-3.1213,-3.1399,-3.1173,-3.119,-3.0929,-3.0716,-3.0492,-2.9883,-2.9512,-2.9104,-2.9191,-2.9504,-4.0196,-4.0461,-4.1041,-4.0734,-3.9965,-4.0436,-3.9458,-3.7556,-3.8364,-3.781,-3.6538,-3.6829,-3.7071,-3.7011,-3.6446,-3.6228,-3.6228,-3.5718,-3.5489,-3.5554,-3.5991,-3.6753,-3.7779,-3.8952,-4.0315,-4.1798,-4.2621,-4.2593,-4.1871,-4.1208,-4.0171,-3.8941,-3.7905,-3.7144,-3.6554,-3.5831,-3.5489,-3.5489,-3.5489,-3.5489,-3.5489,-3.5489,-3.5489,-3.5429,-3.504,-3.4607,-3.4143,-3.3739,-3.3638,-3.3587,-3.2327,-3.1046,-2.9965,-2.8851,-2.8463,-2.9167,-3.0183,-3.105,-3.18,-3.4014,-3.5618,-3.6006,-3.751,-3.8854,-3.9676,-4.0244,-4.1208,-4.2509,-4.3788,-4.4633,-4.4384,-4.3159,-4.2642,-4.3408,-4.3768,-4.3912,-4.3874,-4.3475,-4.2623,-4.1286,-3.8912,-3.698,-3.5796,-3.386,-3.2618,-3.2033,-3.0915,-3.0481,-3.0642,-3.0143,-2.9804,-3.0308,-3.0204,-2.9899,-2.97,-2.9793,-2.9422,-2.9766,-2.9975,-3.0921,-3.1579,-3.2101,-3.2266,-3.1989,-3.1664,-3.1348,-3.1049,-3.0824,-3.0657,-3.0532,-3.0251,-2.9842,-2.9815,-2.9995,-3.0107,-3.8657,-3.8377,-3.8631,-3.89,-3.8855,-3.872,-3.8108,-3.7404,-3.6955,-3.6436,-3.5744,-3.5604,-3.5733,-3.5604,-3.5668,-3.5554,-3.5539,-3.5504,-3.5489,-3.5489,-3.5629,-3.6368,-3.7542,-3.8348,-3.9563,-4.0991,-4.1852,-4.1848,-4.1124,-4.0572,-3.9808,-3.8809,-3.7492,-3.68,-3.6585,-3.5891,-3.5489,-3.5489,-3.5489,-3.5489,-3.5489,-3.5489,-3.5489,-3.5489,-3.5444,-3.54,-3.5385,-3.4247,-3.3935,-3.4145,-3.2632,-3.0615,-2.9117,-2.8156,-2.794,-2.8523,-2.9228,-2.9894,-3.073,-3.3028,-3.4584,-3.5022,-3.6659,-3.8132,-3.8927,-4.064,-4.1996,-4.2241,-4.2824,-4.362,-4.4573,-4.4227,-4.423,-4.5374,-4.5262,-4.5225,-4.5222,-4.4759,-4.3502,-4.1547,-3.9374,-3.7801,-3.6673,-3.5313,-3.4005,-3.281,-3.194,-3.1342,-3.127,-3.0522,-3.0088,-3.0288,-3.0586,-3.0567,-3.1029,-3.1486,-3.1005,-3.0675,-3.0749,-3.1193,-3.1622,-3.2081,-3.2209,-3.1992,-3.154,-3.1207,-3.119,-3.0969,-3.1009,-3.087,-3.052,-3.0299,-3.0418,-3.0477,-3.0435,-3.7691,-3.7454,-3.7651,-3.787,-3.8117,-3.7999,-3.7781,-3.7381,-3.718,-3.6507,-3.5639,-3.5489,-3.5489,-3.5489,-3.5489,-3.5504,-3.5489,-3.5489,-3.5504,-3.5609,-3.5968,-3.64,-3.7026,-3.8016,-3.9259,-4.0673,-4.1661,-4.1685,-4.0994,-4.0688,-4.0011,-3.8762,-3.7764,-3.7044,-3.6531,-3.5859,-3.5489,-3.5489,-3.5489,-3.5489,-3.5489,-3.5504,-3.5504,-3.5489,-3.5489,-3.5489,-3.5474,-3.5085,-3.4756,-3.4502,-3.3469,-3.1794,-2.9699,-2.8637,-2.8156,-2.8031,-2.895,-2.985,-3.0747,-3.2813,-3.4479,-3.5189,-3.6501,-3.7775,-3.8624,-3.9561,-4.0683,-4.1533,-4.2138,-4.268,-4.328,-4.3386,-4.3863,-4.5418,-4.54,-4.5199,-4.5027,-4.476,-4.3605,-4.1528,-3.9968,-3.8814,-3.7689,-3.6349,-3.4759,-3.3496,-3.26,-3.2053,-3.1504,-3.1091,-3.0971,-3.1147,-3.1258,-3.1399,-3.1792,-3.224,-3.2234,-3.2039,-3.2055,-3.1841,-3.2126,-3.2093,-3.2208,-3.1935,-3.1444,-3.1224,-3.1207,-3.119,-3.119,-3.119,-3.092,-3.0858,-3.0885,-3.0878,-3.0781,-3.6328,-3.5955,-3.6428,-3.6792,-3.7281,-3.7587,-3.7638,-3.744,-3.7404,-3.6686,-3.5684,-3.5489,-3.5489,-3.5549,-3.5759,-3.5863,-3.5908,-3.6103,-3.6222,-3.6207,-3.6312,-3.6716,-3.724,-3.8242,-3.9214,-4.0147,-4.108,-4.113,-4.0434,-4.0371,-3.9783,-3.8676,-3.792,-3.7208,-3.6588,-3.6312,-3.6043,-3.5624,-3.5744,-3.5878,-3.5818,-3.5624,-3.5624,-3.5789,-3.5639,-3.5504,-3.5489,-3.5489,-3.531,-3.4726,-3.3799,-3.2093,-3.0118,-2.9325,-2.8771,-2.8621,-2.9031,-2.9781,-3.0387,-3.2062,-3.3477,-3.414,-3.5297,-3.6336,-3.7158,-3.7614,-3.8734,-3.9804,-4.0499,-4.1083,-4.1638,-4.1885,-4.2537,-4.353,-4.4014,-4.407,-4.386,-4.3115,-4.251,-4.096,-3.9802,-3.8982,-3.8408,-3.6593,-3.5035,-3.375,-3.2765,-3.2149,-3.1549,-3.1285,-3.1345,-3.1444,-3.161,-3.1902,-3.2455,-3.2914,-3.3403,-3.3466,-3.3484,-3.3184,-3.3117,-3.2655,-3.251,-3.1816,-3.1314,-3.1207,-3.119,-3.119,-3.119,-3.119,-3.119,-3.1151,-3.1072,-3.1095,-3.1089,-3.4939,-3.4199,-3.499,-3.5704,-3.6322,-3.7232,-3.7462,-3.7392,-3.7509,-3.6821,-3.5804,-3.5654,-3.5624,-3.5729,-3.6178,-3.6387,-3.6567,-3.7,-3.721,-3.712,-3.7015,-3.73,-3.8347,-3.9005,-3.9436,-3.9715,-4.0301,-4.0291,-3.9936,-3.9766,-3.9354,-3.8703,-3.7948,-3.721,-3.6911,-3.718,-3.6746,-3.6013,-3.6282,-3.6537,-3.6507,-3.5923,-3.5848,-3.6372,-3.5833,-3.5489,-3.5489,-3.5489,-3.5474,-3.519,-3.3572,-3.1916,-3.0634,-2.9899,-2.9486,-2.9322,-2.951,-2.9693,-2.9976,-3.1241,-3.2019,-3.2285,-3.3697,-3.4299,-3.488,-3.6051,-3.7005,-3.7674,-3.8557,-3.9267,-3.9842,-4.0157,-4.0391,-4.0524,-4.1756,-4.2225,-4.151,-4.0127,-4.0019,-4.0466,-3.9177,-3.7914,-3.887,-3.6504,-3.5013,-3.3752,-3.277,-3.2258,-3.1822,-3.1616,-3.1183,-3.1468,-3.2079,-3.2514,-3.3022,-3.3455,-3.3918,-3.4332,-3.4263,-3.3884,-3.3575,-3.3077,-3.2814,-3.2087,-3.154,-3.1404,-3.1326,-3.141,-3.1309,-3.1207,-3.1224,-3.1207,-3.132,-3.1392,-3.1587,-3.5378,-3.5027,-3.4565,-3.486,-3.5718,-3.6353,-3.6798,-3.7026,-3.7797,-3.7375,-3.6417,-3.6222,-3.6222,-3.6252,-3.6432,-3.6492,-3.6716,-3.718,-3.7404,-3.7464,-3.7808,-3.8332,-3.902,-3.9334,-3.9694,-4.0081,-4.0013,-3.9919,-4.0145,-3.9748,-3.943,-3.9209,-3.8472,-3.8063,-3.7913,-3.7584,-3.727,-3.6971,-3.7045,-3.7165,-3.7075,-3.6552,-3.6312,-3.6372,-3.5878,-3.5534,-3.5504,-3.5489,-3.525,-3.4711,-3.3221,-3.1722,-3.0468,-2.9799,-2.9333,-2.9028,-2.9725,-3.0268,-3.0513,-3.1488,-3.2222,-3.2423,-3.3557,-3.4494,-3.4594,-3.5801,-3.6572,-3.6978,-3.7633,-3.815,-3.8346,-3.8459,-3.8517,-3.8712,-3.977,-4.0315,-3.9556,-3.9323,-3.919,-3.849,-3.8208,-3.7736,-3.6734,-3.6233,-3.534,-3.4326,-3.366,-3.3241,-3.2676,-3.2362,-3.2048,-3.2393,-3.293,-3.3252,-3.3629,-3.4053,-3.4462,-3.4962,-3.4775,-3.4121,-3.371,-3.3232,-3.3152,-3.2933,-3.2454,-3.2203,-3.2039,-3.2032,-3.1738,-3.1659,-3.2013,-3.2343,-3.196,-3.1883,-3.2183,-3.5755,-3.5491,-3.4851,-3.4893,-3.5592,-3.628,-3.6662,-3.6965,-3.7908,-3.7838,-3.703,-3.6881,-3.6881,-3.6896,-3.7165,-3.73,-3.7375,-3.7958,-3.8242,-3.8332,-3.8661,-3.92,-3.9694,-3.9843,-4.0172,-4.0726,-4.0412,-4.0307,-4.0307,-3.9993,-3.9709,-3.9364,-3.9035,-3.8691,-3.8347,-3.8362,-3.7913,-3.7569,-3.7644,-3.7823,-3.7764,-3.7195,-3.6926,-3.6746,-3.6267,-3.5833,-3.5499,-3.5133,-3.4596,-3.3891,-3.2991,-3.1969,-3.0595,-3.0094,-2.9637,-2.9346,-3.0201,-3.0734,-3.0895,-3.1694,-3.2242,-3.2573,-3.3367,-3.3799,-3.4125,-3.4976,-3.5397,-3.5755,-3.6175,-3.6487,-3.6783,-3.6845,-3.6845,-3.6961,-3.7617,-3.7998,-3.7623,-3.7713,-3.7469,-3.6863,-3.6501,-3.6143,-3.4516,-3.4592,-3.4392,-3.3908,-3.3382,-3.3351,-3.332,-3.3065,-3.3005,-3.3181,-3.3208,-3.332,-3.3215,-3.3472,-3.3713,-3.4303,-3.472,-3.4121,-3.3599,-3.3159,-3.3195,-3.3144,-3.304,-3.3,-3.2823,-3.2756,-3.2849,-3.2944,-3.3305,-3.3024,-3.2469,-3.2314,-3.2673,-3.6069,-3.5617,-3.5554,-3.5468,-3.5654,-3.6522,-3.6865,-3.7075,-3.8032,-3.8102,-3.7629,-3.7509,-3.7524,-3.7539,-3.7958,-3.8317,-3.8347,-3.8886,-3.923,-3.9305,-3.9484,-3.9873,-4.0442,-4.0322,-4.0756,-4.1324,-4.1429,-4.1115,-4.0831,-4.0636,-4.0217,-3.9918,-3.9738,-3.9275,-3.9035,-3.9215,-3.8781,-3.8063,-3.8272,-3.8497,-3.8332,-3.7749,-3.73,-3.718,-3.6193,-3.5674,-3.5104,-3.4447,-3.3579,-3.2929,-3.2844,-3.1867,-3.0692,-3.0515,-3.0351,-3.0361,-3.0614,-3.094,-3.1002,-3.1273,-3.1634,-3.2108,-3.23,-3.2613,-3.3208,-3.3704,-3.4173,-3.4592,-3.4577,-3.5235,-3.5533,-3.5539,-3.5444,-3.54,-3.5449,-3.5579,-3.5985,-3.5764,-3.5417,-3.5345,-3.4546,-3.3568,-3.2748,-3.223,-3.2163,-3.3372,-3.3077,-3.3179,-3.3211,-3.2941,-3.3136,-3.349,-3.3412,-3.3167,-3.2966,-3.278,-3.2942,-3.3214,-3.394,-3.3817,-3.3145,-3.2819,-3.2979,-3.3067,-3.34,-3.3574,-3.3599,-3.3644,-3.3677,-3.3347,-3.3067,-3.2776,-3.2495,-3.2684,-3.2963,-3.6295,-3.6157,-3.573,-3.5495,-3.5556,-3.6232,-3.6698,-3.7069,-3.8165,-3.8429,-3.8236,-3.8182,-3.8182,-3.8197,-3.8362,-3.8377,-3.8527,-3.9095,-3.9424,-3.9499,-3.9993,-4.0531,-4.092,-4.0681,-4.1085,-4.1773,-4.1609,-4.1579,-4.1698,-4.1354,-4.11,-4.0935,-4.0726,-4.0621,-4.0068,-4.0023,-3.9828,-3.914,-3.9155,-3.9098,-3.8817,-3.7868,-3.7273,-3.7109,-3.5512,-3.453,-3.4221,-3.338,-3.2538,-3.1775,-3.1249,-3.0895,-3.0481,-2.998,-2.9807,-2.988,-3.0365,-3.0738,-3.0696,-3.0769,-3.0834,-3.1185,-3.1632,-3.1853,-3.2033,-3.324,-3.3877,-3.4243,-3.4779,-3.5245,-3.5314,-3.4773,-3.4476,-3.4259,-3.3808,-3.3448,-3.3589,-3.4047,-3.4242,-3.393,-3.337,-3.2667,-3.1992,-3.2129,-3.2264,-3.2638,-3.279,-3.2944,-3.2872,-3.2789,-3.3028,-3.3412,-3.309,-3.2814,-3.2844,-3.2638,-3.2606,-3.2815,-3.341,-3.4068,-3.3372,-3.3199,-3.3598,-3.3792,-3.3968,-3.4114,-3.4055,-3.3809,-3.3686,-3.3252,-3.2882,-3.2692,-3.2642,-3.2932,-3.3126,-3.6596,-3.6332,-3.6044,-3.578,-3.5701,-3.6326,-3.6718,-3.7001,-3.813,-3.862,-3.8561,-3.8703,-3.8871,-3.8871,-3.8871,-3.8886,-3.8931,-3.9215,-3.9424,-3.9484,-3.9828,-4.0457,-4.122,-4.119,-4.1519,-4.2566,-4.2506,-4.2417,-4.2252,-4.2028,-4.1669,-4.1399,-4.1414,-4.116,-4.092,-4.0861,-4.0711,-4.0174,-3.9461,-3.915,-3.8884,-3.7636,-3.6447,-3.587,-3.4299,-3.331,-3.3241,-3.2464,-3.1742,-3.1175,-3.0559,-3.0132,-3.0119,-2.9774,-2.9606,-2.9714,-3.0037,-3.0425,-3.0454,-3.0569,-3.0773,-3.1007,-3.1406,-3.175,-3.2194,-3.3293,-3.3916,-3.4163,-3.4743,-3.5344,-3.4839,-3.4461,-3.3876,-3.3325,-3.2876,-3.2593,-3.2664,-3.3017,-3.3171,-3.2777,-3.2253,-3.1629,-3.1267,-3.1476,-3.1656,-3.1672,-3.1874,-3.2072,-3.2764,-3.2652,-3.2723,-3.2859,-3.2485,-3.2418,-3.2579,-3.2541,-3.25,-3.2833,-3.3321,-3.4141,-3.433,-3.4346,-3.4508,-3.4486,-3.433,-3.429,-3.4249,-3.3982,-3.3716,-3.3464,-3.3152,-3.2839,-3.2657,-3.2856,-3.314,-3.686,-3.637,-3.637,-3.6094,-3.5798,-3.6612,-3.6799,-3.6731,-3.8042,-3.8639,-3.8727,-3.921,-3.9499,-3.9409,-3.9364,-3.9322,-3.9075,-3.906,-3.8943,-3.8988,-3.9815,-4.0546,-4.1265,-4.1713,-4.2222,-4.3269,-4.3195,-4.297,-4.2671,-4.2476,-4.2312,-4.1818,-4.1728,-4.1728,-4.1609,-4.1519,-4.1143,-4.0499,-3.9434,-3.8549,-3.813,-3.681,-3.5635,-3.4418,-3.3335,-3.2516,-3.2232,-3.1536,-3.097,-3.097,-3.0203,-2.9856,-2.9779,-2.9779,-2.9779,-2.9806,-3.0054,-3.0155,-3.0197,-3.0326,-3.0656,-3.1273,-3.13,-3.1659,-3.2313,-3.2919,-3.3518,-3.4095,-3.461,-3.4839,-3.4109,-3.3449,-3.3087,-3.2536,-3.2321,-3.2177,-3.2191,-3.2191,-3.1915,-3.1769,-3.1341,-3.0709,-3.0355,-3.0279,-3.0482,-3.0771,-3.0983,-3.1302,-3.2017,-3.2248,-3.2064,-3.199,-3.1593,-3.1261,-3.1408,-3.1683,-3.1688,-3.2469,-3.3045,-3.3941,-3.4779,-3.4988,-3.4865,-3.4665,-3.4577,-3.4472,-3.4307,-3.4091,-3.3866,-3.371,-3.3473,-3.3131,-3.2982,-3.2887,-3.3208,-3.6872,-3.637,-3.637,-3.6307,-3.6314,-3.6489,-3.6675,-3.7144,-3.8191,-3.8788,-3.8822,-3.9697,-3.9755,-3.9544,-3.9424,-3.8943,-3.8383,-3.8144,-3.8069,-3.8437,-3.9622,-4.0873,-4.1247,-4.2004,-4.2877,-4.324,-4.3344,-4.324,-4.3165,-4.315,-4.2955,-4.2955,-4.2895,-4.2686,-4.2204,-4.2147,-4.1145,-3.9842,-3.8939,-3.811,-3.6944,-3.5815,-3.4722,-3.3567,-3.2541,-3.1867,-3.1373,-3.0583,-2.9998,-2.9998,-2.9869,-2.9792,-2.9779,-2.9779,-2.9779,-2.9831,-3.0012,-3.0113,-2.9948,-3.0075,-3.0024,-3.0063,-3.0265,-3.0677,-3.1389,-3.1988,-3.2847,-3.3754,-3.4095,-3.4163,-3.4013,-3.2735,-3.1815,-3.1328,-3.0921,-3.0508,-3.0432,-3.0495,-3.0683,-3.0807,-3.0393,-3.0075,-2.9934,-2.9779,-3.0075,-3.0279,-3.0343,-3.0611,-3.1202,-3.111,-3.0797,-3.0737,-3.0663,-3.0317,-3.0139,-3.0432,-3.0683,-3.1753,-3.2496,-3.3521,-3.4332,-3.503,-3.5145,-3.4991,-3.4614,-3.4265,-3.4167,-3.4134,-3.3857,-3.3602,-3.3528,-3.3502,-3.3364,-3.3249,-3.3933,-3.686,-3.6383,-3.637,-3.637,-3.637,-3.637,-3.6489,-3.6766,-3.7329,-3.7838,-3.8309,-3.8866,-3.9254,-3.9324,-3.9424,-3.8782,-3.7933,-3.7175,-3.7021,-3.7416,-3.8439,-3.977,-4.048,-4.1557,-4.245,-4.3051,-4.3344,-4.325,-4.3344,-4.3314,-4.325,-4.3329,-4.3344,-4.2897,-4.2166,-4.1902,-4.0972,-3.9527,-3.8436,-3.7483,-3.6223,-3.4792,-3.337,-3.2791,-3.1902,-3.1203,-3.0817,-3.0241,-2.9804,-2.9779,-2.9779,-2.9779,-2.9779,-2.9779,-2.9779,-2.9894,-3.0188,-3.0278,-3.0175,-3.0534,-3.1138,-3.0622,-3.0522,-3.0979,-3.1556,-3.1988,-3.2492,-3.3408,-3.3891,-3.3518,-3.2593,-3.1669,-3.1044,-3.0495,-3.0075,-2.9856,-2.9779,-2.9779,-2.9819,-2.9922,-2.9729,-2.9689,-2.9856,-2.9779,-2.9779,-2.9779,-2.9702,-2.9982,-3.0405,-3.0188,-2.9804,-3.006,-3.015,-3.0036,-2.996,-3.0381,-3.0742,-3.1586,-3.2412,-3.3437,-3.4297,-3.5126,-3.5389,-3.5385,-3.4862,-3.4436,-3.4301,-3.4332,-3.3937,-3.3681,-3.3651,-3.3697,-3.3622,-3.3819,-3.4634,-3.696,-3.637,-3.637,-3.637,-3.637,-3.637,-3.6282,-3.6311,-3.6623,-3.7063,-3.7605,-3.8238,-3.8935,-3.9224,-3.906,-3.8489,-3.748,-3.6463,-3.6127,-3.6317,-3.7024,-3.8102,-3.9064,-4.0034,-4.091,-4.1776,-4.2275,-4.2886,-4.317,-4.2996,-4.29,-4.2725,-4.2725,-4.2208,-4.1392,-4.1153,-4.0547,-3.9294,-3.8134,-3.7034,-3.5592,-3.3769,-3.2303,-3.2152,-3.1286,-3.0826,-3.0586,-3.0133,-2.9817,-2.9779,-2.9779,-2.9779,-2.9779,-2.9779,-2.9779,-2.9907,-3.056,-3.0419,-3.0727,-3.1216,-3.1767,-3.1495,-3.1487,-3.1996,-3.2602,-3.2834,-3.2989,-3.3492,-3.3339,-3.289,-3.1683,-3.1044,-3.0558,-3.0139,-2.9856,-2.9779,-2.9702,-2.9481,-2.9071,-2.9113,-2.9089,-2.8907,-2.8657,-2.8621,-2.8371,-2.8383,-2.8291,-2.8858,-2.9217,-2.9356,-2.9269,-2.9664,-2.9856,-2.9833,-3.019,-3.096,-3.1508,-3.2305,-3.3125,-3.3948,-3.4683,-3.5439,-3.5489,-3.5489,-3.5444,-3.5016,-3.4846,-3.4666,-3.4562,-3.4367,-3.4038,-3.4008,-3.431,-3.4958,-3.5732,-3.7299,-3.637,-3.637,-3.637,-3.637,-3.637,-3.6094,-3.5823,-3.7079,-3.7303,-3.6817,-3.8837,-3.9599,-3.9334,-3.845,-3.7538,-3.6649,-3.588,-3.5571,-3.5708,-3.6455,-3.7181,-3.7768,-3.8714,-3.941,-4.0224,-4.0407,-4.1489,-4.2386,-4.2126,-4.185,-4.167,-4.1014,-4.0246,-4.0145,-4.0045,-3.9262,-3.7891,-3.7391,-3.6335,-3.4564,-3.3518,-3.278,-3.2227,-3.1662,-3.1148,-3.0796,-3.0319,-2.998,-2.9905,-2.9867,-2.9817,-2.9779,-2.9779,-2.9779,-2.9792,-2.9972,-3.0267,-3.0862,-3.1602,-3.215,-3.2324,-3.2444,-3.2908,-3.3496,-3.4274,-3.4288,-3.3492,-3.2706,-3.1842,-3.1119,-3.0495,-2.9998,-2.9856,-2.9779,-2.9779,-2.9702,-2.9169,-2.8739,-2.8035,-2.7953,-2.73,-2.6809,-2.6846,-2.6801,-2.6894,-2.7058,-2.7626,-2.8243,-2.8687,-2.9352,-2.9948,-3.0279,-3.0291,-3.0957,-3.1643,-3.2519,-3.3268,-3.383,-3.4476,-3.4986,-3.5489,-3.5489,-3.5489,-3.5489,-3.5489,-3.525,-3.5145,-3.525,-3.51,-3.4756,-3.4936,-3.528,-3.598,-3.6489,-3.7086,-3.637,-3.637,-3.637,-3.637,-3.637,-3.6232,-3.6112,-3.6437,-3.6664,-3.674,-3.7294,-3.7854,-3.8059,-3.737,-3.6796,-3.6153,-3.5473,-3.5032,-3.5095,-3.5691,-3.6326,-3.7241,-3.7858,-3.8369,-3.9216,-3.9806,-4.0304,-4.1,-4.1,-4.0661,-4.0561,-4.0073,-3.9536,-3.9006,-3.8917,-3.8079,-3.7131,-3.6378,-3.5659,-3.4514,-3.3822,-3.3269,-3.2704,-3.2139,-3.1738,-3.1424,-3.0997,-3.0708,-3.0696,-3.0696,-3.0696,-3.0608,-3.0457,-3.0269,-3.024,-2.998,-3.0318,-3.1119,-3.2105,-3.2764,-3.317,-3.337,-3.3527,-3.4033,-3.4706,-3.4572,-3.2648,-3.2087,-3.1368,-3.0659,-3.0075,-2.9934,-2.9792,-2.9817,-2.9752,-2.958,-2.8996,-2.8386,-2.7595,-2.6812,-2.6151,-2.5765,-2.5994,-2.6157,-2.6307,-2.6801,-2.7626,-2.8359,-2.8978,-2.9745,-3.0585,-3.0887,-3.1048,-3.189,-3.277,-3.3847,-3.4516,-3.4567,-3.5111,-3.5213,-3.5489,-3.5489,-3.5489,-3.5489,-3.5489,-3.5489,-3.5459,-3.5385,-3.5429,-3.5489,-3.5489,-3.5504,-3.5569,-3.615,-3.6935,-3.6558,-3.642,-3.637,-3.637,-3.637,-3.627,-3.6094,-3.573,-3.5976,-3.6495,-3.649,-3.6762,-3.7172,-3.703,-3.6783,-3.6261,-3.5326,-3.5017,-3.4901,-3.4891,-3.5392,-3.5989,-3.6528,-3.721,-3.8702,-3.8274,-3.8639,-3.8903,-3.9019,-3.9006,-3.936,-3.893,-3.8482,-3.7952,-3.7678,-3.7178,-3.662,-3.5873,-3.5328,-3.4876,-3.4211,-3.3721,-3.3181,-3.2667,-3.2202,-3.2127,-3.1199,-3.082,-3.0795,-3.0238,-3.0107,-3.052,-3.0367,-3.0487,-3.0555,-3.0532,-3.0675,-3.1609,-3.2541,-3.3566,-3.3978,-3.4295,-3.4361,-3.4307,-3.5001,-3.4558,-3.2349,-3.1368,-3.0786,-3.0227,-2.9917,-2.9917,-2.9917,-2.9905,-2.9749,-2.9419,-2.8549,-2.7866,-2.7162,-2.6239,-2.5345,-2.5061,-2.5356,-2.5541,-2.5684,-2.6472,-2.7476,-2.8474,-2.9312,-3.0211,-3.1128,-3.1527,-3.1882,-3.2674,-3.3691,-3.4897,-3.5448,-3.5481,-3.5499,-3.5519,-3.5489,-3.5489,-3.5489,-3.5489,-3.5489,-3.5489,-3.5489,-3.5489,-3.5489,-3.5489,-3.5489,-3.5504,-3.5534,-3.5985,-3.7161,-3.7086,-3.6571,-3.637,-3.637,-3.637,-3.6069,-3.5692,-3.5512,-3.5579,-3.5935,-3.7001,-3.7595,-3.7778,-3.7505,-3.713,-3.6344,-3.5717,-3.5542,-3.5328,-3.5014,-3.4791,-3.5085,-3.5315,-3.5326,-3.5698,-3.6418,-3.6775,-3.6701,-3.7256,-3.7599,-3.803,-3.7599,-3.6896,-3.6722,-3.6803,-3.6709,-3.6282,-3.5893,-3.5567,-3.5115,-3.4512,-3.3897,-3.3571,-3.283,-3.2215,-3.2106,-3.0979,-3.0071,-3.0083,-2.93,-2.9109,-2.9853,-2.999,-3.0335,-3.0783,-3.1066,-3.122,-3.1856,-3.2368,-3.3082,-3.3941,-3.4485,-3.4707,-3.4558,-3.5111,-3.4452,-3.2629,-3.1386,-3.0636,-3.0335,-3.0193,-3.0143,-2.9939,-2.9745,-2.9322,-2.879,-2.7828,-2.7074,-2.6525,-2.5829,-2.5033,-2.4582,-2.4883,-2.501,-2.5146,-2.6373,-2.7371,-2.8901,-2.9932,-3.0795,-3.1612,-3.2187,-3.2721,-3.3422,-3.4311,-3.5028,-3.5355,-3.5478,-3.5469,-3.5504,-3.5489,-3.5489,-3.5489,-3.5489,-3.5489,-3.5489,-3.5489,-3.5489,-3.5489,-3.5489,-3.5489,-3.5614,-3.5689,-3.6303,-3.7073,-3.76,-3.6734,-3.637,-3.637,-3.637,-3.6044,-3.568,-3.5893,-3.5843,-3.5579,-3.651,-3.6865,-3.6737,-3.6954,-3.6883,-3.6439,-3.6182,-3.6056,-3.5868,-3.5504,-3.5328,-3.529,-3.5253,-3.5416,-3.5642,-3.5956,-3.6107,-3.6427,-3.637,-3.6534,-3.6803,-3.6628,-3.6546,-3.6465,-3.637,-3.637,-3.6332,-3.6094,-3.5805,-3.5002,-3.4688,-3.4085,-3.3332,-3.3558,-3.276,-3.2171,-3.1759,-3.0918,-2.9965,-2.9228,-2.9229,-2.9392,-2.9712,-3.0165,-3.0749,-3.1104,-3.1468,-3.1643,-3.1991,-3.2536,-3.2974,-3.3466,-3.3796,-3.4088,-3.4473,-3.3945,-3.2658,-3.1591,-3.0977,-3.0532,-3.0432,-3.0319,-2.9961,-2.945,-2.8907,-2.8267,-2.732,-2.6764,-2.6311,-2.5732,-2.508,-2.4683,-2.4349,-2.4506,-2.4779,-2.6092,-2.7522,-2.9144,-3.0623,-3.16,-3.2403,-3.303,-3.3642,-3.4341,-3.4706,-3.5067,-3.5279,-3.5489,-3.5489,-3.5489,-3.5489,-3.5489,-3.5489,-3.5489,-3.5489,-3.5489,-3.5489,-3.5489,-3.5489,-3.5489,-3.5489,-3.5644,-3.5799,-3.6207,-3.7299,-3.7839,-3.681,-3.6458,-3.6584,-3.6433,-3.6144,-3.5868,-3.5981,-3.5931,-3.5592,-3.6081,-3.6182,-3.5981,-3.6144,-3.6452,-3.6465,-3.6332,-3.6345,-3.6194,-3.6019,-3.5956,-3.5906,-3.5805,-3.5629,-3.6081,-3.6144,-3.6132,-3.637,-3.637,-3.6452,-3.6452,-3.637,-3.637,-3.637,-3.637,-3.637,-3.637,-3.6282,-3.5943,-3.5102,-3.4751,-3.45,-3.3621,-3.3406,-3.2881,-3.2071,-3.139,-3.0482,-2.9661,-2.9169,-2.8996,-2.9212,-2.9477,-2.9823,-3.0272,-3.076,-3.1208,-3.1261,-3.1839,-3.2402,-3.2992,-3.299,-3.301,-3.3093,-3.3456,-3.2878,-3.2571,-3.1906,-3.1474,-3.0748,-3.0648,-3.0311,-2.9898,-2.8787,-2.8107,-2.7704,-2.7015,-2.6564,-2.6256,-2.569,-2.5254,-2.5485,-2.5279,-2.5616,-2.5979,-2.7242,-2.8614,-3.0159,-3.1567,-3.2653,-3.3397,-3.3984,-3.464,-3.5294,-3.5279,-3.5279,-3.5279,-3.5489,-3.5489,-3.5489,-3.5504,-3.5504,-3.5489,-3.5489,-3.5489,-3.5489,-3.5489,-3.5489,-3.5489,-3.5489,-3.5489,-3.5504,-3.5644,-3.5614,-3.7939,-3.7864,-3.681,-3.6659,-3.7023,-3.6571,-3.6307,-3.6119,-3.5805,-3.5642,-3.5692,-3.6157,-3.6358,-3.6282,-3.6345,-3.6358,-3.637,-3.637,-3.637,-3.6307,-3.6245,-3.6019,-3.5818,-3.5705,-3.578,-3.5604,-3.5793,-3.6094,-3.637,-3.637,-3.637,-3.637,-3.637,-3.637,-3.637,-3.6358,-3.6358,-3.637,-3.637,-3.5994,-3.5479,-3.5027,-3.4635,-3.386,-3.3144,-3.2587,-3.1688,-3.0654,-2.9696,-2.8974,-2.8055,-2.7901,-2.8177,-2.837,-2.8766,-2.9295,-3.0458,-3.0778,-3.0548,-3.1914,-3.2463,-3.2804,-3.2704,-3.2739,-3.2853,-3.2577,-3.1959,-3.1521,-3.1279,-3.1257,-3.1008,-3.0676,-3.0121,-2.9385,-2.8145,-2.7435,-2.709,-2.6613,-2.6093,-2.5979,-2.5826,-2.5722,-2.6138,-2.6472,-2.6845,-2.7506,-2.8585,-2.9908,-3.1378,-3.2395,-3.3411,-3.4161,-3.4699,-3.4999,-3.5424,-3.5424,-3.5489,-3.5504,-3.5519,-3.5534,-3.5534,-3.5534,-3.5534,-3.5504,-3.5489,-3.5489,-3.5489,-3.5489,-3.5489,-3.5489,-3.5489,-3.5489,-3.5489,-3.5489,-3.5489,-3.7676,-3.7902,-3.6822,-3.6671,-3.7073,-3.6596,-3.6169,-3.5818,-3.5655,-3.5755,-3.6056,-3.632,-3.637,-3.637,-3.637,-3.637,-3.637,-3.637,-3.637,-3.637,-3.637,-3.6282,-3.6094,-3.6031,-3.6056,-3.6081,-3.6107,-3.6107,-3.637,-3.637,-3.637,-3.637,-3.6263,-3.637,-3.6156,-3.5763,-3.5367,-3.6263,-3.632,-3.6107,-3.5499,-3.5236,-3.4698,-3.363,-3.3005,-3.2202,-3.0964,-2.9785,-2.9126,-2.8369,-2.7545,-2.7426,-2.7461,-2.7584,-2.8168,-2.8542,-2.9326,-2.9897,-2.9793,-3.0366,-3.0992,-3.1699,-3.1992,-3.1716,-3.1014,-3.0979,-3.0577,-3.0374,-3.02,-3.0044,-2.9496,-2.9351,-2.8874,-2.8226,-2.736,-2.6979,-2.6543,-2.595,-2.5421,-2.5543,-2.5566,-2.5628,-2.5929,-2.7259,-2.7893,-2.8795,-2.9923,-3.1211,-3.2736,-3.3269,-3.4054,-3.475,-3.5285,-3.5379,-3.5489,-3.5489,-3.5774,-3.5983,-3.5884,-3.5769,-3.5689,-3.5734,-3.5564,-3.5534,-3.5519,-3.5489,-3.5489,-3.5489,-3.5489,-3.5489,-3.5489,-3.5489,-3.5489,-3.5489,-3.5489,-3.7575,-3.7638,-3.6948,-3.6722,-3.6835,-3.6508,-3.6132,-3.5868,-3.5843,-3.6044,-3.6307,-3.6358,-3.637,-3.637,-3.637,-3.637,-3.637,-3.637,-3.637,-3.637,-3.637,-3.6332,-3.6345,-3.637,-3.6295,-3.637,-3.637,-3.637,-3.637,-3.637,-3.637,-3.6263,-3.5966,-3.5966,-3.5763,-3.5367,-3.4775,-3.5475,-3.5522,-3.5598,-3.5413,-3.5269,-3.4669,-3.3469,-3.266,-3.1844,-3.0387,-2.957,-2.9076,-2.815,-2.7764,-2.7539,-2.7298,-2.7292,-2.7631,-2.7689,-2.8113,-2.8899,-2.9362,-2.9431,-3.0085,-3.0589,-3.0519,-3.0024,-2.9367,-2.9379,-2.9381,-2.9148,-2.9025,-2.8991,-2.8767,-2.8588,-2.7934,-2.7317,-2.6858,-2.6465,-2.6154,-2.5569,-2.5418,-2.5518,-2.5549,-2.5574,-2.5942,-2.7617,-2.8994,-3.0085,-3.1275,-3.2581,-3.379,-3.4192,-3.4549,-3.5041,-3.5489,-3.5489,-3.5489,-3.5489,-3.5848,-3.6402,-3.6334,-3.6064,-3.6105,-3.6165,-3.5824,-3.5564,-3.5549,-3.5534,-3.5504,-3.5504,-3.5549,-3.5534,-3.5489,-3.5489,-3.5489,-3.5534,-3.5629,-3.7651,-3.7199,-3.7149,-3.6822,-3.642,-3.637,-3.6345,-3.6345,-3.6345,-3.6345,-3.637,-3.637,-3.637,-3.637,-3.637,-3.637,-3.637,-3.637,-3.637,-3.637,-3.637,-3.637,-3.637,-3.637,-3.637,-3.637,-3.637,-3.637,-3.637,-3.637,-3.637,-3.6168,-3.5571,-3.5571,-3.5475,-3.5078,-3.4678,-3.5078,-3.5234,-3.5421,-3.5631,-3.5574,-3.467,-3.3445,-3.2339,-3.1238,-3.0015,-2.9061,-2.8572,-2.8232,-2.8223,-2.7988,-2.7646,-2.7236,-2.6816,-2.6745,-2.7215,-2.8008,-2.8588,-2.8669,-2.8839,-2.9034,-2.8734,-2.8589,-2.8601,-2.8433,-2.8453,-2.8412,-2.8261,-2.8631,-2.8782,-2.8097,-2.739,-2.6845,-2.6295,-2.5991,-2.5809,-2.5654,-2.5654,-2.5643,-2.565,-2.5939,-2.6605,-2.8069,-2.9707,-3.1083,-3.2096,-3.2959,-3.4082,-3.4859,-3.5115,-3.5195,-3.5489,-3.5489,-3.5519,-3.5624,-3.6139,-3.6738,-3.6716,-3.6603,-3.6565,-3.6466,-3.6024,-3.5749,-3.5609,-3.5564,-3.5519,-3.5564,-3.5639,-3.5594,-3.5683,-3.5604,-3.5589,-3.5769,-3.5879,-3.6272,-3.6609,-3.6596,-3.6496,-3.637,-3.637,-3.637,-3.637,-3.637,-3.637,-3.637,-3.637,-3.637,-3.637,-3.637,-3.637,-3.637,-3.637,-3.637,-3.637,-3.637,-3.637,-3.637,-3.637,-3.637,-3.637,-3.637,-3.637,-3.637,-3.637,-3.637,-3.6263,-3.587,-3.5667,-3.5174,-3.4678,-3.5078,-3.5367,-3.5559,-3.5734,-3.5931,-3.6056,-3.475,-3.3151,-3.235,-3.1095,-2.9357,-2.8708,-2.8301,-2.8301,-2.8301,-2.8096,-2.7685,-2.7236,-2.6758,-2.6016,-2.615,-2.6476,-2.6744,-2.6839,-2.7027,-2.7266,-2.6924,-2.7483,-2.7788,-2.8046,-2.7764,-2.7495,-2.7243,-2.7327,-2.7421,-2.6914,-2.6572,-2.6294,-2.5917,-2.583,-2.5732,-2.5732,-2.5713,-2.6034,-2.603,-2.6562,-2.7302,-2.8417,-3.0033,-3.1694,-3.2825,-3.3424,-3.4225,-3.5001,-3.5454,-3.5504,-3.5534,-3.5534,-3.5759,-3.5893,-3.6469,-3.6985,-3.7083,-3.7157,-3.7124,-3.688,-3.6289,-3.6054,-3.6109,-3.5833,-3.5534,-3.5714,-3.6148,-3.5948,-3.5958,-3.5831,-3.5797,-3.6152,-3.6455,-3.4516,-3.4799,-3.5089,-3.4956,-3.4763,-3.4751,-3.5138,-3.5805,-3.6256,-3.637,-3.637,-3.637,-3.637,-3.637,-3.637,-3.637,-3.637,-3.637,-3.637,-3.637,-3.637,-3.637,-3.637,-3.637,-3.637,-3.637,-3.637,-3.637,-3.637,-3.637,-3.637,-3.637,-3.637,-3.5966,-3.5475,-3.5463,-3.5667,-3.5858,-3.5966,-3.6061,-3.6168,-3.6263,-3.4642,-3.2932,-3.2331,-3.0721,-2.8708,-2.8291,-2.8301,-2.8301,-2.8301,-2.8203,-2.7803,-2.7373,-2.6797,-2.6123,-2.582,-2.5859,-2.6004,-2.5917,-2.5898,-2.5996,-2.5918,-2.6497,-2.6986,-2.7176,-2.6784,-2.6356,-2.6073,-2.582,-2.5723,-2.5732,-2.5732,-2.5732,-2.5732,-2.5732,-2.5732,-2.5732,-2.5952,-2.6293,-2.6746,-2.7336,-2.8197,-2.923,-3.0164,-3.131,-3.2077,-3.2583,-3.3593,-3.4779,-3.5255,-3.5504,-3.5549,-3.5609,-3.5863,-3.6171,-3.6851,-3.736,-3.7758,-3.7774,-3.7715,-3.7505,-3.7105,-3.6828,-3.6678,-3.6499,-3.6349,-3.6537,-3.6843,-3.6778,-3.7015,-3.7389,-3.7358,-3.7204,-3.7433,-3.2757,-3.2465,-3.2937,-3.3028,-3.2364,-3.2532,-3.3407,-3.5039,-3.5648,-3.6243,-3.6363,-3.6383,-3.637,-3.637,-3.637,-3.637,-3.637,-3.637,-3.637,-3.637,-3.637,-3.637,-3.637,-3.637,-3.637,-3.637,-3.637,-3.637,-3.6358,-3.6168,-3.5966,-3.6358,-3.637,-3.6168,-3.6168,-3.6061,-3.6168,-3.6156,-3.5763,-3.5571,-3.6073,-3.5966,-3.5054,-3.2833,-3.1836,-3.0938,-2.9006,-2.8301,-2.8301,-2.8301,-2.8291,-2.8271,-2.791,-2.7559,-2.6943,-2.6445,-2.6045,-2.584,-2.5771,-2.5732,-2.5801,-2.584,-2.5781,-2.6231,-2.6527,-2.6555,-2.6094,-2.6182,-2.6055,-2.5801,-2.5732,-2.5732,-2.5732,-2.5732,-2.5732,-2.5732,-2.5732,-2.5781,-2.6008,-2.665,-2.7844,-2.843,-2.8821,-2.9843,-3.077,-3.1293,-3.1747,-3.2218,-3.3059,-3.4472,-3.4704,-3.5096,-3.5014,-3.5078,-3.5726,-3.6185,-3.7109,-3.7699,-3.8172,-3.8281,-3.8085,-3.802,-3.8003,-3.7599,-3.721,-3.7398,-3.7466,-3.7736,-3.8054,-3.8407,-3.8748,-3.9218,-3.9136,-3.8798,-3.8798,-3.1527,-3.2342,-3.2465,-3.2432,-3.2342,-3.2331,-3.2724,-3.3561,-3.3685,-3.5032,-3.6609,-3.6584,-3.6288,-3.6123,-3.6181,-3.6275,-3.6313,-3.6181,-3.637,-3.6168,-3.6156,-3.5763,-3.6288,-3.6136,-3.6313,-3.637,-3.637,-3.6206,-3.587,-3.5475,-3.5475,-3.6263,-3.6395,-3.6445,-3.637,-3.637,-3.637,-3.6358,-3.6073,-3.587,-3.6263,-3.5271,-3.397,-3.2443,-3.1429,-3.0214,-2.8698,-2.8301,-2.8301,-2.8301,-2.8301,-2.8125,-2.7803,-2.7598,-2.7129,-2.6543,-2.6299,-2.6103,-2.5879,-2.583,-2.5918,-2.5996,-2.6035,-2.6162,-2.6152,-2.5898,-2.5889,-2.6172,-2.6211,-2.5918,-2.5732,-2.5732,-2.5732,-2.5732,-2.5732,-2.5732,-2.5732,-2.5905,-2.6169,-2.7429,-2.8756,-2.9369,-2.9726,-3.0433,-3.1334,-3.1963,-3.2359,-3.2754,-3.3203,-3.4085,-3.3813,-3.3973,-3.3928,-3.4185,-3.5148,-3.6212,-3.7105,-3.7979,-3.8552,-3.8585,-3.8527,-3.8362,-3.8236,-3.7908,-3.7655,-3.8151,-3.8659,-3.9003,-3.9329,-3.9859,-4.0322,-4.0736,-4.1014,-4.082,-4.0802,-2.9807,-3.0514,-3.0514,-3.0525,-3.0525,-3.0525,-3.108,-3.1989,-3.2147,-3.3411,-3.5372,-3.5167,-3.4892,-3.5028,-3.5284,-3.5696,-3.5721,-3.5549,-3.5404,-3.5367,-3.503,-3.4435,-3.4799,-3.5502,-3.5722,-3.5806,-3.5794,-3.5563,-3.4859,-3.5125,-3.5283,-3.567,-3.6007,-3.6571,-3.6433,-3.637,-3.637,-3.637,-3.637,-3.6358,-3.6263,-3.5066,-3.3761,-3.2331,-3.1019,-2.9713,-2.8804,-2.8301,-2.8301,-2.8301,-2.8301,-2.8232,-2.7988,-2.7764,-2.7334,-2.6904,-2.6631,-2.6484,-2.6172,-2.6064,-2.6143,-2.6221,-2.6025,-2.6045,-2.624,-2.6016,-2.5791,-2.6006,-2.5986,-2.5742,-2.5732,-2.5732,-2.5732,-2.5732,-2.5732,-2.5732,-2.6014,-2.6436,-2.7107,-2.8424,-2.9578,-3.0363,-3.0603,-3.086,-3.161,-3.1605,-3.2076,-3.2323,-3.2906,-3.3688,-3.3357,-3.3224,-3.3369,-3.4012,-3.5082,-3.6098,-3.7026,-3.7916,-3.8707,-3.8911,-3.8909,-3.8602,-3.8379,-3.8467,-3.8756,-3.9398,-3.9833,-4.0255,-4.0997,-4.1675,-4.1971,-4.2226,-4.2465,-4.2601,-4.2473,-2.8398,-2.8301,-2.8291,-2.8291,-2.8291,-2.8291,-2.9256,-3.0649,-3.0808,-3.1689,-3.3032,-3.2625,-3.2608,-3.3311,-3.3827,-3.438,-3.464,-3.4645,-3.4445,-3.4088,-3.3364,-3.3364,-3.3758,-3.4133,-3.4722,-3.4734,-3.4462,-3.3804,-3.3049,-3.3677,-3.4363,-3.4736,-3.5745,-3.6835,-3.6508,-3.637,-3.637,-3.637,-3.637,-3.637,-3.587,-3.5078,-3.3761,-3.2342,-3.1019,-2.9702,-2.8698,-2.8301,-2.8301,-2.8301,-2.8301,-2.8262,-2.8184,-2.7959,-2.7598,-2.7226,-2.71,-2.6865,-2.6582,-2.6475,-2.6484,-2.6396,-2.6045,-2.6025,-2.6289,-2.6143,-2.5918,-2.5937,-2.5918,-2.5781,-2.5771,-2.5771,-2.5771,-2.5752,-2.5752,-2.5897,-2.6466,-2.703,-2.8111,-2.9362,-3.0395,-3.1222,-3.1536,-3.1694,-3.1726,-3.1612,-3.1605,-3.1564,-3.1905,-3.2702,-3.2962,-3.3049,-3.3313,-3.4059,-3.4845,-3.5697,-3.6499,-3.7549,-3.8267,-3.8868,-3.9292,-3.8984,-3.9065,-3.954,-3.9987,-4.0375,-4.1044,-4.159,-4.2446,-4.3075,-4.3297,-4.3339,-4.3585,-4.3732,-4.3883,-2.8301,-2.8301,-2.8301,-2.8301,-2.8301,-2.8301,-2.8741,-2.9302,-2.9342,-2.9799,-3.0308,-3.0225,-3.0857,-3.3432,-3.3597,-3.3817,-3.3783,-3.3648,-3.3704,-3.3541,-3.2807,-3.286,-3.3068,-3.3302,-3.3817,-3.3541,-3.3038,-3.2323,-3.206,-3.2611,-3.3481,-3.4311,-3.5729,-3.6508,-3.6445,-3.637,-3.637,-3.6465,-3.6546,-3.6628,-3.6143,-3.5246,-3.3749,-3.2342,-3.103,-2.9713,-2.8708,-2.8291,-2.8301,-2.8301,-2.8398,-2.8504,-2.8562,-2.8559,-2.8356,-2.8274,-2.8061,-2.7871,-2.7733,-2.7523,-2.7472,-2.7452,-2.7202,-2.6853,-2.6773,-2.626,-2.624,-2.6504,-2.6396,-2.5996,-2.5918,-2.5898,-2.5889,-2.583,-2.5908,-2.6446,-2.7043,-2.7902,-2.8925,-3.0293,-3.1604,-3.2179,-3.2498,-3.26,-3.26,-3.2541,-3.2516,-3.2544,-3.2494,-3.2594,-3.2717,-3.2946,-3.3245,-3.3168,-3.3577,-3.4687,-3.5609,-3.6821,-3.7945,-3.8708,-3.9265,-3.9352,-3.9606,-4.0085,-4.0696,-4.1217,-4.1944,-4.2591,-4.3313,-4.3839,-4.4155,-4.4356,-4.4519,-4.4485,-4.4361]}]]